<?xml version="1.0" encoding="UTF-8" standalone="no" ?>
<gpx xmlns="http://www.topografix.com/GPX/1/1" xmlns:xsi="http://www.w3.org/2001/XMLSchema-instance" xsi:schemaLocation="http://www.topografix.com/GPX/1/1 http://www.topografix.com/GPX/1/1/gpx.xsd" version="1.1" creator="VisuGPX - https://www.visugpx.com">
  <metadata>
    <name>Circuit 35Km</name>
    <desc><![CDATA[Circuit de 2009]]></desc>
  </metadata>
  <trk>
    <name><![CDATA[03/01/2009 (Duration: 02:24:17) on GPSies.com]]></name>
    <trkseg>
      <trkpt lat="48.04328" lon="-2.98569">
        <ele>93.865844</ele>
        <time>2009-03-01T14:30:09Z</time>
      </trkpt>
      <trkpt lat="48.04328" lon="-2.98561">
        <ele>93.865844</ele>
        <time>2009-03-01T14:30:11Z</time>
      </trkpt>
      <trkpt lat="48.04327" lon="-2.98536">
        <ele>94.346557</ele>
        <time>2009-03-01T14:30:17Z</time>
      </trkpt>
      <trkpt lat="48.04327" lon="-2.98505">
        <ele>94.346557</ele>
        <time>2009-03-01T14:30:26Z</time>
      </trkpt>
      <trkpt lat="48.04327" lon="-2.98478">
        <ele>93.865844</ele>
        <time>2009-03-01T14:30:33Z</time>
      </trkpt>
      <trkpt lat="48.04315" lon="-2.98461">
        <ele>93.865844</ele>
        <time>2009-03-01T14:30:39Z</time>
      </trkpt>
      <trkpt lat="48.04306" lon="-2.98458">
        <ele>94.346557</ele>
        <time>2009-03-01T14:30:43Z</time>
      </trkpt>
      <trkpt lat="48.04294" lon="-2.98445">
        <ele>95.788452</ele>
        <time>2009-03-01T14:30:49Z</time>
      </trkpt>
      <trkpt lat="48.04294" lon="-2.98439">
        <ele>95.788452</ele>
        <time>2009-03-01T14:30:50Z</time>
      </trkpt>
      <trkpt lat="48.04293" lon="-2.98387">
        <ele>97.230468</ele>
        <time>2009-03-01T14:31:04Z</time>
      </trkpt>
      <trkpt lat="48.0429" lon="-2.98349">
        <ele>96.269287</ele>
        <time>2009-03-01T14:31:15Z</time>
      </trkpt>
      <trkpt lat="48.04293" lon="-2.98325">
        <ele>94.827148</ele>
        <time>2009-03-01T14:31:21Z</time>
      </trkpt>
      <trkpt lat="48.04292" lon="-2.98319">
        <ele>94.827148</ele>
        <time>2009-03-01T14:31:23Z</time>
      </trkpt>
      <trkpt lat="48.04291" lon="-2.98306">
        <ele>95.307739</ele>
        <time>2009-03-01T14:31:26Z</time>
      </trkpt>
      <trkpt lat="48.04288" lon="-2.98273">
        <ele>95.788452</ele>
        <time>2009-03-01T14:31:35Z</time>
      </trkpt>
      <trkpt lat="48.0429" lon="-2.98261">
        <ele>95.788452</ele>
        <time>2009-03-01T14:31:38Z</time>
      </trkpt>
      <trkpt lat="48.04291" lon="-2.98241">
        <ele>94.827148</ele>
        <time>2009-03-01T14:31:44Z</time>
      </trkpt>
      <trkpt lat="48.04289" lon="-2.98215">
        <ele>94.827148</ele>
        <time>2009-03-01T14:31:51Z</time>
      </trkpt>
      <trkpt lat="48.04285" lon="-2.98193">
        <ele>94.827148</ele>
        <time>2009-03-01T14:31:57Z</time>
      </trkpt>
      <trkpt lat="48.04291" lon="-2.98164">
        <ele>93.385131</ele>
        <time>2009-03-01T14:32:05Z</time>
      </trkpt>
      <trkpt lat="48.04301" lon="-2.98126">
        <ele>91.943237</ele>
        <time>2009-03-01T14:32:16Z</time>
      </trkpt>
      <trkpt lat="48.04301" lon="-2.98106">
        <ele>89.539917</ele>
        <time>2009-03-01T14:32:21Z</time>
      </trkpt>
      <trkpt lat="48.04301" lon="-2.98103">
        <ele>89.539917</ele>
        <time>2009-03-01T14:32:22Z</time>
      </trkpt>
      <trkpt lat="48.04303" lon="-2.98095">
        <ele>88.578735</ele>
        <time>2009-03-01T14:32:24Z</time>
      </trkpt>
      <trkpt lat="48.04318" lon="-2.98096">
        <ele>89.059326</ele>
        <time>2009-03-01T14:32:30Z</time>
      </trkpt>
      <trkpt lat="48.04368" lon="-2.98115">
        <ele>89.539917</ele>
        <time>2009-03-01T14:32:51Z</time>
      </trkpt>
      <trkpt lat="48.04378" lon="-2.98115">
        <ele>89.059326</ele>
        <time>2009-03-01T14:32:55Z</time>
      </trkpt>
      <trkpt lat="48.04391" lon="-2.98116">
        <ele>88.578735</ele>
        <time>2009-03-01T14:33:00Z</time>
      </trkpt>
      <trkpt lat="48.04409" lon="-2.9812">
        <ele>88.098022</ele>
        <time>2009-03-01T14:33:08Z</time>
      </trkpt>
      <trkpt lat="48.04416" lon="-2.98102">
        <ele>87.617187</ele>
        <time>2009-03-01T14:33:13Z</time>
      </trkpt>
      <trkpt lat="48.04415" lon="-2.98052">
        <ele>86.656005</ele>
        <time>2009-03-01T14:33:26Z</time>
      </trkpt>
      <trkpt lat="48.04422" lon="-2.98037">
        <ele>85.213989</ele>
        <time>2009-03-01T14:33:31Z</time>
      </trkpt>
      <trkpt lat="48.04427" lon="-2.98036">
        <ele>85.213989</ele>
        <time>2009-03-01T14:33:33Z</time>
      </trkpt>
      <trkpt lat="48.04461" lon="-2.9803">
        <ele>82.330078</ele>
        <time>2009-03-01T14:33:47Z</time>
      </trkpt>
      <trkpt lat="48.04474" lon="-2.98028">
        <ele>80.40747</ele>
        <time>2009-03-01T14:33:52Z</time>
      </trkpt>
      <trkpt lat="48.04493" lon="-2.98006">
        <ele>76.562133</ele>
        <time>2009-03-01T14:34:02Z</time>
      </trkpt>
      <trkpt lat="48.04496" lon="-2.97997">
        <ele>76.562133</ele>
        <time>2009-03-01T14:34:05Z</time>
      </trkpt>
      <trkpt lat="48.04502" lon="-2.97978">
        <ele>76.08142</ele>
        <time>2009-03-01T14:34:10Z</time>
      </trkpt>
      <trkpt lat="48.04516" lon="-2.97918">
        <ele>77.042846</ele>
        <time>2009-03-01T14:34:27Z</time>
      </trkpt>
      <trkpt lat="48.04522" lon="-2.97881">
        <ele>76.562133</ele>
        <time>2009-03-01T14:34:37Z</time>
      </trkpt>
      <trkpt lat="48.04522" lon="-2.97855">
        <ele>76.08142</ele>
        <time>2009-03-01T14:34:45Z</time>
      </trkpt>
      <trkpt lat="48.0452" lon="-2.97829">
        <ele>75.60083</ele>
        <time>2009-03-01T14:34:51Z</time>
      </trkpt>
      <trkpt lat="48.04511" lon="-2.97784">
        <ele>74.639526</ele>
        <time>2009-03-01T14:35:04Z</time>
      </trkpt>
      <trkpt lat="48.04495" lon="-2.97743">
        <ele>73.678222</ele>
        <time>2009-03-01T14:35:17Z</time>
      </trkpt>
      <trkpt lat="48.04483" lon="-2.97698">
        <ele>73.678222</ele>
        <time>2009-03-01T14:35:30Z</time>
      </trkpt>
      <trkpt lat="48.04477" lon="-2.97647">
        <ele>72.716918</ele>
        <time>2009-03-01T14:35:43Z</time>
      </trkpt>
      <trkpt lat="48.04473" lon="-2.97604">
        <ele>72.236206</ele>
        <time>2009-03-01T14:35:55Z</time>
      </trkpt>
      <trkpt lat="48.04473" lon="-2.97587">
        <ele>72.236206</ele>
        <time>2009-03-01T14:36:00Z</time>
      </trkpt>
      <trkpt lat="48.04472" lon="-2.97543">
        <ele>71.274902</ele>
        <time>2009-03-01T14:36:11Z</time>
      </trkpt>
      <trkpt lat="48.04478" lon="-2.97507">
        <ele>70.794189</ele>
        <time>2009-03-01T14:36:21Z</time>
      </trkpt>
      <trkpt lat="48.04482" lon="-2.97503">
        <ele>71.274902</ele>
        <time>2009-03-01T14:36:23Z</time>
      </trkpt>
      <trkpt lat="48.04498" lon="-2.97493">
        <ele>70.794189</ele>
        <time>2009-03-01T14:36:30Z</time>
      </trkpt>
      <trkpt lat="48.04518" lon="-2.97483">
        <ele>72.236206</ele>
        <time>2009-03-01T14:36:39Z</time>
      </trkpt>
      <trkpt lat="48.04522" lon="-2.97482">
        <ele>72.236206</ele>
        <time>2009-03-01T14:36:40Z</time>
      </trkpt>
      <trkpt lat="48.04533" lon="-2.97477">
        <ele>73.678222</ele>
        <time>2009-03-01T14:36:45Z</time>
      </trkpt>
      <trkpt lat="48.04546" lon="-2.9747">
        <ele>75.60083</ele>
        <time>2009-03-01T14:36:50Z</time>
      </trkpt>
      <trkpt lat="48.04566" lon="-2.97462">
        <ele>78.484741</ele>
        <time>2009-03-01T14:36:59Z</time>
      </trkpt>
      <trkpt lat="48.0457" lon="-2.9746">
        <ele>78.965454</ele>
        <time>2009-03-01T14:37:00Z</time>
      </trkpt>
      <trkpt lat="48.04589" lon="-2.97452">
        <ele>80.40747</ele>
        <time>2009-03-01T14:37:08Z</time>
      </trkpt>
      <trkpt lat="48.04609" lon="-2.97445">
        <ele>82.330078</ele>
        <time>2009-03-01T14:37:16Z</time>
      </trkpt>
      <trkpt lat="48.04633" lon="-2.97435">
        <ele>83.771972</ele>
        <time>2009-03-01T14:37:26Z</time>
      </trkpt>
      <trkpt lat="48.04652" lon="-2.97426">
        <ele>84.733398</ele>
        <time>2009-03-01T14:37:34Z</time>
      </trkpt>
      <trkpt lat="48.04666" lon="-2.97417">
        <ele>85.213989</ele>
        <time>2009-03-01T14:37:40Z</time>
      </trkpt>
      <trkpt lat="48.04673" lon="-2.97399">
        <ele>86.656005</ele>
        <time>2009-03-01T14:37:46Z</time>
      </trkpt>
      <trkpt lat="48.04677" lon="-2.97367">
        <ele>86.656005</ele>
        <time>2009-03-01T14:37:55Z</time>
      </trkpt>
      <trkpt lat="48.04688" lon="-2.9736">
        <ele>87.136596</ele>
        <time>2009-03-01T14:37:59Z</time>
      </trkpt>
      <trkpt lat="48.04703" lon="-2.97366">
        <ele>87.617187</ele>
        <time>2009-03-01T14:38:06Z</time>
      </trkpt>
      <trkpt lat="48.04718" lon="-2.9737">
        <ele>88.578735</ele>
        <time>2009-03-01T14:38:12Z</time>
      </trkpt>
      <trkpt lat="48.0474" lon="-2.97378">
        <ele>89.539917</ele>
        <time>2009-03-01T14:38:21Z</time>
      </trkpt>
      <trkpt lat="48.04756" lon="-2.97383">
        <ele>89.539917</ele>
        <time>2009-03-01T14:38:27Z</time>
      </trkpt>
      <trkpt lat="48.04777" lon="-2.97392">
        <ele>90.981933</ele>
        <time>2009-03-01T14:38:36Z</time>
      </trkpt>
      <trkpt lat="48.04797" lon="-2.97398">
        <ele>91.462524</ele>
        <time>2009-03-01T14:38:44Z</time>
      </trkpt>
      <trkpt lat="48.0482" lon="-2.97403">
        <ele>92.42395</ele>
        <time>2009-03-01T14:38:54Z</time>
      </trkpt>
      <trkpt lat="48.04848" lon="-2.97411">
        <ele>93.385131</ele>
        <time>2009-03-01T14:39:05Z</time>
      </trkpt>
      <trkpt lat="48.04882" lon="-2.97419">
        <ele>93.385131</ele>
        <time>2009-03-01T14:39:19Z</time>
      </trkpt>
      <trkpt lat="48.04902" lon="-2.97425">
        <ele>93.865844</ele>
        <time>2009-03-01T14:39:27Z</time>
      </trkpt>
      <trkpt lat="48.04923" lon="-2.97432">
        <ele>93.865844</ele>
        <time>2009-03-01T14:39:36Z</time>
      </trkpt>
      <trkpt lat="48.0495" lon="-2.9744">
        <ele>94.346557</ele>
        <time>2009-03-01T14:39:46Z</time>
      </trkpt>
      <trkpt lat="48.04953" lon="-2.97441">
        <ele>94.346557</ele>
        <time>2009-03-01T14:39:48Z</time>
      </trkpt>
      <trkpt lat="48.04966" lon="-2.97424">
        <ele>93.865844</ele>
        <time>2009-03-01T14:39:55Z</time>
      </trkpt>
      <trkpt lat="48.04962" lon="-2.97397">
        <ele>93.385131</ele>
        <time>2009-03-01T14:40:02Z</time>
      </trkpt>
      <trkpt lat="48.04942" lon="-2.97348">
        <ele>92.42395</ele>
        <time>2009-03-01T14:40:17Z</time>
      </trkpt>
      <trkpt lat="48.04939" lon="-2.97341">
        <ele>92.42395</ele>
        <time>2009-03-01T14:40:20Z</time>
      </trkpt>
      <trkpt lat="48.04927" lon="-2.97316">
        <ele>92.42395</ele>
        <time>2009-03-01T14:40:28Z</time>
      </trkpt>
      <trkpt lat="48.04916" lon="-2.97261">
        <ele>91.943237</ele>
        <time>2009-03-01T14:40:43Z</time>
      </trkpt>
      <trkpt lat="48.04911" lon="-2.97221">
        <ele>91.462524</ele>
        <time>2009-03-01T14:40:54Z</time>
      </trkpt>
      <trkpt lat="48.04905" lon="-2.97179">
        <ele>90.020629</ele>
        <time>2009-03-01T14:41:06Z</time>
      </trkpt>
      <trkpt lat="48.04898" lon="-2.97151">
        <ele>89.059326</ele>
        <time>2009-03-01T14:41:14Z</time>
      </trkpt>
      <trkpt lat="48.0489" lon="-2.97139">
        <ele>88.578735</ele>
        <time>2009-03-01T14:41:18Z</time>
      </trkpt>
      <trkpt lat="48.04887" lon="-2.97119">
        <ele>87.617187</ele>
        <time>2009-03-01T14:41:24Z</time>
      </trkpt>
      <trkpt lat="48.04878" lon="-2.97095">
        <ele>86.656005</ele>
        <time>2009-03-01T14:41:31Z</time>
      </trkpt>
      <trkpt lat="48.04875" lon="-2.97086">
        <ele>86.175293</ele>
        <time>2009-03-01T14:41:34Z</time>
      </trkpt>
      <trkpt lat="48.04864" lon="-2.97071">
        <ele>86.175293</ele>
        <time>2009-03-01T14:41:40Z</time>
      </trkpt>
      <trkpt lat="48.04863" lon="-2.97065">
        <ele>85.69458</ele>
        <time>2009-03-01T14:41:41Z</time>
      </trkpt>
      <trkpt lat="48.04871" lon="-2.97054">
        <ele>85.69458</ele>
        <time>2009-03-01T14:41:46Z</time>
      </trkpt>
      <trkpt lat="48.04874" lon="-2.9704">
        <ele>85.213989</ele>
        <time>2009-03-01T14:41:50Z</time>
      </trkpt>
      <trkpt lat="48.04881" lon="-2.97028">
        <ele>84.733398</ele>
        <time>2009-03-01T14:41:54Z</time>
      </trkpt>
      <trkpt lat="48.04879" lon="-2.97023">
        <ele>83.771972</ele>
        <time>2009-03-01T14:41:55Z</time>
      </trkpt>
      <trkpt lat="48.04875" lon="-2.97012">
        <ele>84.252685</ele>
        <time>2009-03-01T14:41:59Z</time>
      </trkpt>
      <trkpt lat="48.04868" lon="-2.97004">
        <ele>82.810791</ele>
        <time>2009-03-01T14:42:02Z</time>
      </trkpt>
      <trkpt lat="48.04855" lon="-2.9699">
        <ele>82.330078</ele>
        <time>2009-03-01T14:42:08Z</time>
      </trkpt>
      <trkpt lat="48.04847" lon="-2.9699">
        <ele>81.849365</ele>
        <time>2009-03-01T14:42:12Z</time>
      </trkpt>
      <trkpt lat="48.0484" lon="-2.96981">
        <ele>81.849365</ele>
        <time>2009-03-01T14:42:15Z</time>
      </trkpt>
      <trkpt lat="48.04828" lon="-2.96976">
        <ele>81.849365</ele>
        <time>2009-03-01T14:42:20Z</time>
      </trkpt>
      <trkpt lat="48.04823" lon="-2.96976">
        <ele>81.849365</ele>
        <time>2009-03-01T14:42:23Z</time>
      </trkpt>
      <trkpt lat="48.04797" lon="-2.96971">
        <ele>80.40747</ele>
        <time>2009-03-01T14:42:33Z</time>
      </trkpt>
      <trkpt lat="48.04788" lon="-2.96982">
        <ele>80.40747</ele>
        <time>2009-03-01T14:42:38Z</time>
      </trkpt>
      <trkpt lat="48.04781" lon="-2.97008">
        <ele>81.368774</ele>
        <time>2009-03-01T14:42:45Z</time>
      </trkpt>
      <trkpt lat="48.04778" lon="-2.97046">
        <ele>82.810791</ele>
        <time>2009-03-01T14:42:55Z</time>
      </trkpt>
      <trkpt lat="48.04768" lon="-2.97059">
        <ele>83.291381</ele>
        <time>2009-03-01T14:43:01Z</time>
      </trkpt>
      <trkpt lat="48.04756" lon="-2.97086">
        <ele>83.771972</ele>
        <time>2009-03-01T14:43:09Z</time>
      </trkpt>
      <trkpt lat="48.04743" lon="-2.97105">
        <ele>82.810791</ele>
        <time>2009-03-01T14:43:17Z</time>
      </trkpt>
      <trkpt lat="48.0473" lon="-2.97134">
        <ele>83.291381</ele>
        <time>2009-03-01T14:43:26Z</time>
      </trkpt>
      <trkpt lat="48.04726" lon="-2.97144">
        <ele>83.771972</ele>
        <time>2009-03-01T14:43:29Z</time>
      </trkpt>
      <trkpt lat="48.0473" lon="-2.97158">
        <ele>84.252685</ele>
        <time>2009-03-01T14:43:33Z</time>
      </trkpt>
      <trkpt lat="48.04745" lon="-2.97159">
        <ele>85.69458</ele>
        <time>2009-03-01T14:43:39Z</time>
      </trkpt>
      <trkpt lat="48.04764" lon="-2.97162">
        <ele>85.69458</ele>
        <time>2009-03-01T14:43:47Z</time>
      </trkpt>
      <trkpt lat="48.04781" lon="-2.97168">
        <ele>86.656005</ele>
        <time>2009-03-01T14:43:54Z</time>
      </trkpt>
      <trkpt lat="48.04781" lon="-2.97178">
        <ele>87.136596</ele>
        <time>2009-03-01T14:43:56Z</time>
      </trkpt>
      <trkpt lat="48.04782" lon="-2.972">
        <ele>87.617187</ele>
        <time>2009-03-01T14:44:02Z</time>
      </trkpt>
      <trkpt lat="48.04782" lon="-2.97201">
        <ele>87.617187</ele>
        <time>2009-03-01T14:44:03Z</time>
      </trkpt>
      <trkpt lat="48.04771" lon="-2.972">
        <ele>87.617187</ele>
        <time>2009-03-01T14:44:07Z</time>
      </trkpt>
      <trkpt lat="48.04758" lon="-2.97196">
        <ele>86.175293</ele>
        <time>2009-03-01T14:44:12Z</time>
      </trkpt>
      <trkpt lat="48.04746" lon="-2.97199">
        <ele>85.69458</ele>
        <time>2009-03-01T14:44:17Z</time>
      </trkpt>
      <trkpt lat="48.04732" lon="-2.97203">
        <ele>86.175293</ele>
        <time>2009-03-01T14:44:23Z</time>
      </trkpt>
      <trkpt lat="48.04731" lon="-2.97214">
        <ele>86.175293</ele>
        <time>2009-03-01T14:44:26Z</time>
      </trkpt>
      <trkpt lat="48.04742" lon="-2.97224">
        <ele>86.656005</ele>
        <time>2009-03-01T14:44:31Z</time>
      </trkpt>
      <trkpt lat="48.04745" lon="-2.97236">
        <ele>87.136596</ele>
        <time>2009-03-01T14:44:35Z</time>
      </trkpt>
      <trkpt lat="48.04727" lon="-2.97249">
        <ele>87.136596</ele>
        <time>2009-03-01T14:44:43Z</time>
      </trkpt>
      <trkpt lat="48.047" lon="-2.9727">
        <ele>86.656005</ele>
        <time>2009-03-01T14:44:55Z</time>
      </trkpt>
      <trkpt lat="48.04683" lon="-2.97284">
        <ele>87.136596</ele>
        <time>2009-03-01T14:45:03Z</time>
      </trkpt>
      <trkpt lat="48.04679" lon="-2.97287">
        <ele>87.136596</ele>
        <time>2009-03-01T14:45:05Z</time>
      </trkpt>
      <trkpt lat="48.04662" lon="-2.97286">
        <ele>86.175293</ele>
        <time>2009-03-01T14:45:11Z</time>
      </trkpt>
      <trkpt lat="48.04653" lon="-2.97298">
        <ele>86.175293</ele>
        <time>2009-03-01T14:45:16Z</time>
      </trkpt>
      <trkpt lat="48.04644" lon="-2.97311">
        <ele>86.175293</ele>
        <time>2009-03-01T14:45:21Z</time>
      </trkpt>
      <trkpt lat="48.04636" lon="-2.97307">
        <ele>85.69458</ele>
        <time>2009-03-01T14:45:24Z</time>
      </trkpt>
      <trkpt lat="48.04628" lon="-2.97298">
        <ele>84.252685</ele>
        <time>2009-03-01T14:45:28Z</time>
      </trkpt>
      <trkpt lat="48.04614" lon="-2.9728">
        <ele>84.252685</ele>
        <time>2009-03-01T14:45:36Z</time>
      </trkpt>
      <trkpt lat="48.04583" lon="-2.97257">
        <ele>82.330078</ele>
        <time>2009-03-01T14:45:50Z</time>
      </trkpt>
      <trkpt lat="48.04573" lon="-2.97239">
        <ele>82.330078</ele>
        <time>2009-03-01T14:45:56Z</time>
      </trkpt>
      <trkpt lat="48.04565" lon="-2.97215">
        <ele>81.849365</ele>
        <time>2009-03-01T14:46:03Z</time>
      </trkpt>
      <trkpt lat="48.04552" lon="-2.97173">
        <ele>81.368774</ele>
        <time>2009-03-01T14:46:16Z</time>
      </trkpt>
      <trkpt lat="48.0454" lon="-2.97128">
        <ele>81.368774</ele>
        <time>2009-03-01T14:46:29Z</time>
      </trkpt>
      <trkpt lat="48.04531" lon="-2.97089">
        <ele>80.888183</ele>
        <time>2009-03-01T14:46:39Z</time>
      </trkpt>
      <trkpt lat="48.04527" lon="-2.97075">
        <ele>80.888183</ele>
        <time>2009-03-01T14:46:44Z</time>
      </trkpt>
      <trkpt lat="48.04509" lon="-2.9702">
        <ele>79.926635</ele>
        <time>2009-03-01T14:47:00Z</time>
      </trkpt>
      <trkpt lat="48.04505" lon="-2.97005">
        <ele>79.926635</ele>
        <time>2009-03-01T14:47:04Z</time>
      </trkpt>
      <trkpt lat="48.04498" lon="-2.96981">
        <ele>79.926635</ele>
        <time>2009-03-01T14:47:11Z</time>
      </trkpt>
      <trkpt lat="48.04488" lon="-2.96944">
        <ele>78.484741</ele>
        <time>2009-03-01T14:47:22Z</time>
      </trkpt>
      <trkpt lat="48.04468" lon="-2.96926">
        <ele>77.523437</ele>
        <time>2009-03-01T14:47:31Z</time>
      </trkpt>
      <trkpt lat="48.04449" lon="-2.96922">
        <ele>76.562133</ele>
        <time>2009-03-01T14:47:39Z</time>
      </trkpt>
      <trkpt lat="48.04435" lon="-2.96917">
        <ele>75.60083</ele>
        <time>2009-03-01T14:47:45Z</time>
      </trkpt>
      <trkpt lat="48.04421" lon="-2.96912">
        <ele>74.639526</ele>
        <time>2009-03-01T14:47:50Z</time>
      </trkpt>
      <trkpt lat="48.04375" lon="-2.96893">
        <ele>71.274902</ele>
        <time>2009-03-01T14:48:10Z</time>
      </trkpt>
      <trkpt lat="48.04327" lon="-2.96873">
        <ele>67.910278</ele>
        <time>2009-03-01T14:48:30Z</time>
      </trkpt>
      <trkpt lat="48.04319" lon="-2.96868">
        <ele>68.390869</ele>
        <time>2009-03-01T14:48:33Z</time>
      </trkpt>
      <trkpt lat="48.04312" lon="-2.96862">
        <ele>68.390869</ele>
        <time>2009-03-01T14:48:36Z</time>
      </trkpt>
      <trkpt lat="48.04279" lon="-2.96854">
        <ele>66.468261</ele>
        <time>2009-03-01T14:48:49Z</time>
      </trkpt>
      <trkpt lat="48.04253" lon="-2.96858">
        <ele>63.58435</ele>
        <time>2009-03-01T14:49:00Z</time>
      </trkpt>
      <trkpt lat="48.04235" lon="-2.96869">
        <ele>62.622924</ele>
        <time>2009-03-01T14:49:08Z</time>
      </trkpt>
      <trkpt lat="48.0419" lon="-2.96904">
        <ele>57.816528</ele>
        <time>2009-03-01T14:49:28Z</time>
      </trkpt>
      <trkpt lat="48.04171" lon="-2.96918">
        <ele>57.335815</ele>
        <time>2009-03-01T14:49:37Z</time>
      </trkpt>
      <trkpt lat="48.04132" lon="-2.96957">
        <ele>56.374511</ele>
        <time>2009-03-01T14:49:55Z</time>
      </trkpt>
      <trkpt lat="48.04097" lon="-2.96988">
        <ele>55.893798</ele>
        <time>2009-03-01T14:50:12Z</time>
      </trkpt>
      <trkpt lat="48.04091" lon="-2.96993">
        <ele>55.413085</ele>
        <time>2009-03-01T14:50:15Z</time>
      </trkpt>
      <trkpt lat="48.04066" lon="-2.97003">
        <ele>55.893798</ele>
        <time>2009-03-01T14:50:25Z</time>
      </trkpt>
      <trkpt lat="48.04048" lon="-2.97005">
        <ele>55.413085</ele>
        <time>2009-03-01T14:50:32Z</time>
      </trkpt>
      <trkpt lat="48.04015" lon="-2.96995">
        <ele>56.374511</ele>
        <time>2009-03-01T14:50:46Z</time>
      </trkpt>
      <trkpt lat="48.03999" lon="-2.96985">
        <ele>56.374511</ele>
        <time>2009-03-01T14:50:52Z</time>
      </trkpt>
      <trkpt lat="48.0397" lon="-2.96963">
        <ele>53.971191</ele>
        <time>2009-03-01T14:51:06Z</time>
      </trkpt>
      <trkpt lat="48.03948" lon="-2.96958">
        <ele>53.490478</ele>
        <time>2009-03-01T14:51:15Z</time>
      </trkpt>
      <trkpt lat="48.03922" lon="-2.96975">
        <ele>53.490478</ele>
        <time>2009-03-01T14:51:26Z</time>
      </trkpt>
      <trkpt lat="48.03907" lon="-2.96984">
        <ele>53.490478</ele>
        <time>2009-03-01T14:51:32Z</time>
      </trkpt>
      <trkpt lat="48.03893" lon="-2.97003">
        <ele>52.048584</ele>
        <time>2009-03-01T14:51:40Z</time>
      </trkpt>
      <trkpt lat="48.03888" lon="-2.97025">
        <ele>51.567871</ele>
        <time>2009-03-01T14:51:46Z</time>
      </trkpt>
      <trkpt lat="48.03887" lon="-2.97045">
        <ele>53.009765</ele>
        <time>2009-03-01T14:51:51Z</time>
      </trkpt>
      <trkpt lat="48.03888" lon="-2.97084">
        <ele>54.932373</ele>
        <time>2009-03-01T14:52:02Z</time>
      </trkpt>
      <trkpt lat="48.03887" lon="-2.97087">
        <ele>54.932373</ele>
        <time>2009-03-01T14:52:03Z</time>
      </trkpt>
      <trkpt lat="48.03874" lon="-2.97102">
        <ele>55.413085</ele>
        <time>2009-03-01T14:52:09Z</time>
      </trkpt>
      <trkpt lat="48.03869" lon="-2.97105">
        <ele>55.413085</ele>
        <time>2009-03-01T14:52:12Z</time>
      </trkpt>
      <trkpt lat="48.03816" lon="-2.97142">
        <ele>55.893798</ele>
        <time>2009-03-01T14:52:35Z</time>
      </trkpt>
      <trkpt lat="48.03767" lon="-2.97169">
        <ele>55.413085</ele>
        <time>2009-03-01T14:52:56Z</time>
      </trkpt>
      <trkpt lat="48.0373" lon="-2.97176">
        <ele>53.971191</ele>
        <time>2009-03-01T14:53:11Z</time>
      </trkpt>
      <trkpt lat="48.03724" lon="-2.97176">
        <ele>53.490478</ele>
        <time>2009-03-01T14:53:13Z</time>
      </trkpt>
      <trkpt lat="48.03711" lon="-2.97168">
        <ele>53.009765</ele>
        <time>2009-03-01T14:53:19Z</time>
      </trkpt>
      <trkpt lat="48.03708" lon="-2.97153">
        <ele>53.009765</ele>
        <time>2009-03-01T14:53:23Z</time>
      </trkpt>
      <trkpt lat="48.03708" lon="-2.9709">
        <ele>52.048584</ele>
        <time>2009-03-01T14:53:40Z</time>
      </trkpt>
      <trkpt lat="48.03708" lon="-2.97077">
        <ele>51.567871</ele>
        <time>2009-03-01T14:53:43Z</time>
      </trkpt>
      <trkpt lat="48.037" lon="-2.97074">
        <ele>52.048584</ele>
        <time>2009-03-01T14:53:47Z</time>
      </trkpt>
      <trkpt lat="48.03694" lon="-2.97078">
        <ele>51.087158</ele>
        <time>2009-03-01T14:53:49Z</time>
      </trkpt>
      <trkpt lat="48.03677" lon="-2.97088">
        <ele>51.567871</ele>
        <time>2009-03-01T14:53:57Z</time>
      </trkpt>
      <trkpt lat="48.0366" lon="-2.97098">
        <ele>51.087158</ele>
        <time>2009-03-01T14:54:04Z</time>
      </trkpt>
      <trkpt lat="48.0365" lon="-2.97103">
        <ele>51.567871</ele>
        <time>2009-03-01T14:54:08Z</time>
      </trkpt>
      <trkpt lat="48.03639" lon="-2.9711">
        <ele>51.087158</ele>
        <time>2009-03-01T14:54:13Z</time>
      </trkpt>
      <trkpt lat="48.03629" lon="-2.97116">
        <ele>50.606567</ele>
        <time>2009-03-01T14:54:17Z</time>
      </trkpt>
      <trkpt lat="48.03618" lon="-2.97122">
        <ele>51.087158</ele>
        <time>2009-03-01T14:54:22Z</time>
      </trkpt>
      <trkpt lat="48.03604" lon="-2.97129">
        <ele>51.567871</ele>
        <time>2009-03-01T14:54:28Z</time>
      </trkpt>
      <trkpt lat="48.03594" lon="-2.97135">
        <ele>50.606567</ele>
        <time>2009-03-01T14:54:32Z</time>
      </trkpt>
      <trkpt lat="48.03583" lon="-2.97142">
        <ele>51.087158</ele>
        <time>2009-03-01T14:54:37Z</time>
      </trkpt>
      <trkpt lat="48.03577" lon="-2.97146">
        <ele>50.606567</ele>
        <time>2009-03-01T14:54:40Z</time>
      </trkpt>
      <trkpt lat="48.03563" lon="-2.97154">
        <ele>50.606567</ele>
        <time>2009-03-01T14:54:45Z</time>
      </trkpt>
      <trkpt lat="48.03552" lon="-2.97159">
        <ele>50.606567</ele>
        <time>2009-03-01T14:54:50Z</time>
      </trkpt>
      <trkpt lat="48.03536" lon="-2.97168">
        <ele>51.567871</ele>
        <time>2009-03-01T14:54:57Z</time>
      </trkpt>
      <trkpt lat="48.03529" lon="-2.97172">
        <ele>51.567871</ele>
        <time>2009-03-01T14:55:00Z</time>
      </trkpt>
      <trkpt lat="48.03513" lon="-2.97172">
        <ele>52.048584</ele>
        <time>2009-03-01T14:55:07Z</time>
      </trkpt>
      <trkpt lat="48.03509" lon="-2.97174">
        <ele>51.567871</ele>
        <time>2009-03-01T14:55:08Z</time>
      </trkpt>
      <trkpt lat="48.03475" lon="-2.97194">
        <ele>51.087158</ele>
        <time>2009-03-01T14:55:23Z</time>
      </trkpt>
      <trkpt lat="48.0345" lon="-2.97207">
        <ele>51.087158</ele>
        <time>2009-03-01T14:55:33Z</time>
      </trkpt>
      <trkpt lat="48.0342" lon="-2.97224">
        <ele>51.087158</ele>
        <time>2009-03-01T14:55:46Z</time>
      </trkpt>
      <trkpt lat="48.03372" lon="-2.97248">
        <ele>50.606567</ele>
        <time>2009-03-01T14:56:06Z</time>
      </trkpt>
      <trkpt lat="48.03326" lon="-2.97274">
        <ele>50.606567</ele>
        <time>2009-03-01T14:56:26Z</time>
      </trkpt>
      <trkpt lat="48.03265" lon="-2.97307">
        <ele>50.606567</ele>
        <time>2009-03-01T14:56:52Z</time>
      </trkpt>
      <trkpt lat="48.03226" lon="-2.97329">
        <ele>50.125976</ele>
        <time>2009-03-01T14:57:09Z</time>
      </trkpt>
      <trkpt lat="48.03177" lon="-2.97356">
        <ele>50.606567</ele>
        <time>2009-03-01T14:57:30Z</time>
      </trkpt>
      <trkpt lat="48.03149" lon="-2.97373">
        <ele>50.606567</ele>
        <time>2009-03-01T14:57:42Z</time>
      </trkpt>
      <trkpt lat="48.03108" lon="-2.97396">
        <ele>51.087158</ele>
        <time>2009-03-01T14:57:59Z</time>
      </trkpt>
      <trkpt lat="48.0307" lon="-2.97418">
        <ele>49.645263</ele>
        <time>2009-03-01T14:58:16Z</time>
      </trkpt>
      <trkpt lat="48.03012" lon="-2.97449">
        <ele>49.645263</ele>
        <time>2009-03-01T14:58:40Z</time>
      </trkpt>
      <trkpt lat="48.02975" lon="-2.97468">
        <ele>49.645263</ele>
        <time>2009-03-01T14:58:56Z</time>
      </trkpt>
      <trkpt lat="48.02963" lon="-2.97487">
        <ele>51.567871</ele>
        <time>2009-03-01T14:59:03Z</time>
      </trkpt>
      <trkpt lat="48.02964" lon="-2.975">
        <ele>51.567871</ele>
        <time>2009-03-01T14:59:07Z</time>
      </trkpt>
      <trkpt lat="48.02969" lon="-2.97529">
        <ele>51.087158</ele>
        <time>2009-03-01T14:59:15Z</time>
      </trkpt>
      <trkpt lat="48.02969" lon="-2.97587">
        <ele>50.606567</ele>
        <time>2009-03-01T14:59:30Z</time>
      </trkpt>
      <trkpt lat="48.02969" lon="-2.97618">
        <ele>51.087158</ele>
        <time>2009-03-01T14:59:38Z</time>
      </trkpt>
      <trkpt lat="48.02961" lon="-2.97645">
        <ele>51.087158</ele>
        <time>2009-03-01T14:59:46Z</time>
      </trkpt>
      <trkpt lat="48.02957" lon="-2.97649">
        <ele>50.606567</ele>
        <time>2009-03-01T14:59:48Z</time>
      </trkpt>
      <trkpt lat="48.0294" lon="-2.97674">
        <ele>51.567871</ele>
        <time>2009-03-01T14:59:58Z</time>
      </trkpt>
      <trkpt lat="48.02939" lon="-2.97676">
        <ele>51.567871</ele>
        <time>2009-03-01T14:59:59Z</time>
      </trkpt>
      <trkpt lat="48.02938" lon="-2.97676">
        <ele>51.567871</ele>
        <time>2009-03-01T14:59:59Z</time>
      </trkpt>
      <trkpt lat="48.02924" lon="-2.97673">
        <ele>51.567871</ele>
        <time>2009-03-01T15:00:04Z</time>
      </trkpt>
      <trkpt lat="48.02917" lon="-2.97671">
        <ele>52.048584</ele>
        <time>2009-03-01T15:00:07Z</time>
      </trkpt>
      <trkpt lat="48.02889" lon="-2.97663">
        <ele>52.529174</ele>
        <time>2009-03-01T15:00:19Z</time>
      </trkpt>
      <trkpt lat="48.02835" lon="-2.97643">
        <ele>52.048584</ele>
        <time>2009-03-01T15:00:41Z</time>
      </trkpt>
      <trkpt lat="48.02794" lon="-2.97632">
        <ele>52.048584</ele>
        <time>2009-03-01T15:00:58Z</time>
      </trkpt>
      <trkpt lat="48.02753" lon="-2.9764">
        <ele>52.048584</ele>
        <time>2009-03-01T15:01:14Z</time>
      </trkpt>
      <trkpt lat="48.02698" lon="-2.97664">
        <ele>52.048584</ele>
        <time>2009-03-01T15:01:37Z</time>
      </trkpt>
      <trkpt lat="48.02651" lon="-2.97683">
        <ele>53.490478</ele>
        <time>2009-03-01T15:01:57Z</time>
      </trkpt>
      <trkpt lat="48.0261" lon="-2.977">
        <ele>54.932373</ele>
        <time>2009-03-01T15:02:14Z</time>
      </trkpt>
      <trkpt lat="48.02592" lon="-2.97706">
        <ele>56.374511</ele>
        <time>2009-03-01T15:02:21Z</time>
      </trkpt>
      <trkpt lat="48.02578" lon="-2.97723">
        <ele>57.816528</ele>
        <time>2009-03-01T15:02:28Z</time>
      </trkpt>
      <trkpt lat="48.02579" lon="-2.97726">
        <ele>57.335815</ele>
        <time>2009-03-01T15:02:29Z</time>
      </trkpt>
      <trkpt lat="48.02588" lon="-2.97724">
        <ele>56.855102</ele>
        <time>2009-03-01T15:02:33Z</time>
      </trkpt>
      <trkpt lat="48.02594" lon="-2.9772">
        <ele>56.855102</ele>
        <time>2009-03-01T15:02:36Z</time>
      </trkpt>
      <trkpt lat="48.02614" lon="-2.97715">
        <ele>55.413085</ele>
        <time>2009-03-01T15:02:44Z</time>
      </trkpt>
      <trkpt lat="48.02627" lon="-2.97707">
        <ele>54.932373</ele>
        <time>2009-03-01T15:02:49Z</time>
      </trkpt>
      <trkpt lat="48.02629" lon="-2.97707">
        <ele>57.335815</ele>
        <time>2009-03-01T15:02:50Z</time>
      </trkpt>
      <trkpt lat="48.02632" lon="-2.97708">
        <ele>55.893798</ele>
        <time>2009-03-01T15:02:51Z</time>
      </trkpt>
      <trkpt lat="48.02634" lon="-2.97707">
        <ele>55.893798</ele>
        <time>2009-03-01T15:02:52Z</time>
      </trkpt>
      <trkpt lat="48.0264" lon="-2.97705">
        <ele>55.893798</ele>
        <time>2009-03-01T15:02:55Z</time>
      </trkpt>
      <trkpt lat="48.02642" lon="-2.97705">
        <ele>56.374511</ele>
        <time>2009-03-01T15:02:55Z</time>
      </trkpt>
      <trkpt lat="48.02642" lon="-2.97705">
        <ele>56.374511</ele>
        <time>2009-03-01T15:02:55Z</time>
      </trkpt>
      <trkpt lat="48.02643" lon="-2.97704">
        <ele>56.374511</ele>
        <time>2009-03-01T15:02:56Z</time>
      </trkpt>
      <trkpt lat="48.02647" lon="-2.97703">
        <ele>56.374511</ele>
        <time>2009-03-01T15:02:58Z</time>
      </trkpt>
      <trkpt lat="48.02647" lon="-2.97704">
        <ele>56.374511</ele>
        <time>2009-03-01T15:02:58Z</time>
      </trkpt>
      <trkpt lat="48.02653" lon="-2.97714">
        <ele>58.297119</ele>
        <time>2009-03-01T15:03:01Z</time>
      </trkpt>
      <trkpt lat="48.02655" lon="-2.97716">
        <ele>58.77771</ele>
        <time>2009-03-01T15:03:02Z</time>
      </trkpt>
      <trkpt lat="48.02655" lon="-2.97716">
        <ele>59.739135</ele>
        <time>2009-03-01T15:03:02Z</time>
      </trkpt>
      <trkpt lat="48.02658" lon="-2.97719">
        <ele>62.142334</ele>
        <time>2009-03-01T15:03:04Z</time>
      </trkpt>
      <trkpt lat="48.02666" lon="-2.97721">
        <ele>65.026367</ele>
        <time>2009-03-01T15:03:07Z</time>
      </trkpt>
      <trkpt lat="48.02674" lon="-2.97724">
        <ele>66.468261</ele>
        <time>2009-03-01T15:03:10Z</time>
      </trkpt>
      <trkpt lat="48.02682" lon="-2.9773">
        <ele>68.871582</ele>
        <time>2009-03-01T15:03:14Z</time>
      </trkpt>
      <trkpt lat="48.02684" lon="-2.9773">
        <ele>68.871582</ele>
        <time>2009-03-01T15:03:15Z</time>
      </trkpt>
      <trkpt lat="48.02685" lon="-2.97731">
        <ele>68.871582</ele>
        <time>2009-03-01T15:03:15Z</time>
      </trkpt>
      <trkpt lat="48.02693" lon="-2.97739">
        <ele>70.313476</ele>
        <time>2009-03-01T15:03:19Z</time>
      </trkpt>
      <trkpt lat="48.027" lon="-2.97749">
        <ele>71.274902</ele>
        <time>2009-03-01T15:03:23Z</time>
      </trkpt>
      <trkpt lat="48.02706" lon="-2.97762">
        <ele>72.236206</ele>
        <time>2009-03-01T15:03:27Z</time>
      </trkpt>
      <trkpt lat="48.02708" lon="-2.97777">
        <ele>74.158813</ele>
        <time>2009-03-01T15:03:31Z</time>
      </trkpt>
      <trkpt lat="48.02709" lon="-2.97792">
        <ele>75.120239</ele>
        <time>2009-03-01T15:03:35Z</time>
      </trkpt>
      <trkpt lat="48.02706" lon="-2.97809">
        <ele>78.004028</ele>
        <time>2009-03-01T15:03:40Z</time>
      </trkpt>
      <trkpt lat="48.02709" lon="-2.97823">
        <ele>78.965454</ele>
        <time>2009-03-01T15:03:44Z</time>
      </trkpt>
      <trkpt lat="48.02715" lon="-2.97844">
        <ele>80.888183</ele>
        <time>2009-03-01T15:03:50Z</time>
      </trkpt>
      <trkpt lat="48.02718" lon="-2.9785">
        <ele>80.888183</ele>
        <time>2009-03-01T15:03:52Z</time>
      </trkpt>
      <trkpt lat="48.02723" lon="-2.97868">
        <ele>82.330078</ele>
        <time>2009-03-01T15:03:57Z</time>
      </trkpt>
      <trkpt lat="48.02732" lon="-2.97889">
        <ele>82.810791</ele>
        <time>2009-03-01T15:04:04Z</time>
      </trkpt>
      <trkpt lat="48.0274" lon="-2.97902">
        <ele>81.849365</ele>
        <time>2009-03-01T15:04:09Z</time>
      </trkpt>
      <trkpt lat="48.02747" lon="-2.97913">
        <ele>79.926635</ele>
        <time>2009-03-01T15:04:13Z</time>
      </trkpt>
      <trkpt lat="48.02754" lon="-2.97925">
        <ele>77.042846</ele>
        <time>2009-03-01T15:04:17Z</time>
      </trkpt>
      <trkpt lat="48.02765" lon="-2.97947">
        <ele>75.60083</ele>
        <time>2009-03-01T15:04:24Z</time>
      </trkpt>
      <trkpt lat="48.02773" lon="-2.97977">
        <ele>73.678222</ele>
        <time>2009-03-01T15:04:33Z</time>
      </trkpt>
      <trkpt lat="48.02782" lon="-2.97996">
        <ele>71.755493</ele>
        <time>2009-03-01T15:04:39Z</time>
      </trkpt>
      <trkpt lat="48.02783" lon="-2.98001">
        <ele>72.236206</ele>
        <time>2009-03-01T15:04:40Z</time>
      </trkpt>
      <trkpt lat="48.02793" lon="-2.98011">
        <ele>69.352294</ele>
        <time>2009-03-01T15:04:45Z</time>
      </trkpt>
      <trkpt lat="48.02799" lon="-2.98011">
        <ele>69.352294</ele>
        <time>2009-03-01T15:04:48Z</time>
      </trkpt>
      <trkpt lat="48.0281" lon="-2.98022">
        <ele>71.274902</ele>
        <time>2009-03-01T15:04:53Z</time>
      </trkpt>
      <trkpt lat="48.02823" lon="-2.98035">
        <ele>72.716918</ele>
        <time>2009-03-01T15:04:59Z</time>
      </trkpt>
      <trkpt lat="48.02833" lon="-2.98042">
        <ele>73.678222</ele>
        <time>2009-03-01T15:05:04Z</time>
      </trkpt>
      <trkpt lat="48.02851" lon="-2.98053">
        <ele>75.60083</ele>
        <time>2009-03-01T15:05:12Z</time>
      </trkpt>
      <trkpt lat="48.02864" lon="-2.9806">
        <ele>76.08142</ele>
        <time>2009-03-01T15:05:17Z</time>
      </trkpt>
      <trkpt lat="48.02866" lon="-2.98062">
        <ele>75.60083</ele>
        <time>2009-03-01T15:05:18Z</time>
      </trkpt>
      <trkpt lat="48.02884" lon="-2.98071">
        <ele>76.08142</ele>
        <time>2009-03-01T15:05:25Z</time>
      </trkpt>
      <trkpt lat="48.02896" lon="-2.98079">
        <ele>75.60083</ele>
        <time>2009-03-01T15:05:31Z</time>
      </trkpt>
      <trkpt lat="48.02904" lon="-2.98095">
        <ele>76.08142</ele>
        <time>2009-03-01T15:05:36Z</time>
      </trkpt>
      <trkpt lat="48.02911" lon="-2.98113">
        <ele>74.639526</ele>
        <time>2009-03-01T15:05:42Z</time>
      </trkpt>
      <trkpt lat="48.02917" lon="-2.98127">
        <ele>74.639526</ele>
        <time>2009-03-01T15:05:46Z</time>
      </trkpt>
      <trkpt lat="48.02922" lon="-2.98127">
        <ele>74.158813</ele>
        <time>2009-03-01T15:05:48Z</time>
      </trkpt>
      <trkpt lat="48.02932" lon="-2.98114">
        <ele>74.158813</ele>
        <time>2009-03-01T15:05:53Z</time>
      </trkpt>
      <trkpt lat="48.02946" lon="-2.98097">
        <ele>75.60083</ele>
        <time>2009-03-01T15:06:01Z</time>
      </trkpt>
      <trkpt lat="48.02958" lon="-2.98081">
        <ele>76.08142</ele>
        <time>2009-03-01T15:06:07Z</time>
      </trkpt>
      <trkpt lat="48.02968" lon="-2.98076">
        <ele>76.562133</ele>
        <time>2009-03-01T15:06:12Z</time>
      </trkpt>
      <trkpt lat="48.0298" lon="-2.98076">
        <ele>77.042846</ele>
        <time>2009-03-01T15:06:16Z</time>
      </trkpt>
      <trkpt lat="48.02992" lon="-2.98078">
        <ele>78.965454</ele>
        <time>2009-03-01T15:06:21Z</time>
      </trkpt>
      <trkpt lat="48.03007" lon="-2.98082">
        <ele>80.40747</ele>
        <time>2009-03-01T15:06:27Z</time>
      </trkpt>
      <trkpt lat="48.03014" lon="-2.98087">
        <ele>81.368774</ele>
        <time>2009-03-01T15:06:30Z</time>
      </trkpt>
      <trkpt lat="48.03023" lon="-2.98083">
        <ele>80.888183</ele>
        <time>2009-03-01T15:06:34Z</time>
      </trkpt>
      <trkpt lat="48.03042" lon="-2.9809">
        <ele>82.330078</ele>
        <time>2009-03-01T15:06:42Z</time>
      </trkpt>
      <trkpt lat="48.03053" lon="-2.98089">
        <ele>82.810791</ele>
        <time>2009-03-01T15:06:46Z</time>
      </trkpt>
      <trkpt lat="48.03065" lon="-2.9809">
        <ele>82.810791</ele>
        <time>2009-03-01T15:06:51Z</time>
      </trkpt>
      <trkpt lat="48.0307" lon="-2.98086">
        <ele>82.330078</ele>
        <time>2009-03-01T15:06:53Z</time>
      </trkpt>
      <trkpt lat="48.03081" lon="-2.98072">
        <ele>81.849365</ele>
        <time>2009-03-01T15:06:59Z</time>
      </trkpt>
      <trkpt lat="48.031" lon="-2.98037">
        <ele>79.446044</ele>
        <time>2009-03-01T15:07:11Z</time>
      </trkpt>
      <trkpt lat="48.03113" lon="-2.98012">
        <ele>77.523437</ele>
        <time>2009-03-01T15:07:20Z</time>
      </trkpt>
      <trkpt lat="48.03138" lon="-2.97984">
        <ele>74.639526</ele>
        <time>2009-03-01T15:07:32Z</time>
      </trkpt>
      <trkpt lat="48.03152" lon="-2.97975">
        <ele>73.197631</ele>
        <time>2009-03-01T15:07:38Z</time>
      </trkpt>
      <trkpt lat="48.03165" lon="-2.97964">
        <ele>72.236206</ele>
        <time>2009-03-01T15:07:44Z</time>
      </trkpt>
      <trkpt lat="48.0317" lon="-2.97958">
        <ele>71.755493</ele>
        <time>2009-03-01T15:07:47Z</time>
      </trkpt>
      <trkpt lat="48.0318" lon="-2.97951">
        <ele>70.313476</ele>
        <time>2009-03-01T15:07:51Z</time>
      </trkpt>
      <trkpt lat="48.03191" lon="-2.97946">
        <ele>71.755493</ele>
        <time>2009-03-01T15:07:56Z</time>
      </trkpt>
      <trkpt lat="48.03206" lon="-2.97931">
        <ele>72.236206</ele>
        <time>2009-03-01T15:08:03Z</time>
      </trkpt>
      <trkpt lat="48.03216" lon="-2.97929">
        <ele>72.236206</ele>
        <time>2009-03-01T15:08:07Z</time>
      </trkpt>
      <trkpt lat="48.03232" lon="-2.97927">
        <ele>72.236206</ele>
        <time>2009-03-01T15:08:13Z</time>
      </trkpt>
      <trkpt lat="48.03248" lon="-2.97934">
        <ele>72.236206</ele>
        <time>2009-03-01T15:08:20Z</time>
      </trkpt>
      <trkpt lat="48.03261" lon="-2.97939">
        <ele>70.313476</ele>
        <time>2009-03-01T15:08:25Z</time>
      </trkpt>
      <trkpt lat="48.03265" lon="-2.97942">
        <ele>69.832885</ele>
        <time>2009-03-01T15:08:27Z</time>
      </trkpt>
      <trkpt lat="48.0329" lon="-2.97962">
        <ele>67.910278</ele>
        <time>2009-03-01T15:08:39Z</time>
      </trkpt>
      <trkpt lat="48.03311" lon="-2.97979">
        <ele>69.352294</ele>
        <time>2009-03-01T15:08:48Z</time>
      </trkpt>
      <trkpt lat="48.03313" lon="-2.97983">
        <ele>69.352294</ele>
        <time>2009-03-01T15:08:50Z</time>
      </trkpt>
      <trkpt lat="48.03322" lon="-2.97997">
        <ele>68.871582</ele>
        <time>2009-03-01T15:08:55Z</time>
      </trkpt>
      <trkpt lat="48.03327" lon="-2.98027">
        <ele>67.429687</ele>
        <time>2009-03-01T15:09:03Z</time>
      </trkpt>
      <trkpt lat="48.03326" lon="-2.9804">
        <ele>67.910278</ele>
        <time>2009-03-01T15:09:06Z</time>
      </trkpt>
      <trkpt lat="48.03324" lon="-2.98065">
        <ele>65.98767</ele>
        <time>2009-03-01T15:09:13Z</time>
      </trkpt>
      <trkpt lat="48.03325" lon="-2.98077">
        <ele>64.545654</ele>
        <time>2009-03-01T15:09:16Z</time>
      </trkpt>
      <trkpt lat="48.03323" lon="-2.98089">
        <ele>64.065063</ele>
        <time>2009-03-01T15:09:20Z</time>
      </trkpt>
      <trkpt lat="48.03307" lon="-2.98103">
        <ele>64.545654</ele>
        <time>2009-03-01T15:09:27Z</time>
      </trkpt>
      <trkpt lat="48.03291" lon="-2.98114">
        <ele>63.58435</ele>
        <time>2009-03-01T15:09:34Z</time>
      </trkpt>
      <trkpt lat="48.03271" lon="-2.98141">
        <ele>60.219726</ele>
        <time>2009-03-01T15:09:45Z</time>
      </trkpt>
      <trkpt lat="48.03265" lon="-2.98156">
        <ele>59.258422</ele>
        <time>2009-03-01T15:09:49Z</time>
      </trkpt>
      <trkpt lat="48.03256" lon="-2.98174">
        <ele>58.77771</ele>
        <time>2009-03-01T15:09:55Z</time>
      </trkpt>
      <trkpt lat="48.03231" lon="-2.9821">
        <ele>57.335815</ele>
        <time>2009-03-01T15:10:09Z</time>
      </trkpt>
      <trkpt lat="48.03227" lon="-2.98217">
        <ele>57.816528</ele>
        <time>2009-03-01T15:10:12Z</time>
      </trkpt>
      <trkpt lat="48.03213" lon="-2.98237">
        <ele>59.258422</ele>
        <time>2009-03-01T15:10:20Z</time>
      </trkpt>
      <trkpt lat="48.032" lon="-2.98262">
        <ele>59.739135</ele>
        <time>2009-03-01T15:10:28Z</time>
      </trkpt>
      <trkpt lat="48.03184" lon="-2.98288">
        <ele>59.258422</ele>
        <time>2009-03-01T15:10:38Z</time>
      </trkpt>
      <trkpt lat="48.03181" lon="-2.98294">
        <ele>59.258422</ele>
        <time>2009-03-01T15:10:40Z</time>
      </trkpt>
      <trkpt lat="48.0317" lon="-2.98316">
        <ele>59.739135</ele>
        <time>2009-03-01T15:10:47Z</time>
      </trkpt>
      <trkpt lat="48.03158" lon="-2.98345">
        <ele>59.739135</ele>
        <time>2009-03-01T15:10:56Z</time>
      </trkpt>
      <trkpt lat="48.03145" lon="-2.98362">
        <ele>58.77771</ele>
        <time>2009-03-01T15:11:03Z</time>
      </trkpt>
      <trkpt lat="48.03135" lon="-2.98369">
        <ele>59.258422</ele>
        <time>2009-03-01T15:11:07Z</time>
      </trkpt>
      <trkpt lat="48.03111" lon="-2.98385">
        <ele>60.219726</ele>
        <time>2009-03-01T15:11:18Z</time>
      </trkpt>
      <trkpt lat="48.03108" lon="-2.98385">
        <ele>60.700317</ele>
        <time>2009-03-01T15:11:19Z</time>
      </trkpt>
      <trkpt lat="48.03099" lon="-2.98396">
        <ele>61.18103</ele>
        <time>2009-03-01T15:11:24Z</time>
      </trkpt>
      <trkpt lat="48.03093" lon="-2.98404">
        <ele>60.219726</ele>
        <time>2009-03-01T15:11:27Z</time>
      </trkpt>
      <trkpt lat="48.03078" lon="-2.98424">
        <ele>60.219726</ele>
        <time>2009-03-01T15:11:35Z</time>
      </trkpt>
      <trkpt lat="48.0307" lon="-2.98435">
        <ele>60.700317</ele>
        <time>2009-03-01T15:11:39Z</time>
      </trkpt>
      <trkpt lat="48.03056" lon="-2.98461">
        <ele>59.258422</ele>
        <time>2009-03-01T15:11:48Z</time>
      </trkpt>
      <trkpt lat="48.03038" lon="-2.98486">
        <ele>60.700317</ele>
        <time>2009-03-01T15:11:58Z</time>
      </trkpt>
      <trkpt lat="48.03028" lon="-2.98508">
        <ele>62.142334</ele>
        <time>2009-03-01T15:12:05Z</time>
      </trkpt>
      <trkpt lat="48.03026" lon="-2.98522">
        <ele>62.622924</ele>
        <time>2009-03-01T15:12:09Z</time>
      </trkpt>
      <trkpt lat="48.03036" lon="-2.98567">
        <ele>60.219726</ele>
        <time>2009-03-01T15:12:22Z</time>
      </trkpt>
      <trkpt lat="48.03046" lon="-2.98601">
        <ele>60.219726</ele>
        <time>2009-03-01T15:12:32Z</time>
      </trkpt>
      <trkpt lat="48.03047" lon="-2.98606">
        <ele>60.219726</ele>
        <time>2009-03-01T15:12:33Z</time>
      </trkpt>
      <trkpt lat="48.03037" lon="-2.98633">
        <ele>61.661743</ele>
        <time>2009-03-01T15:12:41Z</time>
      </trkpt>
      <trkpt lat="48.03034" lon="-2.98654">
        <ele>62.142334</ele>
        <time>2009-03-01T15:12:47Z</time>
      </trkpt>
      <trkpt lat="48.03031" lon="-2.98691">
        <ele>62.142334</ele>
        <time>2009-03-01T15:12:57Z</time>
      </trkpt>
      <trkpt lat="48.03028" lon="-2.98724">
        <ele>62.622924</ele>
        <time>2009-03-01T15:13:06Z</time>
      </trkpt>
      <trkpt lat="48.03028" lon="-2.98749">
        <ele>63.103637</ele>
        <time>2009-03-01T15:13:13Z</time>
      </trkpt>
      <trkpt lat="48.03025" lon="-2.98767">
        <ele>64.065063</ele>
        <time>2009-03-01T15:13:18Z</time>
      </trkpt>
      <trkpt lat="48.03017" lon="-2.98789">
        <ele>65.026367</ele>
        <time>2009-03-01T15:13:24Z</time>
      </trkpt>
      <trkpt lat="48.03015" lon="-2.98812">
        <ele>63.58435</ele>
        <time>2009-03-01T15:13:30Z</time>
      </trkpt>
      <trkpt lat="48.03014" lon="-2.9882">
        <ele>63.58435</ele>
        <time>2009-03-01T15:13:33Z</time>
      </trkpt>
      <trkpt lat="48.0302" lon="-2.98832">
        <ele>62.622924</ele>
        <time>2009-03-01T15:13:37Z</time>
      </trkpt>
      <trkpt lat="48.03026" lon="-2.98841">
        <ele>62.142334</ele>
        <time>2009-03-01T15:13:40Z</time>
      </trkpt>
      <trkpt lat="48.03025" lon="-2.98855">
        <ele>61.661743</ele>
        <time>2009-03-01T15:13:44Z</time>
      </trkpt>
      <trkpt lat="48.03025" lon="-2.98865">
        <ele>61.661743</ele>
        <time>2009-03-01T15:13:46Z</time>
      </trkpt>
      <trkpt lat="48.03018" lon="-2.98877">
        <ele>62.142334</ele>
        <time>2009-03-01T15:13:51Z</time>
      </trkpt>
      <trkpt lat="48.03017" lon="-2.98879">
        <ele>62.622924</ele>
        <time>2009-03-01T15:13:51Z</time>
      </trkpt>
      <trkpt lat="48.03009" lon="-2.98882">
        <ele>65.026367</ele>
        <time>2009-03-01T15:13:54Z</time>
      </trkpt>
      <trkpt lat="48.03001" lon="-2.98887">
        <ele>66.948974</ele>
        <time>2009-03-01T15:13:58Z</time>
      </trkpt>
      <trkpt lat="48.02996" lon="-2.98895">
        <ele>67.429687</ele>
        <time>2009-03-01T15:14:01Z</time>
      </trkpt>
      <trkpt lat="48.02987" lon="-2.98923">
        <ele>66.948974</ele>
        <time>2009-03-01T15:14:09Z</time>
      </trkpt>
      <trkpt lat="48.02982" lon="-2.98938">
        <ele>65.50708</ele>
        <time>2009-03-01T15:14:14Z</time>
      </trkpt>
      <trkpt lat="48.02976" lon="-2.98959">
        <ele>64.545654</ele>
        <time>2009-03-01T15:14:20Z</time>
      </trkpt>
      <trkpt lat="48.02966" lon="-2.98974">
        <ele>65.50708</ele>
        <time>2009-03-01T15:14:25Z</time>
      </trkpt>
      <trkpt lat="48.0296" lon="-2.98991">
        <ele>65.98767</ele>
        <time>2009-03-01T15:14:31Z</time>
      </trkpt>
      <trkpt lat="48.02962" lon="-2.99003">
        <ele>65.50708</ele>
        <time>2009-03-01T15:14:34Z</time>
      </trkpt>
      <trkpt lat="48.0296" lon="-2.99045">
        <ele>64.545654</ele>
        <time>2009-03-01T15:14:45Z</time>
      </trkpt>
      <trkpt lat="48.02958" lon="-2.9905">
        <ele>64.545654</ele>
        <time>2009-03-01T15:14:47Z</time>
      </trkpt>
      <trkpt lat="48.02951" lon="-2.9907">
        <ele>65.50708</ele>
        <time>2009-03-01T15:14:53Z</time>
      </trkpt>
      <trkpt lat="48.02946" lon="-2.99093">
        <ele>65.50708</ele>
        <time>2009-03-01T15:14:59Z</time>
      </trkpt>
      <trkpt lat="48.02942" lon="-2.9912">
        <ele>65.98767</ele>
        <time>2009-03-01T15:15:07Z</time>
      </trkpt>
      <trkpt lat="48.02941" lon="-2.9914">
        <ele>66.468261</ele>
        <time>2009-03-01T15:15:12Z</time>
      </trkpt>
      <trkpt lat="48.0294" lon="-2.99165">
        <ele>67.910278</ele>
        <time>2009-03-01T15:15:19Z</time>
      </trkpt>
      <trkpt lat="48.02937" lon="-2.9919">
        <ele>70.313476</ele>
        <time>2009-03-01T15:15:26Z</time>
      </trkpt>
      <trkpt lat="48.02935" lon="-2.99209">
        <ele>70.313476</ele>
        <time>2009-03-01T15:15:31Z</time>
      </trkpt>
      <trkpt lat="48.02929" lon="-2.9922">
        <ele>72.236206</ele>
        <time>2009-03-01T15:15:35Z</time>
      </trkpt>
      <trkpt lat="48.02921" lon="-2.99233">
        <ele>72.716918</ele>
        <time>2009-03-01T15:15:39Z</time>
      </trkpt>
      <trkpt lat="48.02917" lon="-2.99242">
        <ele>72.236206</ele>
        <time>2009-03-01T15:15:42Z</time>
      </trkpt>
      <trkpt lat="48.02909" lon="-2.99269">
        <ele>68.871582</ele>
        <time>2009-03-01T15:15:50Z</time>
      </trkpt>
      <trkpt lat="48.02897" lon="-2.99275">
        <ele>69.352294</ele>
        <time>2009-03-01T15:15:55Z</time>
      </trkpt>
      <trkpt lat="48.02893" lon="-2.99272">
        <ele>70.313476</ele>
        <time>2009-03-01T15:15:57Z</time>
      </trkpt>
      <trkpt lat="48.02878" lon="-2.99263">
        <ele>71.755493</ele>
        <time>2009-03-01T15:16:04Z</time>
      </trkpt>
      <trkpt lat="48.02864" lon="-2.99253">
        <ele>74.158813</ele>
        <time>2009-03-01T15:16:10Z</time>
      </trkpt>
      <trkpt lat="48.02841" lon="-2.99238">
        <ele>76.08142</ele>
        <time>2009-03-01T15:16:20Z</time>
      </trkpt>
      <trkpt lat="48.02832" lon="-2.99231">
        <ele>78.004028</ele>
        <time>2009-03-01T15:16:24Z</time>
      </trkpt>
      <trkpt lat="48.02814" lon="-2.99219">
        <ele>79.446044</ele>
        <time>2009-03-01T15:16:32Z</time>
      </trkpt>
      <trkpt lat="48.02808" lon="-2.99215">
        <ele>80.888183</ele>
        <time>2009-03-01T15:16:34Z</time>
      </trkpt>
      <trkpt lat="48.02788" lon="-2.992">
        <ele>84.252685</ele>
        <time>2009-03-01T15:16:43Z</time>
      </trkpt>
      <trkpt lat="48.0277" lon="-2.99184">
        <ele>86.656005</ele>
        <time>2009-03-01T15:16:52Z</time>
      </trkpt>
      <trkpt lat="48.02759" lon="-2.9917">
        <ele>88.098022</ele>
        <time>2009-03-01T15:16:57Z</time>
      </trkpt>
      <trkpt lat="48.02745" lon="-2.99153">
        <ele>90.981933</ele>
        <time>2009-03-01T15:17:05Z</time>
      </trkpt>
      <trkpt lat="48.02743" lon="-2.99152">
        <ele>91.462524</ele>
        <time>2009-03-01T15:17:05Z</time>
      </trkpt>
      <trkpt lat="48.02725" lon="-2.99132">
        <ele>93.865844</ele>
        <time>2009-03-01T15:17:14Z</time>
      </trkpt>
      <trkpt lat="48.02707" lon="-2.99111">
        <ele>96.749877</ele>
        <time>2009-03-01T15:17:24Z</time>
      </trkpt>
      <trkpt lat="48.02689" lon="-2.99093">
        <ele>97.711181</ele>
        <time>2009-03-01T15:17:32Z</time>
      </trkpt>
      <trkpt lat="48.02669" lon="-2.99072">
        <ele>98.191894</ele>
        <time>2009-03-01T15:17:42Z</time>
      </trkpt>
      <trkpt lat="48.02641" lon="-2.99041">
        <ele>98.672485</ele>
        <time>2009-03-01T15:17:56Z</time>
      </trkpt>
      <trkpt lat="48.02611" lon="-2.99007">
        <ele>99.633789</ele>
        <time>2009-03-01T15:18:11Z</time>
      </trkpt>
      <trkpt lat="48.02579" lon="-2.98971">
        <ele>100.59509</ele>
        <time>2009-03-01T15:18:27Z</time>
      </trkpt>
      <trkpt lat="48.02554" lon="-2.98945">
        <ele>98.672485</ele>
        <time>2009-03-01T15:18:39Z</time>
      </trkpt>
      <trkpt lat="48.02521" lon="-2.98932">
        <ele>96.749877</ele>
        <time>2009-03-01T15:18:53Z</time>
      </trkpt>
      <trkpt lat="48.02479" lon="-2.98921">
        <ele>95.307739</ele>
        <time>2009-03-01T15:19:10Z</time>
      </trkpt>
      <trkpt lat="48.02471" lon="-2.98916">
        <ele>95.307739</ele>
        <time>2009-03-01T15:19:14Z</time>
      </trkpt>
      <trkpt lat="48.02463" lon="-2.9891">
        <ele>94.827148</ele>
        <time>2009-03-01T15:19:17Z</time>
      </trkpt>
      <trkpt lat="48.0245" lon="-2.98889">
        <ele>94.827148</ele>
        <time>2009-03-01T15:19:25Z</time>
      </trkpt>
      <trkpt lat="48.02424" lon="-2.98829">
        <ele>94.346557</ele>
        <time>2009-03-01T15:19:44Z</time>
      </trkpt>
      <trkpt lat="48.02402" lon="-2.98811">
        <ele>92.42395</ele>
        <time>2009-03-01T15:19:54Z</time>
      </trkpt>
      <trkpt lat="48.02387" lon="-2.98804">
        <ele>91.462524</ele>
        <time>2009-03-01T15:20:00Z</time>
      </trkpt>
      <trkpt lat="48.02358" lon="-2.98784">
        <ele>89.059326</ele>
        <time>2009-03-01T15:20:13Z</time>
      </trkpt>
      <trkpt lat="48.02351" lon="-2.98777">
        <ele>89.539917</ele>
        <time>2009-03-01T15:20:16Z</time>
      </trkpt>
      <trkpt lat="48.02325" lon="-2.98768">
        <ele>88.578735</ele>
        <time>2009-03-01T15:20:27Z</time>
      </trkpt>
      <trkpt lat="48.0231" lon="-2.98781">
        <ele>89.059326</ele>
        <time>2009-03-01T15:20:34Z</time>
      </trkpt>
      <trkpt lat="48.02299" lon="-2.98794">
        <ele>90.501342</ele>
        <time>2009-03-01T15:20:40Z</time>
      </trkpt>
      <trkpt lat="48.02278" lon="-2.98796">
        <ele>91.462524</ele>
        <time>2009-03-01T15:20:48Z</time>
      </trkpt>
      <trkpt lat="48.02273" lon="-2.98792">
        <ele>90.981933</ele>
        <time>2009-03-01T15:20:50Z</time>
      </trkpt>
      <trkpt lat="48.02219" lon="-2.98751">
        <ele>90.501342</ele>
        <time>2009-03-01T15:21:14Z</time>
      </trkpt>
      <trkpt lat="48.02176" lon="-2.98719">
        <ele>90.020629</ele>
        <time>2009-03-01T15:21:34Z</time>
      </trkpt>
      <trkpt lat="48.02122" lon="-2.9867">
        <ele>87.617187</ele>
        <time>2009-03-01T15:21:59Z</time>
      </trkpt>
      <trkpt lat="48.02084" lon="-2.98626">
        <ele>86.175293</ele>
        <time>2009-03-01T15:22:18Z</time>
      </trkpt>
      <trkpt lat="48.02056" lon="-2.98592">
        <ele>82.810791</ele>
        <time>2009-03-01T15:22:33Z</time>
      </trkpt>
      <trkpt lat="48.02036" lon="-2.98568">
        <ele>79.446044</ele>
        <time>2009-03-01T15:22:43Z</time>
      </trkpt>
      <trkpt lat="48.02014" lon="-2.98541">
        <ele>75.120239</ele>
        <time>2009-03-01T15:22:54Z</time>
      </trkpt>
      <trkpt lat="48.02" lon="-2.98523">
        <ele>71.755493</ele>
        <time>2009-03-01T15:23:02Z</time>
      </trkpt>
      <trkpt lat="48.01988" lon="-2.98508">
        <ele>68.871582</ele>
        <time>2009-03-01T15:23:08Z</time>
      </trkpt>
      <trkpt lat="48.01981" lon="-2.98491">
        <ele>67.910278</ele>
        <time>2009-03-01T15:23:13Z</time>
      </trkpt>
      <trkpt lat="48.01982" lon="-2.98473">
        <ele>67.910278</ele>
        <time>2009-03-01T15:23:18Z</time>
      </trkpt>
      <trkpt lat="48.01995" lon="-2.984">
        <ele>68.390869</ele>
        <time>2009-03-01T15:23:38Z</time>
      </trkpt>
      <trkpt lat="48.02013" lon="-2.98341">
        <ele>68.390869</ele>
        <time>2009-03-01T15:23:56Z</time>
      </trkpt>
      <trkpt lat="48.02039" lon="-2.98278">
        <ele>67.429687</ele>
        <time>2009-03-01T15:24:16Z</time>
      </trkpt>
      <trkpt lat="48.02058" lon="-2.98231">
        <ele>67.429687</ele>
        <time>2009-03-01T15:24:30Z</time>
      </trkpt>
      <trkpt lat="48.02063" lon="-2.98215">
        <ele>67.429687</ele>
        <time>2009-03-01T15:24:35Z</time>
      </trkpt>
      <trkpt lat="48.02055" lon="-2.98175">
        <ele>67.429687</ele>
        <time>2009-03-01T15:24:46Z</time>
      </trkpt>
      <trkpt lat="48.02041" lon="-2.98121">
        <ele>65.50708</ele>
        <time>2009-03-01T15:25:02Z</time>
      </trkpt>
      <trkpt lat="48.02037" lon="-2.98101">
        <ele>64.065063</ele>
        <time>2009-03-01T15:25:07Z</time>
      </trkpt>
      <trkpt lat="48.02038" lon="-2.98058">
        <ele>62.622924</ele>
        <time>2009-03-01T15:25:19Z</time>
      </trkpt>
      <trkpt lat="48.02042" lon="-2.98048">
        <ele>62.142334</ele>
        <time>2009-03-01T15:25:22Z</time>
      </trkpt>
      <trkpt lat="48.02046" lon="-2.98013">
        <ele>61.18103</ele>
        <time>2009-03-01T15:25:31Z</time>
      </trkpt>
      <trkpt lat="48.02025" lon="-2.97984">
        <ele>60.700317</ele>
        <time>2009-03-01T15:25:43Z</time>
      </trkpt>
      <trkpt lat="48.02021" lon="-2.97978">
        <ele>60.219726</ele>
        <time>2009-03-01T15:25:45Z</time>
      </trkpt>
      <trkpt lat="48.02001" lon="-2.97971">
        <ele>59.739135</ele>
        <time>2009-03-01T15:25:53Z</time>
      </trkpt>
      <trkpt lat="48.01995" lon="-2.97976">
        <ele>60.219726</ele>
        <time>2009-03-01T15:25:56Z</time>
      </trkpt>
      <trkpt lat="48.01958" lon="-2.98022">
        <ele>59.258422</ele>
        <time>2009-03-01T15:26:15Z</time>
      </trkpt>
      <trkpt lat="48.01953" lon="-2.98028">
        <ele>58.77771</ele>
        <time>2009-03-01T15:26:18Z</time>
      </trkpt>
      <trkpt lat="48.01924" lon="-2.98051">
        <ele>57.816528</ele>
        <time>2009-03-01T15:26:31Z</time>
      </trkpt>
      <trkpt lat="48.01904" lon="-2.98079">
        <ele>54.932373</ele>
        <time>2009-03-01T15:26:42Z</time>
      </trkpt>
      <trkpt lat="48.01896" lon="-2.9811">
        <ele>53.009765</ele>
        <time>2009-03-01T15:26:51Z</time>
      </trkpt>
      <trkpt lat="48.01893" lon="-2.9812">
        <ele>52.529174</ele>
        <time>2009-03-01T15:26:54Z</time>
      </trkpt>
      <trkpt lat="48.01883" lon="-2.98144">
        <ele>50.606567</ele>
        <time>2009-03-01T15:27:01Z</time>
      </trkpt>
      <trkpt lat="48.01871" lon="-2.98149">
        <ele>50.125976</ele>
        <time>2009-03-01T15:27:06Z</time>
      </trkpt>
      <trkpt lat="48.01869" lon="-2.9815">
        <ele>49.645263</ele>
        <time>2009-03-01T15:27:07Z</time>
      </trkpt>
      <trkpt lat="48.0186" lon="-2.98155">
        <ele>50.606567</ele>
        <time>2009-03-01T15:27:11Z</time>
      </trkpt>
      <trkpt lat="48.0186" lon="-2.9818">
        <ele>50.606567</ele>
        <time>2009-03-01T15:27:18Z</time>
      </trkpt>
      <trkpt lat="48.01862" lon="-2.9821">
        <ele>50.606567</ele>
        <time>2009-03-01T15:27:26Z</time>
      </trkpt>
      <trkpt lat="48.01861" lon="-2.98226">
        <ele>50.606567</ele>
        <time>2009-03-01T15:27:30Z</time>
      </trkpt>
      <trkpt lat="48.01864" lon="-2.98328">
        <ele>50.606567</ele>
        <time>2009-03-01T15:27:57Z</time>
      </trkpt>
      <trkpt lat="48.01866" lon="-2.98427">
        <ele>50.606567</ele>
        <time>2009-03-01T15:28:24Z</time>
      </trkpt>
      <trkpt lat="48.01868" lon="-2.98541">
        <ele>51.087158</ele>
        <time>2009-03-01T15:28:54Z</time>
      </trkpt>
      <trkpt lat="48.01869" lon="-2.98639">
        <ele>51.087158</ele>
        <time>2009-03-01T15:29:21Z</time>
      </trkpt>
      <trkpt lat="48.0187" lon="-2.9873">
        <ele>51.087158</ele>
        <time>2009-03-01T15:29:45Z</time>
      </trkpt>
      <trkpt lat="48.01871" lon="-2.98762">
        <ele>51.087158</ele>
        <time>2009-03-01T15:29:54Z</time>
      </trkpt>
      <trkpt lat="48.01872" lon="-2.98786">
        <ele>51.567871</ele>
        <time>2009-03-01T15:30:00Z</time>
      </trkpt>
      <trkpt lat="48.01873" lon="-2.98833">
        <ele>51.087158</ele>
        <time>2009-03-01T15:30:13Z</time>
      </trkpt>
      <trkpt lat="48.01873" lon="-2.98902">
        <ele>51.087158</ele>
        <time>2009-03-01T15:30:31Z</time>
      </trkpt>
      <trkpt lat="48.01874" lon="-2.98968">
        <ele>51.087158</ele>
        <time>2009-03-01T15:30:49Z</time>
      </trkpt>
      <trkpt lat="48.01876" lon="-2.99061">
        <ele>51.087158</ele>
        <time>2009-03-01T15:31:14Z</time>
      </trkpt>
      <trkpt lat="48.01877" lon="-2.99141">
        <ele>51.567871</ele>
        <time>2009-03-01T15:31:35Z</time>
      </trkpt>
      <trkpt lat="48.01878" lon="-2.99226">
        <ele>51.567871</ele>
        <time>2009-03-01T15:31:58Z</time>
      </trkpt>
      <trkpt lat="48.0188" lon="-2.99292">
        <ele>51.567871</ele>
        <time>2009-03-01T15:32:16Z</time>
      </trkpt>
      <trkpt lat="48.0188" lon="-2.99371">
        <ele>51.567871</ele>
        <time>2009-03-01T15:32:37Z</time>
      </trkpt>
      <trkpt lat="48.01881" lon="-2.99436">
        <ele>51.087158</ele>
        <time>2009-03-01T15:32:54Z</time>
      </trkpt>
      <trkpt lat="48.0188" lon="-2.99477">
        <ele>51.087158</ele>
        <time>2009-03-01T15:33:05Z</time>
      </trkpt>
      <trkpt lat="48.01868" lon="-2.99514">
        <ele>50.606567</ele>
        <time>2009-03-01T15:33:16Z</time>
      </trkpt>
      <trkpt lat="48.01859" lon="-2.99525">
        <ele>51.087158</ele>
        <time>2009-03-01T15:33:21Z</time>
      </trkpt>
      <trkpt lat="48.01819" lon="-2.99551">
        <ele>51.567871</ele>
        <time>2009-03-01T15:33:38Z</time>
      </trkpt>
      <trkpt lat="48.01795" lon="-2.99566">
        <ele>51.567871</ele>
        <time>2009-03-01T15:33:49Z</time>
      </trkpt>
      <trkpt lat="48.01779" lon="-2.99584">
        <ele>52.048584</ele>
        <time>2009-03-01T15:33:57Z</time>
      </trkpt>
      <trkpt lat="48.01756" lon="-2.99637">
        <ele>52.048584</ele>
        <time>2009-03-01T15:34:14Z</time>
      </trkpt>
      <trkpt lat="48.0174" lon="-2.99694">
        <ele>51.087158</ele>
        <time>2009-03-01T15:34:30Z</time>
      </trkpt>
      <trkpt lat="48.0174" lon="-2.99744">
        <ele>50.606567</ele>
        <time>2009-03-01T15:34:43Z</time>
      </trkpt>
      <trkpt lat="48.01742" lon="-2.99824">
        <ele>50.125976</ele>
        <time>2009-03-01T15:35:05Z</time>
      </trkpt>
      <trkpt lat="48.01744" lon="-2.99902">
        <ele>50.606567</ele>
        <time>2009-03-01T15:35:26Z</time>
      </trkpt>
      <trkpt lat="48.01746" lon="-2.9994">
        <ele>51.087158</ele>
        <time>2009-03-01T15:35:36Z</time>
      </trkpt>
      <trkpt lat="48.01752" lon="-2.99964">
        <ele>52.048584</ele>
        <time>2009-03-01T15:35:43Z</time>
      </trkpt>
      <trkpt lat="48.01756" lon="-2.99973">
        <ele>51.567871</ele>
        <time>2009-03-01T15:35:46Z</time>
      </trkpt>
      <trkpt lat="48.01781" lon="-3.00009">
        <ele>53.490478</ele>
        <time>2009-03-01T15:36:00Z</time>
      </trkpt>
      <trkpt lat="48.01799" lon="-3.00021">
        <ele>53.490478</ele>
        <time>2009-03-01T15:36:08Z</time>
      </trkpt>
      <trkpt lat="48.01821" lon="-3.00033">
        <ele>55.413085</ele>
        <time>2009-03-01T15:36:17Z</time>
      </trkpt>
      <trkpt lat="48.0185" lon="-3.00054">
        <ele>57.335815</ele>
        <time>2009-03-01T15:36:30Z</time>
      </trkpt>
      <trkpt lat="48.01871" lon="-3.00065">
        <ele>59.739135</ele>
        <time>2009-03-01T15:36:39Z</time>
      </trkpt>
      <trkpt lat="48.01897" lon="-3.00073">
        <ele>61.18103</ele>
        <time>2009-03-01T15:36:49Z</time>
      </trkpt>
      <trkpt lat="48.01923" lon="-3.00076">
        <ele>62.622924</ele>
        <time>2009-03-01T15:37:00Z</time>
      </trkpt>
      <trkpt lat="48.0195" lon="-3.00075">
        <ele>65.50708</ele>
        <time>2009-03-01T15:37:11Z</time>
      </trkpt>
      <trkpt lat="48.01975" lon="-3.00066">
        <ele>66.948974</ele>
        <time>2009-03-01T15:37:21Z</time>
      </trkpt>
      <trkpt lat="48.01994" lon="-3.00053">
        <ele>68.390869</ele>
        <time>2009-03-01T15:37:29Z</time>
      </trkpt>
      <trkpt lat="48.02013" lon="-3.0004">
        <ele>69.832885</ele>
        <time>2009-03-01T15:37:38Z</time>
      </trkpt>
      <trkpt lat="48.02041" lon="-3.0002">
        <ele>71.755493</ele>
        <time>2009-03-01T15:37:50Z</time>
      </trkpt>
      <trkpt lat="48.02064" lon="-3.00007">
        <ele>73.197631</ele>
        <time>2009-03-01T15:38:00Z</time>
      </trkpt>
      <trkpt lat="48.0208" lon="-2.99997">
        <ele>74.639526</ele>
        <time>2009-03-01T15:38:07Z</time>
      </trkpt>
      <trkpt lat="48.0211" lon="-2.99984">
        <ele>75.120239</ele>
        <time>2009-03-01T15:38:20Z</time>
      </trkpt>
      <trkpt lat="48.02137" lon="-2.99973">
        <ele>76.08142</ele>
        <time>2009-03-01T15:38:30Z</time>
      </trkpt>
      <trkpt lat="48.02143" lon="-2.99971">
        <ele>77.523437</ele>
        <time>2009-03-01T15:38:33Z</time>
      </trkpt>
      <trkpt lat="48.02161" lon="-2.99964">
        <ele>78.484741</ele>
        <time>2009-03-01T15:38:40Z</time>
      </trkpt>
      <trkpt lat="48.02193" lon="-2.99953">
        <ele>80.888183</ele>
        <time>2009-03-01T15:38:54Z</time>
      </trkpt>
      <trkpt lat="48.02216" lon="-2.9995">
        <ele>82.330078</ele>
        <time>2009-03-01T15:39:03Z</time>
      </trkpt>
      <trkpt lat="48.02229" lon="-2.99971">
        <ele>80.40747</ele>
        <time>2009-03-01T15:39:10Z</time>
      </trkpt>
      <trkpt lat="48.02232" lon="-2.99978">
        <ele>79.446044</ele>
        <time>2009-03-01T15:39:13Z</time>
      </trkpt>
      <trkpt lat="48.02233" lon="-3.00013">
        <ele>78.484741</ele>
        <time>2009-03-01T15:39:22Z</time>
      </trkpt>
      <trkpt lat="48.02231" lon="-3.00021">
        <ele>78.484741</ele>
        <time>2009-03-01T15:39:25Z</time>
      </trkpt>
      <trkpt lat="48.02222" lon="-3.00052">
        <ele>78.004028</ele>
        <time>2009-03-01T15:39:33Z</time>
      </trkpt>
      <trkpt lat="48.02212" lon="-3.00082">
        <ele>80.40747</ele>
        <time>2009-03-01T15:39:43Z</time>
      </trkpt>
      <trkpt lat="48.02199" lon="-3.00127">
        <ele>83.771972</ele>
        <time>2009-03-01T15:39:55Z</time>
      </trkpt>
      <trkpt lat="48.02196" lon="-3.00162">
        <ele>86.175293</ele>
        <time>2009-03-01T15:40:05Z</time>
      </trkpt>
      <trkpt lat="48.02195" lon="-3.00187">
        <ele>88.098022</ele>
        <time>2009-03-01T15:40:12Z</time>
      </trkpt>
      <trkpt lat="48.02195" lon="-3.00211">
        <ele>90.020629</ele>
        <time>2009-03-01T15:40:18Z</time>
      </trkpt>
      <trkpt lat="48.02194" lon="-3.00242">
        <ele>90.981933</ele>
        <time>2009-03-01T15:40:27Z</time>
      </trkpt>
      <trkpt lat="48.02198" lon="-3.00249">
        <ele>92.42395</ele>
        <time>2009-03-01T15:40:29Z</time>
      </trkpt>
      <trkpt lat="48.02209" lon="-3.00253">
        <ele>93.865844</ele>
        <time>2009-03-01T15:40:34Z</time>
      </trkpt>
      <trkpt lat="48.02216" lon="-3.00253">
        <ele>94.827148</ele>
        <time>2009-03-01T15:40:36Z</time>
      </trkpt>
      <trkpt lat="48.02223" lon="-3.00253">
        <ele>96.269287</ele>
        <time>2009-03-01T15:40:39Z</time>
      </trkpt>
      <trkpt lat="48.02233" lon="-3.00255">
        <ele>98.672485</ele>
        <time>2009-03-01T15:40:43Z</time>
      </trkpt>
      <trkpt lat="48.02241" lon="-3.00258">
        <ele>99.153076</ele>
        <time>2009-03-01T15:40:46Z</time>
      </trkpt>
      <trkpt lat="48.02253" lon="-3.00261">
        <ele>101.07568</ele>
        <time>2009-03-01T15:40:51Z</time>
      </trkpt>
      <trkpt lat="48.02264" lon="-3.00263">
        <ele>102.5177</ele>
        <time>2009-03-01T15:40:56Z</time>
      </trkpt>
      <trkpt lat="48.02273" lon="-3.00263">
        <ele>103.95971</ele>
        <time>2009-03-01T15:40:59Z</time>
      </trkpt>
      <trkpt lat="48.02279" lon="-3.00265">
        <ele>104.92102</ele>
        <time>2009-03-01T15:41:02Z</time>
      </trkpt>
      <trkpt lat="48.0228" lon="-3.00265">
        <ele>105.40173</ele>
        <time>2009-03-01T15:41:02Z</time>
      </trkpt>
      <trkpt lat="48.02281" lon="-3.00265">
        <ele>105.88244</ele>
        <time>2009-03-01T15:41:03Z</time>
      </trkpt>
      <trkpt lat="48.02282" lon="-3.00264">
        <ele>106.36303</ele>
        <time>2009-03-01T15:41:03Z</time>
      </trkpt>
      <trkpt lat="48.02286" lon="-3.00264">
        <ele>107.80505</ele>
        <time>2009-03-01T15:41:05Z</time>
      </trkpt>
      <trkpt lat="48.02289" lon="-3.00264">
        <ele>108.28564</ele>
        <time>2009-03-01T15:41:06Z</time>
      </trkpt>
      <trkpt lat="48.02291" lon="-3.00263">
        <ele>109.24694</ele>
        <time>2009-03-01T15:41:07Z</time>
      </trkpt>
      <trkpt lat="48.02295" lon="-3.00263">
        <ele>110.68884</ele>
        <time>2009-03-01T15:41:08Z</time>
      </trkpt>
      <trkpt lat="48.02298" lon="-3.00263">
        <ele>111.16955</ele>
        <time>2009-03-01T15:41:10Z</time>
      </trkpt>
      <trkpt lat="48.02299" lon="-3.00263">
        <ele>112.13098</ele>
        <time>2009-03-01T15:41:10Z</time>
      </trkpt>
      <trkpt lat="48.02301" lon="-3.00261">
        <ele>112.13098</ele>
        <time>2009-03-01T15:41:11Z</time>
      </trkpt>
      <trkpt lat="48.02308" lon="-3.0026">
        <ele>112.61157</ele>
        <time>2009-03-01T15:41:14Z</time>
      </trkpt>
      <trkpt lat="48.02312" lon="-3.00259">
        <ele>113.09228</ele>
        <time>2009-03-01T15:41:16Z</time>
      </trkpt>
      <trkpt lat="48.02314" lon="-3.00259">
        <ele>113.57299</ele>
        <time>2009-03-01T15:41:16Z</time>
      </trkpt>
      <trkpt lat="48.02318" lon="-3.00258">
        <ele>114.53417</ele>
        <time>2009-03-01T15:41:18Z</time>
      </trkpt>
      <trkpt lat="48.02332" lon="-3.00257">
        <ele>115.97619</ele>
        <time>2009-03-01T15:41:23Z</time>
      </trkpt>
      <trkpt lat="48.02334" lon="-3.00259">
        <ele>116.45678</ele>
        <time>2009-03-01T15:41:24Z</time>
      </trkpt>
      <trkpt lat="48.02342" lon="-3.00267">
        <ele>117.41821</ele>
        <time>2009-03-01T15:41:28Z</time>
      </trkpt>
      <trkpt lat="48.02344" lon="-3.00267">
        <ele>118.37939</ele>
        <time>2009-03-01T15:41:29Z</time>
      </trkpt>
      <trkpt lat="48.02348" lon="-3.00263">
        <ele>118.37939</ele>
        <time>2009-03-01T15:41:31Z</time>
      </trkpt>
      <trkpt lat="48.02355" lon="-3.00265">
        <ele>119.34082</ele>
        <time>2009-03-01T15:41:34Z</time>
      </trkpt>
      <trkpt lat="48.02361" lon="-3.00269">
        <ele>120.78283</ele>
        <time>2009-03-01T15:41:37Z</time>
      </trkpt>
      <trkpt lat="48.02374" lon="-3.00267">
        <ele>121.26354</ele>
        <time>2009-03-01T15:41:42Z</time>
      </trkpt>
      <trkpt lat="48.02384" lon="-3.00272">
        <ele>121.26354</ele>
        <time>2009-03-01T15:41:46Z</time>
      </trkpt>
      <trkpt lat="48.02397" lon="-3.00279">
        <ele>121.74414</ele>
        <time>2009-03-01T15:41:51Z</time>
      </trkpt>
      <trkpt lat="48.02411" lon="-3.00283">
        <ele>122.22473</ele>
        <time>2009-03-01T15:41:57Z</time>
      </trkpt>
      <trkpt lat="48.02427" lon="-3.00287">
        <ele>123.18615</ele>
        <time>2009-03-01T15:42:04Z</time>
      </trkpt>
      <trkpt lat="48.02443" lon="-3.00293">
        <ele>121.74414</ele>
        <time>2009-03-01T15:42:10Z</time>
      </trkpt>
      <trkpt lat="48.02464" lon="-3.00304">
        <ele>121.26354</ele>
        <time>2009-03-01T15:42:19Z</time>
      </trkpt>
      <trkpt lat="48.02473" lon="-3.00312">
        <ele>119.82141</ele>
        <time>2009-03-01T15:42:24Z</time>
      </trkpt>
      <trkpt lat="48.02498" lon="-3.00337">
        <ele>113.57299</ele>
        <time>2009-03-01T15:42:35Z</time>
      </trkpt>
      <trkpt lat="48.0251" lon="-3.00362">
        <ele>114.05358</ele>
        <time>2009-03-01T15:42:44Z</time>
      </trkpt>
      <trkpt lat="48.0251" lon="-3.00367">
        <ele>115.4956</ele>
        <time>2009-03-01T15:42:45Z</time>
      </trkpt>
      <trkpt lat="48.0251" lon="-3.00373">
        <ele>115.4956</ele>
        <time>2009-03-01T15:42:47Z</time>
      </trkpt>
      <trkpt lat="48.02513" lon="-3.00384">
        <ele>116.45678</ele>
        <time>2009-03-01T15:42:50Z</time>
      </trkpt>
      <trkpt lat="48.02515" lon="-3.00399">
        <ele>119.34082</ele>
        <time>2009-03-01T15:42:54Z</time>
      </trkpt>
      <trkpt lat="48.02521" lon="-3.00413">
        <ele>120.78283</ele>
        <time>2009-03-01T15:42:59Z</time>
      </trkpt>
      <trkpt lat="48.02527" lon="-3.00426">
        <ele>123.18615</ele>
        <time>2009-03-01T15:43:03Z</time>
      </trkpt>
      <trkpt lat="48.02529" lon="-3.0043">
        <ele>123.66674</ele>
        <time>2009-03-01T15:43:04Z</time>
      </trkpt>
      <trkpt lat="48.0253" lon="-3.00442">
        <ele>126.06994</ele>
        <time>2009-03-01T15:43:07Z</time>
      </trkpt>
      <trkpt lat="48.02532" lon="-3.00447">
        <ele>126.55065</ele>
        <time>2009-03-01T15:43:09Z</time>
      </trkpt>
      <trkpt lat="48.02537" lon="-3.00453">
        <ele>127.03137</ele>
        <time>2009-03-01T15:43:11Z</time>
      </trkpt>
      <trkpt lat="48.02542" lon="-3.0047">
        <ele>128.47338</ele>
        <time>2009-03-01T15:43:17Z</time>
      </trkpt>
      <trkpt lat="48.02547" lon="-3.00484">
        <ele>129.43469</ele>
        <time>2009-03-01T15:43:21Z</time>
      </trkpt>
      <trkpt lat="48.02556" lon="-3.00493">
        <ele>130.8767</ele>
        <time>2009-03-01T15:43:25Z</time>
      </trkpt>
      <trkpt lat="48.02573" lon="-3.00503">
        <ele>131.83789</ele>
        <time>2009-03-01T15:43:33Z</time>
      </trkpt>
      <trkpt lat="48.02575" lon="-3.00504">
        <ele>131.83789</ele>
        <time>2009-03-01T15:43:33Z</time>
      </trkpt>
      <trkpt lat="48.02585" lon="-3.00514">
        <ele>132.79931</ele>
        <time>2009-03-01T15:43:38Z</time>
      </trkpt>
      <trkpt lat="48.02588" lon="-3.00515">
        <ele>132.3186</ele>
        <time>2009-03-01T15:43:39Z</time>
      </trkpt>
      <trkpt lat="48.02604" lon="-3.00514">
        <ele>130.8767</ele>
        <time>2009-03-01T15:43:46Z</time>
      </trkpt>
      <trkpt lat="48.02608" lon="-3.00512">
        <ele>131.35729</ele>
        <time>2009-03-01T15:43:47Z</time>
      </trkpt>
      <trkpt lat="48.02618" lon="-3.00513">
        <ele>134.24121</ele>
        <time>2009-03-01T15:43:51Z</time>
      </trkpt>
      <trkpt lat="48.02623" lon="-3.00515">
        <ele>135.6831</ele>
        <time>2009-03-01T15:43:53Z</time>
      </trkpt>
      <trkpt lat="48.02628" lon="-3.00526">
        <ele>137.12524</ele>
        <time>2009-03-01T15:43:57Z</time>
      </trkpt>
      <trkpt lat="48.02629" lon="-3.0053">
        <ele>137.12524</ele>
        <time>2009-03-01T15:43:58Z</time>
      </trkpt>
      <trkpt lat="48.02631" lon="-3.00554">
        <ele>138.08654</ele>
        <time>2009-03-01T15:44:05Z</time>
      </trkpt>
      <trkpt lat="48.02634" lon="-3.00576">
        <ele>140.48986</ele>
        <time>2009-03-01T15:44:10Z</time>
      </trkpt>
      <trkpt lat="48.02635" lon="-3.00592">
        <ele>141.45104</ele>
        <time>2009-03-01T15:44:15Z</time>
      </trkpt>
      <trkpt lat="48.02637" lon="-3.00607">
        <ele>141.45104</ele>
        <time>2009-03-01T15:44:19Z</time>
      </trkpt>
      <trkpt lat="48.02632" lon="-3.0062">
        <ele>140.97045</ele>
        <time>2009-03-01T15:44:23Z</time>
      </trkpt>
      <trkpt lat="48.02624" lon="-3.0062">
        <ele>141.45104</ele>
        <time>2009-03-01T15:44:26Z</time>
      </trkpt>
      <trkpt lat="48.02615" lon="-3.00613">
        <ele>141.45104</ele>
        <time>2009-03-01T15:44:30Z</time>
      </trkpt>
      <trkpt lat="48.02608" lon="-3.00605">
        <ele>141.45104</ele>
        <time>2009-03-01T15:44:34Z</time>
      </trkpt>
      <trkpt lat="48.02596" lon="-3.00599">
        <ele>142.89306</ele>
        <time>2009-03-01T15:44:39Z</time>
      </trkpt>
      <trkpt lat="48.0259" lon="-3.00592">
        <ele>143.37365</ele>
        <time>2009-03-01T15:44:42Z</time>
      </trkpt>
      <trkpt lat="48.02579" lon="-3.00586">
        <ele>143.85437</ele>
        <time>2009-03-01T15:44:46Z</time>
      </trkpt>
      <trkpt lat="48.02576" lon="-3.00587">
        <ele>144.3352</ele>
        <time>2009-03-01T15:44:48Z</time>
      </trkpt>
      <trkpt lat="48.0257" lon="-3.00592">
        <ele>146.7384</ele>
        <time>2009-03-01T15:44:50Z</time>
      </trkpt>
      <trkpt lat="48.02563" lon="-3.00598">
        <ele>149.62231</ele>
        <time>2009-03-01T15:44:54Z</time>
      </trkpt>
      <trkpt lat="48.02559" lon="-3.00603">
        <ele>151.0642</ele>
        <time>2009-03-01T15:44:56Z</time>
      </trkpt>
      <trkpt lat="48.02557" lon="-3.00606">
        <ele>152.50634</ele>
        <time>2009-03-01T15:44:57Z</time>
      </trkpt>
      <trkpt lat="48.02548" lon="-3.00608">
        <ele>153.94836</ele>
        <time>2009-03-01T15:45:00Z</time>
      </trkpt>
      <trkpt lat="48.02538" lon="-3.00608">
        <ele>154.42895</ele>
        <time>2009-03-01T15:45:05Z</time>
      </trkpt>
      <trkpt lat="48.02534" lon="-3.0061">
        <ele>154.42895</ele>
        <time>2009-03-01T15:45:06Z</time>
      </trkpt>
      <trkpt lat="48.02533" lon="-3.00621">
        <ele>155.87097</ele>
        <time>2009-03-01T15:45:09Z</time>
      </trkpt>
      <trkpt lat="48.02536" lon="-3.00625">
        <ele>156.35156</ele>
        <time>2009-03-01T15:45:11Z</time>
      </trkpt>
      <trkpt lat="48.02546" lon="-3.00641">
        <ele>157.79357</ele>
        <time>2009-03-01T15:45:16Z</time>
      </trkpt>
      <trkpt lat="48.02551" lon="-3.00647">
        <ele>157.31286</ele>
        <time>2009-03-01T15:45:19Z</time>
      </trkpt>
      <trkpt lat="48.02545" lon="-3.0066">
        <ele>158.75476</ele>
        <time>2009-03-01T15:45:24Z</time>
      </trkpt>
      <trkpt lat="48.02538" lon="-3.00657">
        <ele>158.75476</ele>
        <time>2009-03-01T15:45:26Z</time>
      </trkpt>
      <trkpt lat="48.0253" lon="-3.00637">
        <ele>157.79357</ele>
        <time>2009-03-01T15:45:33Z</time>
      </trkpt>
      <trkpt lat="48.02527" lon="-3.00632">
        <ele>158.27416</ele>
        <time>2009-03-01T15:45:34Z</time>
      </trkpt>
      <trkpt lat="48.0251" lon="-3.00609">
        <ele>156.35156</ele>
        <time>2009-03-01T15:45:44Z</time>
      </trkpt>
      <trkpt lat="48.025" lon="-3.00608">
        <ele>156.83215</ele>
        <time>2009-03-01T15:45:48Z</time>
      </trkpt>
      <trkpt lat="48.025" lon="-3.0062">
        <ele>157.31286</ele>
        <time>2009-03-01T15:45:51Z</time>
      </trkpt>
      <trkpt lat="48.02504" lon="-3.00649">
        <ele>158.27416</ele>
        <time>2009-03-01T15:45:58Z</time>
      </trkpt>
      <trkpt lat="48.02507" lon="-3.00683">
        <ele>160.19689</ele>
        <time>2009-03-01T15:46:08Z</time>
      </trkpt>
      <trkpt lat="48.02514" lon="-3.00702">
        <ele>161.1582</ele>
        <time>2009-03-01T15:46:13Z</time>
      </trkpt>
      <trkpt lat="48.02524" lon="-3.00729">
        <ele>162.1195</ele>
        <time>2009-03-01T15:46:22Z</time>
      </trkpt>
      <trkpt lat="48.02534" lon="-3.0073">
        <ele>162.60009</ele>
        <time>2009-03-01T15:46:26Z</time>
      </trkpt>
      <trkpt lat="48.02546" lon="-3.00715">
        <ele>161.63891</ele>
        <time>2009-03-01T15:46:32Z</time>
      </trkpt>
      <trkpt lat="48.02549" lon="-3.00712">
        <ele>161.63891</ele>
        <time>2009-03-01T15:46:33Z</time>
      </trkpt>
      <trkpt lat="48.02556" lon="-3.00705">
        <ele>161.1582</ele>
        <time>2009-03-01T15:46:37Z</time>
      </trkpt>
      <trkpt lat="48.02565" lon="-3.00699">
        <ele>160.19689</ele>
        <time>2009-03-01T15:46:41Z</time>
      </trkpt>
      <trkpt lat="48.02575" lon="-3.00696">
        <ele>159.23547</ele>
        <time>2009-03-01T15:46:45Z</time>
      </trkpt>
      <trkpt lat="48.02616" lon="-3.00699">
        <ele>154.90954</ele>
        <time>2009-03-01T15:47:01Z</time>
      </trkpt>
      <trkpt lat="48.02631" lon="-3.00704">
        <ele>151.54492</ele>
        <time>2009-03-01T15:47:07Z</time>
      </trkpt>
      <trkpt lat="48.02644" lon="-3.00708">
        <ele>150.10302</ele>
        <time>2009-03-01T15:47:13Z</time>
      </trkpt>
      <trkpt lat="48.02657" lon="-3.00723">
        <ele>151.0642</ele>
        <time>2009-03-01T15:47:19Z</time>
      </trkpt>
      <trkpt lat="48.0266" lon="-3.00742">
        <ele>152.98693</ele>
        <time>2009-03-01T15:47:24Z</time>
      </trkpt>
      <trkpt lat="48.02665" lon="-3.00748">
        <ele>153.46765</ele>
        <time>2009-03-01T15:47:27Z</time>
      </trkpt>
      <trkpt lat="48.02668" lon="-3.00764">
        <ele>153.94836</ele>
        <time>2009-03-01T15:47:31Z</time>
      </trkpt>
      <trkpt lat="48.02676" lon="-3.00773">
        <ele>155.87097</ele>
        <time>2009-03-01T15:47:35Z</time>
      </trkpt>
      <trkpt lat="48.02684" lon="-3.00786">
        <ele>157.31286</ele>
        <time>2009-03-01T15:47:40Z</time>
      </trkpt>
      <trkpt lat="48.02688" lon="-3.00797">
        <ele>157.79357</ele>
        <time>2009-03-01T15:47:43Z</time>
      </trkpt>
      <trkpt lat="48.02686" lon="-3.00804">
        <ele>157.79357</ele>
        <time>2009-03-01T15:47:46Z</time>
      </trkpt>
      <trkpt lat="48.02694" lon="-3.00818">
        <ele>158.27416</ele>
        <time>2009-03-01T15:47:50Z</time>
      </trkpt>
      <trkpt lat="48.02696" lon="-3.0082">
        <ele>158.27416</ele>
        <time>2009-03-01T15:47:51Z</time>
      </trkpt>
      <trkpt lat="48.02703" lon="-3.0081">
        <ele>158.75476</ele>
        <time>2009-03-01T15:47:55Z</time>
      </trkpt>
      <trkpt lat="48.02712" lon="-3.00786">
        <ele>158.75476</ele>
        <time>2009-03-01T15:48:03Z</time>
      </trkpt>
      <trkpt lat="48.02725" lon="-3.00774">
        <ele>159.23547</ele>
        <time>2009-03-01T15:48:08Z</time>
      </trkpt>
      <trkpt lat="48.02736" lon="-3.00778">
        <ele>159.71618</ele>
        <time>2009-03-01T15:48:13Z</time>
      </trkpt>
      <trkpt lat="48.02748" lon="-3.00773">
        <ele>160.67749</ele>
        <time>2009-03-01T15:48:18Z</time>
      </trkpt>
      <trkpt lat="48.02762" lon="-3.00761">
        <ele>160.19689</ele>
        <time>2009-03-01T15:48:25Z</time>
      </trkpt>
      <trkpt lat="48.02769" lon="-3.00754">
        <ele>160.67749</ele>
        <time>2009-03-01T15:48:28Z</time>
      </trkpt>
      <trkpt lat="48.02782" lon="-3.00751">
        <ele>160.19689</ele>
        <time>2009-03-01T15:48:33Z</time>
      </trkpt>
      <trkpt lat="48.02793" lon="-3.00743">
        <ele>160.67749</ele>
        <time>2009-03-01T15:48:38Z</time>
      </trkpt>
      <trkpt lat="48.02797" lon="-3.0073">
        <ele>159.71618</ele>
        <time>2009-03-01T15:48:42Z</time>
      </trkpt>
      <trkpt lat="48.02801" lon="-3.00726">
        <ele>159.71618</ele>
        <time>2009-03-01T15:48:44Z</time>
      </trkpt>
      <trkpt lat="48.02806" lon="-3.00725">
        <ele>160.19689</ele>
        <time>2009-03-01T15:48:46Z</time>
      </trkpt>
      <trkpt lat="48.02823" lon="-3.00708">
        <ele>158.75476</ele>
        <time>2009-03-01T15:48:54Z</time>
      </trkpt>
      <trkpt lat="48.02835" lon="-3.00705">
        <ele>157.79357</ele>
        <time>2009-03-01T15:48:59Z</time>
      </trkpt>
      <trkpt lat="48.02843" lon="-3.007">
        <ele>157.79357</ele>
        <time>2009-03-01T15:49:02Z</time>
      </trkpt>
      <trkpt lat="48.0285" lon="-3.00697">
        <ele>157.31286</ele>
        <time>2009-03-01T15:49:05Z</time>
      </trkpt>
      <trkpt lat="48.02869" lon="-3.007">
        <ele>156.83215</ele>
        <time>2009-03-01T15:49:13Z</time>
      </trkpt>
      <trkpt lat="48.02881" lon="-3.00704">
        <ele>156.35156</ele>
        <time>2009-03-01T15:49:18Z</time>
      </trkpt>
      <trkpt lat="48.02895" lon="-3.0072">
        <ele>157.31286</ele>
        <time>2009-03-01T15:49:25Z</time>
      </trkpt>
      <trkpt lat="48.02907" lon="-3.00737">
        <ele>157.79357</ele>
        <time>2009-03-01T15:49:32Z</time>
      </trkpt>
      <trkpt lat="48.02911" lon="-3.00744">
        <ele>157.79357</ele>
        <time>2009-03-01T15:49:34Z</time>
      </trkpt>
      <trkpt lat="48.02922" lon="-3.00749">
        <ele>157.79357</ele>
        <time>2009-03-01T15:49:39Z</time>
      </trkpt>
      <trkpt lat="48.0293" lon="-3.00744">
        <ele>156.35156</ele>
        <time>2009-03-01T15:49:42Z</time>
      </trkpt>
      <trkpt lat="48.02926" lon="-3.00733">
        <ele>156.83215</ele>
        <time>2009-03-01T15:49:45Z</time>
      </trkpt>
      <trkpt lat="48.02916" lon="-3.0072">
        <ele>156.35156</ele>
        <time>2009-03-01T15:49:51Z</time>
      </trkpt>
      <trkpt lat="48.02912" lon="-3.00712">
        <ele>156.35156</ele>
        <time>2009-03-01T15:49:53Z</time>
      </trkpt>
      <trkpt lat="48.02909" lon="-3.00703">
        <ele>155.87097</ele>
        <time>2009-03-01T15:49:56Z</time>
      </trkpt>
      <trkpt lat="48.02892" lon="-3.00677">
        <ele>154.42895</ele>
        <time>2009-03-01T15:50:06Z</time>
      </trkpt>
      <trkpt lat="48.0288" lon="-3.00656">
        <ele>152.50634</ele>
        <time>2009-03-01T15:50:13Z</time>
      </trkpt>
      <trkpt lat="48.02882" lon="-3.00651">
        <ele>151.54492</ele>
        <time>2009-03-01T15:50:15Z</time>
      </trkpt>
      <trkpt lat="48.029" lon="-3.00657">
        <ele>151.0642</ele>
        <time>2009-03-01T15:50:22Z</time>
      </trkpt>
      <trkpt lat="48.0291" lon="-3.00661">
        <ele>150.58361</ele>
        <time>2009-03-01T15:50:26Z</time>
      </trkpt>
      <trkpt lat="48.02929" lon="-3.00676">
        <ele>148.66101</ele>
        <time>2009-03-01T15:50:35Z</time>
      </trkpt>
      <trkpt lat="48.02934" lon="-3.00671">
        <ele>147.21899</ele>
        <time>2009-03-01T15:50:37Z</time>
      </trkpt>
      <trkpt lat="48.02933" lon="-3.00666">
        <ele>147.21899</ele>
        <time>2009-03-01T15:50:38Z</time>
      </trkpt>
      <trkpt lat="48.02931" lon="-3.00661">
        <ele>147.21899</ele>
        <time>2009-03-01T15:50:40Z</time>
      </trkpt>
      <trkpt lat="48.02924" lon="-3.00639">
        <ele>145.29638</ele>
        <time>2009-03-01T15:50:46Z</time>
      </trkpt>
      <trkpt lat="48.02914" lon="-3.00613">
        <ele>143.85437</ele>
        <time>2009-03-01T15:50:55Z</time>
      </trkpt>
      <trkpt lat="48.02902" lon="-3.00587">
        <ele>141.45104</ele>
        <time>2009-03-01T15:51:03Z</time>
      </trkpt>
      <trkpt lat="48.02889" lon="-3.00576">
        <ele>140.97045</ele>
        <time>2009-03-01T15:51:09Z</time>
      </trkpt>
      <trkpt lat="48.02881" lon="-3.00564">
        <ele>139.52844</ele>
        <time>2009-03-01T15:51:13Z</time>
      </trkpt>
      <trkpt lat="48.02874" lon="-3.00547">
        <ele>137.12524</ele>
        <time>2009-03-01T15:51:19Z</time>
      </trkpt>
      <trkpt lat="48.02862" lon="-3.00529">
        <ele>133.76049</ele>
        <time>2009-03-01T15:51:26Z</time>
      </trkpt>
      <trkpt lat="48.02854" lon="-3.00517">
        <ele>133.2799</ele>
        <time>2009-03-01T15:51:30Z</time>
      </trkpt>
      <trkpt lat="48.02841" lon="-3.00484">
        <ele>129.91528</ele>
        <time>2009-03-01T15:51:40Z</time>
      </trkpt>
      <trkpt lat="48.02841" lon="-3.00454">
        <ele>127.03137</ele>
        <time>2009-03-01T15:51:48Z</time>
      </trkpt>
      <trkpt lat="48.02838" lon="-3.00441">
        <ele>123.66674</ele>
        <time>2009-03-01T15:51:52Z</time>
      </trkpt>
      <trkpt lat="48.02835" lon="-3.00434">
        <ele>123.66674</ele>
        <time>2009-03-01T15:51:54Z</time>
      </trkpt>
      <trkpt lat="48.02818" lon="-3.00419">
        <ele>123.18615</ele>
        <time>2009-03-01T15:52:02Z</time>
      </trkpt>
      <trkpt lat="48.02806" lon="-3.00412">
        <ele>123.18615</ele>
        <time>2009-03-01T15:52:07Z</time>
      </trkpt>
      <trkpt lat="48.02755" lon="-3.00395">
        <ele>121.74414</ele>
        <time>2009-03-01T15:52:28Z</time>
      </trkpt>
      <trkpt lat="48.02731" lon="-3.00385">
        <ele>120.78283</ele>
        <time>2009-03-01T15:52:38Z</time>
      </trkpt>
      <trkpt lat="48.0272" lon="-3.00362">
        <ele>120.78283</ele>
        <time>2009-03-01T15:52:46Z</time>
      </trkpt>
      <trkpt lat="48.02721" lon="-3.00354">
        <ele>120.78283</ele>
        <time>2009-03-01T15:52:48Z</time>
      </trkpt>
      <trkpt lat="48.02728" lon="-3.0031">
        <ele>117.8988</ele>
        <time>2009-03-01T15:53:00Z</time>
      </trkpt>
      <trkpt lat="48.02729" lon="-3.00283">
        <ele>116.9375</ele>
        <time>2009-03-01T15:53:07Z</time>
      </trkpt>
      <trkpt lat="48.02726" lon="-3.00284">
        <ele>116.9375</ele>
        <time>2009-03-01T15:53:08Z</time>
      </trkpt>
      <trkpt lat="48.02725" lon="-3.00285">
        <ele>116.9375</ele>
        <time>2009-03-01T15:53:09Z</time>
      </trkpt>
      <trkpt lat="48.02723" lon="-3.00288">
        <ele>117.8988</ele>
        <time>2009-03-01T15:53:10Z</time>
      </trkpt>
      <trkpt lat="48.02715" lon="-3.00294">
        <ele>117.41821</ele>
        <time>2009-03-01T15:53:14Z</time>
      </trkpt>
      <trkpt lat="48.02709" lon="-3.00302">
        <ele>117.8988</ele>
        <time>2009-03-01T15:53:17Z</time>
      </trkpt>
      <trkpt lat="48.0271" lon="-3.00305">
        <ele>117.41821</ele>
        <time>2009-03-01T15:53:18Z</time>
      </trkpt>
      <trkpt lat="48.02713" lon="-3.00302">
        <ele>118.37939</ele>
        <time>2009-03-01T15:53:19Z</time>
      </trkpt>
      <trkpt lat="48.02713" lon="-3.00301">
        <ele>118.37939</ele>
        <time>2009-03-01T15:53:19Z</time>
      </trkpt>
      <trkpt lat="48.02713" lon="-3.00299">
        <ele>117.8988</ele>
        <time>2009-03-01T15:53:20Z</time>
      </trkpt>
      <trkpt lat="48.02714" lon="-3.00299">
        <ele>118.37939</ele>
        <time>2009-03-01T15:53:20Z</time>
      </trkpt>
      <trkpt lat="48.02721" lon="-3.0029">
        <ele>117.41821</ele>
        <time>2009-03-01T15:53:24Z</time>
      </trkpt>
      <trkpt lat="48.02731" lon="-3.00268">
        <ele>116.9375</ele>
        <time>2009-03-01T15:53:31Z</time>
      </trkpt>
      <trkpt lat="48.02734" lon="-3.0026">
        <ele>116.9375</ele>
        <time>2009-03-01T15:53:33Z</time>
      </trkpt>
      <trkpt lat="48.0276" lon="-3.00185">
        <ele>115.4956</ele>
        <time>2009-03-01T15:53:56Z</time>
      </trkpt>
      <trkpt lat="48.02777" lon="-3.00141">
        <ele>113.57299</ele>
        <time>2009-03-01T15:54:09Z</time>
      </trkpt>
      <trkpt lat="48.02784" lon="-3.00123">
        <ele>112.61157</ele>
        <time>2009-03-01T15:54:15Z</time>
      </trkpt>
      <trkpt lat="48.0281" lon="-3.00056">
        <ele>110.20825</ele>
        <time>2009-03-01T15:54:36Z</time>
      </trkpt>
      <trkpt lat="48.02825" lon="-3.00013">
        <ele>106.84362</ele>
        <time>2009-03-01T15:54:49Z</time>
      </trkpt>
      <trkpt lat="48.02844" lon="-2.99965">
        <ele>102.0371</ele>
        <time>2009-03-01T15:55:04Z</time>
      </trkpt>
      <trkpt lat="48.02856" lon="-2.99931">
        <ele>98.672485</ele>
        <time>2009-03-01T15:55:14Z</time>
      </trkpt>
      <trkpt lat="48.02863" lon="-2.9991">
        <ele>95.307739</ele>
        <time>2009-03-01T15:55:20Z</time>
      </trkpt>
      <trkpt lat="48.02872" lon="-2.99877">
        <ele>91.943237</ele>
        <time>2009-03-01T15:55:30Z</time>
      </trkpt>
      <trkpt lat="48.02874" lon="-2.99866">
        <ele>90.501342</ele>
        <time>2009-03-01T15:55:33Z</time>
      </trkpt>
      <trkpt lat="48.02874" lon="-2.99863">
        <ele>90.501342</ele>
        <time>2009-03-01T15:55:34Z</time>
      </trkpt>
      <trkpt lat="48.02876" lon="-2.9986">
        <ele>89.539917</ele>
        <time>2009-03-01T15:55:35Z</time>
      </trkpt>
      <trkpt lat="48.02884" lon="-2.99873">
        <ele>88.098022</ele>
        <time>2009-03-01T15:55:40Z</time>
      </trkpt>
      <trkpt lat="48.02895" lon="-2.99888">
        <ele>87.617187</ele>
        <time>2009-03-01T15:55:45Z</time>
      </trkpt>
      <trkpt lat="48.02907" lon="-2.999">
        <ele>89.059326</ele>
        <time>2009-03-01T15:55:51Z</time>
      </trkpt>
      <trkpt lat="48.02923" lon="-2.99914">
        <ele>89.539917</ele>
        <time>2009-03-01T15:55:59Z</time>
      </trkpt>
      <trkpt lat="48.02935" lon="-2.99931">
        <ele>89.539917</ele>
        <time>2009-03-01T15:56:05Z</time>
      </trkpt>
      <trkpt lat="48.02943" lon="-2.99949">
        <ele>90.981933</ele>
        <time>2009-03-01T15:56:11Z</time>
      </trkpt>
      <trkpt lat="48.02947" lon="-2.99963">
        <ele>92.42395</ele>
        <time>2009-03-01T15:56:15Z</time>
      </trkpt>
      <trkpt lat="48.02955" lon="-2.99973">
        <ele>90.981933</ele>
        <time>2009-03-01T15:56:19Z</time>
      </trkpt>
      <trkpt lat="48.02971" lon="-2.99984">
        <ele>89.059326</ele>
        <time>2009-03-01T15:56:26Z</time>
      </trkpt>
      <trkpt lat="48.02985" lon="-3.00002">
        <ele>90.020629</ele>
        <time>2009-03-01T15:56:34Z</time>
      </trkpt>
      <trkpt lat="48.02993" lon="-3.00019">
        <ele>90.501342</ele>
        <time>2009-03-01T15:56:40Z</time>
      </trkpt>
      <trkpt lat="48.02993" lon="-3.00021">
        <ele>90.501342</ele>
        <time>2009-03-01T15:56:40Z</time>
      </trkpt>
      <trkpt lat="48.02991" lon="-3.00028">
        <ele>91.462524</ele>
        <time>2009-03-01T15:56:42Z</time>
      </trkpt>
      <trkpt lat="48.02992" lon="-3.0004">
        <ele>92.42395</ele>
        <time>2009-03-01T15:56:45Z</time>
      </trkpt>
      <trkpt lat="48.02992" lon="-3.00046">
        <ele>92.904541</ele>
        <time>2009-03-01T15:56:47Z</time>
      </trkpt>
      <trkpt lat="48.02992" lon="-3.00047">
        <ele>92.42395</ele>
        <time>2009-03-01T15:56:47Z</time>
      </trkpt>
      <trkpt lat="48.03007" lon="-3.00048">
        <ele>91.462524</ele>
        <time>2009-03-01T15:56:53Z</time>
      </trkpt>
      <trkpt lat="48.03014" lon="-3.0004">
        <ele>89.539917</ele>
        <time>2009-03-01T15:56:57Z</time>
      </trkpt>
      <trkpt lat="48.03017" lon="-3.00039">
        <ele>89.539917</ele>
        <time>2009-03-01T15:56:58Z</time>
      </trkpt>
      <trkpt lat="48.03024" lon="-3.00039">
        <ele>89.059326</ele>
        <time>2009-03-01T15:57:01Z</time>
      </trkpt>
      <trkpt lat="48.03033" lon="-3.00024">
        <ele>87.136596</ele>
        <time>2009-03-01T15:57:06Z</time>
      </trkpt>
      <trkpt lat="48.03045" lon="-3.00009">
        <ele>85.213989</ele>
        <time>2009-03-01T15:57:12Z</time>
      </trkpt>
      <trkpt lat="48.03047" lon="-3.00004">
        <ele>84.733398</ele>
        <time>2009-03-01T15:57:14Z</time>
      </trkpt>
      <trkpt lat="48.03067" lon="-2.99973">
        <ele>80.888183</ele>
        <time>2009-03-01T15:57:25Z</time>
      </trkpt>
      <trkpt lat="48.03077" lon="-2.99954">
        <ele>80.40747</ele>
        <time>2009-03-01T15:57:32Z</time>
      </trkpt>
      <trkpt lat="48.03076" lon="-2.99942">
        <ele>78.965454</ele>
        <time>2009-03-01T15:57:35Z</time>
      </trkpt>
      <trkpt lat="48.03071" lon="-2.99933">
        <ele>78.484741</ele>
        <time>2009-03-01T15:57:38Z</time>
      </trkpt>
      <trkpt lat="48.03067" lon="-2.99917">
        <ele>78.004028</ele>
        <time>2009-03-01T15:57:43Z</time>
      </trkpt>
      <trkpt lat="48.0307" lon="-2.99905">
        <ele>77.042846</ele>
        <time>2009-03-01T15:57:46Z</time>
      </trkpt>
      <trkpt lat="48.03071" lon="-2.99889">
        <ele>78.484741</ele>
        <time>2009-03-01T15:57:50Z</time>
      </trkpt>
      <trkpt lat="48.03072" lon="-2.99887">
        <ele>78.004028</ele>
        <time>2009-03-01T15:57:51Z</time>
      </trkpt>
      <trkpt lat="48.03082" lon="-2.99878">
        <ele>79.926635</ele>
        <time>2009-03-01T15:57:56Z</time>
      </trkpt>
      <trkpt lat="48.03092" lon="-2.99883">
        <ele>81.368774</ele>
        <time>2009-03-01T15:58:00Z</time>
      </trkpt>
      <trkpt lat="48.03104" lon="-2.99873">
        <ele>81.849365</ele>
        <time>2009-03-01T15:58:05Z</time>
      </trkpt>
      <trkpt lat="48.03116" lon="-2.99862">
        <ele>82.810791</ele>
        <time>2009-03-01T15:58:11Z</time>
      </trkpt>
      <trkpt lat="48.03117" lon="-2.9986">
        <ele>82.810791</ele>
        <time>2009-03-01T15:58:12Z</time>
      </trkpt>
      <trkpt lat="48.0312" lon="-2.99849">
        <ele>83.291381</ele>
        <time>2009-03-01T15:58:15Z</time>
      </trkpt>
      <trkpt lat="48.03121" lon="-2.99848">
        <ele>83.771972</ele>
        <time>2009-03-01T15:58:15Z</time>
      </trkpt>
      <trkpt lat="48.03122" lon="-2.99848">
        <ele>83.771972</ele>
        <time>2009-03-01T15:58:16Z</time>
      </trkpt>
      <trkpt lat="48.03129" lon="-2.99844">
        <ele>85.213989</ele>
        <time>2009-03-01T15:58:19Z</time>
      </trkpt>
      <trkpt lat="48.03131" lon="-2.99843">
        <ele>85.213989</ele>
        <time>2009-03-01T15:58:20Z</time>
      </trkpt>
      <trkpt lat="48.03144" lon="-2.99834">
        <ele>87.617187</ele>
        <time>2009-03-01T15:58:26Z</time>
      </trkpt>
      <trkpt lat="48.03149" lon="-2.99833">
        <ele>89.059326</ele>
        <time>2009-03-01T15:58:27Z</time>
      </trkpt>
      <trkpt lat="48.03155" lon="-2.9983">
        <ele>90.501342</ele>
        <time>2009-03-01T15:58:30Z</time>
      </trkpt>
      <trkpt lat="48.0317" lon="-2.99825">
        <ele>92.42395</ele>
        <time>2009-03-01T15:58:36Z</time>
      </trkpt>
      <trkpt lat="48.03181" lon="-2.99822">
        <ele>94.346557</ele>
        <time>2009-03-01T15:58:41Z</time>
      </trkpt>
      <trkpt lat="48.03188" lon="-2.99821">
        <ele>96.269287</ele>
        <time>2009-03-01T15:58:43Z</time>
      </trkpt>
      <trkpt lat="48.03193" lon="-2.9982">
        <ele>97.711181</ele>
        <time>2009-03-01T15:58:45Z</time>
      </trkpt>
      <trkpt lat="48.03204" lon="-2.99818">
        <ele>99.633789</ele>
        <time>2009-03-01T15:58:50Z</time>
      </trkpt>
      <trkpt lat="48.03217" lon="-2.99815">
        <ele>101.07568</ele>
        <time>2009-03-01T15:58:55Z</time>
      </trkpt>
      <trkpt lat="48.03228" lon="-2.99814">
        <ele>102.5177</ele>
        <time>2009-03-01T15:58:59Z</time>
      </trkpt>
      <trkpt lat="48.03242" lon="-2.99813">
        <ele>104.44042</ele>
        <time>2009-03-01T15:59:05Z</time>
      </trkpt>
      <trkpt lat="48.03255" lon="-2.99812">
        <ele>106.36303</ele>
        <time>2009-03-01T15:59:11Z</time>
      </trkpt>
      <trkpt lat="48.03273" lon="-2.99811">
        <ele>107.32434</ele>
        <time>2009-03-01T15:59:18Z</time>
      </trkpt>
      <trkpt lat="48.03287" lon="-2.99809">
        <ele>108.76623</ele>
        <time>2009-03-01T15:59:23Z</time>
      </trkpt>
      <trkpt lat="48.033" lon="-2.99809">
        <ele>110.68884</ele>
        <time>2009-03-01T15:59:28Z</time>
      </trkpt>
      <trkpt lat="48.03311" lon="-2.99805">
        <ele>112.13098</ele>
        <time>2009-03-01T15:59:33Z</time>
      </trkpt>
      <trkpt lat="48.03318" lon="-2.99799">
        <ele>113.09228</ele>
        <time>2009-03-01T15:59:36Z</time>
      </trkpt>
      <trkpt lat="48.03324" lon="-2.99806">
        <ele>113.09228</ele>
        <time>2009-03-01T15:59:39Z</time>
      </trkpt>
      <trkpt lat="48.03325" lon="-2.99811">
        <ele>112.61157</ele>
        <time>2009-03-01T15:59:41Z</time>
      </trkpt>
      <trkpt lat="48.0333" lon="-2.99824">
        <ele>111.16955</ele>
        <time>2009-03-01T15:59:45Z</time>
      </trkpt>
      <trkpt lat="48.03331" lon="-2.99851">
        <ele>108.28564</ele>
        <time>2009-03-01T15:59:52Z</time>
      </trkpt>
      <trkpt lat="48.03327" lon="-2.99858">
        <ele>108.28564</ele>
        <time>2009-03-01T15:59:54Z</time>
      </trkpt>
      <trkpt lat="48.03316" lon="-2.99869">
        <ele>110.68884</ele>
        <time>2009-03-01T16:00:00Z</time>
      </trkpt>
      <trkpt lat="48.03305" lon="-2.99879">
        <ele>111.65026</ele>
        <time>2009-03-01T16:00:05Z</time>
      </trkpt>
      <trkpt lat="48.03296" lon="-2.99889">
        <ele>112.61157</ele>
        <time>2009-03-01T16:00:09Z</time>
      </trkpt>
      <trkpt lat="48.03285" lon="-2.99904">
        <ele>114.53417</ele>
        <time>2009-03-01T16:00:15Z</time>
      </trkpt>
      <trkpt lat="48.03273" lon="-2.99913">
        <ele>116.45678</ele>
        <time>2009-03-01T16:00:20Z</time>
      </trkpt>
      <trkpt lat="48.03263" lon="-2.99924">
        <ele>117.41821</ele>
        <time>2009-03-01T16:00:25Z</time>
      </trkpt>
      <trkpt lat="48.03259" lon="-2.99939">
        <ele>118.8601</ele>
        <time>2009-03-01T16:00:30Z</time>
      </trkpt>
      <trkpt lat="48.03256" lon="-2.99955">
        <ele>119.82141</ele>
        <time>2009-03-01T16:00:34Z</time>
      </trkpt>
      <trkpt lat="48.03254" lon="-2.99971">
        <ele>120.78283</ele>
        <time>2009-03-01T16:00:38Z</time>
      </trkpt>
      <trkpt lat="48.03254" lon="-2.99981">
        <ele>121.26354</ele>
        <time>2009-03-01T16:00:41Z</time>
      </trkpt>
      <trkpt lat="48.03258" lon="-2.99992">
        <ele>122.22473</ele>
        <time>2009-03-01T16:00:45Z</time>
      </trkpt>
      <trkpt lat="48.03265" lon="-3.00014">
        <ele>125.10876</ele>
        <time>2009-03-01T16:00:51Z</time>
      </trkpt>
      <trkpt lat="48.03272" lon="-3.00028">
        <ele>126.06994</ele>
        <time>2009-03-01T16:00:56Z</time>
      </trkpt>
      <trkpt lat="48.03279" lon="-3.00042">
        <ele>127.51196</ele>
        <time>2009-03-01T16:01:00Z</time>
      </trkpt>
      <trkpt lat="48.03286" lon="-3.00055">
        <ele>128.47338</ele>
        <time>2009-03-01T16:01:05Z</time>
      </trkpt>
      <trkpt lat="48.03296" lon="-3.00071">
        <ele>128.9541</ele>
        <time>2009-03-01T16:01:11Z</time>
      </trkpt>
      <trkpt lat="48.03305" lon="-3.00083">
        <ele>130.39599</ele>
        <time>2009-03-01T16:01:16Z</time>
      </trkpt>
      <trkpt lat="48.03315" lon="-3.00099">
        <ele>131.35729</ele>
        <time>2009-03-01T16:01:21Z</time>
      </trkpt>
      <trkpt lat="48.03326" lon="-3.00118">
        <ele>132.3186</ele>
        <time>2009-03-01T16:01:28Z</time>
      </trkpt>
      <trkpt lat="48.03336" lon="-3.00135">
        <ele>133.2799</ele>
        <time>2009-03-01T16:01:34Z</time>
      </trkpt>
      <trkpt lat="48.03341" lon="-3.00144">
        <ele>133.76049</ele>
        <time>2009-03-01T16:01:37Z</time>
      </trkpt>
      <trkpt lat="48.03348" lon="-3.0016">
        <ele>134.24121</ele>
        <time>2009-03-01T16:01:42Z</time>
      </trkpt>
      <trkpt lat="48.03349" lon="-3.00163">
        <ele>134.24121</ele>
        <time>2009-03-01T16:01:43Z</time>
      </trkpt>
      <trkpt lat="48.03352" lon="-3.00176">
        <ele>134.24121</ele>
        <time>2009-03-01T16:01:47Z</time>
      </trkpt>
      <trkpt lat="48.03353" lon="-3.00183">
        <ele>134.24121</ele>
        <time>2009-03-01T16:01:49Z</time>
      </trkpt>
      <trkpt lat="48.03346" lon="-3.00202">
        <ele>132.79931</ele>
        <time>2009-03-01T16:01:55Z</time>
      </trkpt>
      <trkpt lat="48.03338" lon="-3.00226">
        <ele>132.3186</ele>
        <time>2009-03-01T16:02:02Z</time>
      </trkpt>
      <trkpt lat="48.03332" lon="-3.00247">
        <ele>131.35729</ele>
        <time>2009-03-01T16:02:08Z</time>
      </trkpt>
      <trkpt lat="48.03321" lon="-3.0029">
        <ele>127.51196</ele>
        <time>2009-03-01T16:02:20Z</time>
      </trkpt>
      <trkpt lat="48.0332" lon="-3.00297">
        <ele>127.03137</ele>
        <time>2009-03-01T16:02:22Z</time>
      </trkpt>
      <trkpt lat="48.03319" lon="-3.00308">
        <ele>127.03137</ele>
        <time>2009-03-01T16:02:25Z</time>
      </trkpt>
      <trkpt lat="48.03327" lon="-3.00313">
        <ele>128.47338</ele>
        <time>2009-03-01T16:02:29Z</time>
      </trkpt>
      <trkpt lat="48.03331" lon="-3.00314">
        <ele>129.43469</ele>
        <time>2009-03-01T16:02:30Z</time>
      </trkpt>
      <trkpt lat="48.03344" lon="-3.00323">
        <ele>130.39599</ele>
        <time>2009-03-01T16:02:36Z</time>
      </trkpt>
      <trkpt lat="48.03359" lon="-3.0034">
        <ele>131.35729</ele>
        <time>2009-03-01T16:02:44Z</time>
      </trkpt>
      <trkpt lat="48.03376" lon="-3.00347">
        <ele>131.83789</ele>
        <time>2009-03-01T16:02:51Z</time>
      </trkpt>
      <trkpt lat="48.03394" lon="-3.00352">
        <ele>132.79931</ele>
        <time>2009-03-01T16:02:58Z</time>
      </trkpt>
      <trkpt lat="48.0341" lon="-3.00358">
        <ele>133.2799</ele>
        <time>2009-03-01T16:03:05Z</time>
      </trkpt>
      <trkpt lat="48.0343" lon="-3.00366">
        <ele>133.76049</ele>
        <time>2009-03-01T16:03:13Z</time>
      </trkpt>
      <trkpt lat="48.03445" lon="-3.00368">
        <ele>133.2799</ele>
        <time>2009-03-01T16:03:19Z</time>
      </trkpt>
      <trkpt lat="48.03462" lon="-3.00367">
        <ele>133.76049</ele>
        <time>2009-03-01T16:03:26Z</time>
      </trkpt>
      <trkpt lat="48.03475" lon="-3.00367">
        <ele>134.72192</ele>
        <time>2009-03-01T16:03:31Z</time>
      </trkpt>
      <trkpt lat="48.03492" lon="-3.00362">
        <ele>136.16394</ele>
        <time>2009-03-01T16:03:38Z</time>
      </trkpt>
      <trkpt lat="48.03497" lon="-3.0036">
        <ele>136.64465</ele>
        <time>2009-03-01T16:03:40Z</time>
      </trkpt>
      <trkpt lat="48.03509" lon="-3.00355">
        <ele>139.04785</ele>
        <time>2009-03-01T16:03:45Z</time>
      </trkpt>
      <trkpt lat="48.03521" lon="-3.00357">
        <ele>139.52844</ele>
        <time>2009-03-01T16:03:50Z</time>
      </trkpt>
      <trkpt lat="48.03529" lon="-3.00363">
        <ele>139.04785</ele>
        <time>2009-03-01T16:03:53Z</time>
      </trkpt>
      <trkpt lat="48.03544" lon="-3.00372">
        <ele>137.12524</ele>
        <time>2009-03-01T16:04:00Z</time>
      </trkpt>
      <trkpt lat="48.03549" lon="-3.00375">
        <ele>136.16394</ele>
        <time>2009-03-01T16:04:02Z</time>
      </trkpt>
      <trkpt lat="48.03578" lon="-3.00384">
        <ele>137.12524</ele>
        <time>2009-03-01T16:04:14Z</time>
      </trkpt>
      <trkpt lat="48.03594" lon="-3.00391">
        <ele>135.20251</ele>
        <time>2009-03-01T16:04:21Z</time>
      </trkpt>
      <trkpt lat="48.03613" lon="-3.00397">
        <ele>133.2799</ele>
        <time>2009-03-01T16:04:28Z</time>
      </trkpt>
      <trkpt lat="48.03631" lon="-3.00395">
        <ele>132.79931</ele>
        <time>2009-03-01T16:04:35Z</time>
      </trkpt>
      <trkpt lat="48.0365" lon="-3.00386">
        <ele>133.2799</ele>
        <time>2009-03-01T16:04:44Z</time>
      </trkpt>
      <trkpt lat="48.0367" lon="-3.0038">
        <ele>132.79931</ele>
        <time>2009-03-01T16:04:52Z</time>
      </trkpt>
      <trkpt lat="48.03689" lon="-3.00382">
        <ele>133.76049</ele>
        <time>2009-03-01T16:04:59Z</time>
      </trkpt>
      <trkpt lat="48.0371" lon="-3.00393">
        <ele>135.20251</ele>
        <time>2009-03-01T16:05:08Z</time>
      </trkpt>
      <trkpt lat="48.03726" lon="-3.00406">
        <ele>136.64465</ele>
        <time>2009-03-01T16:05:15Z</time>
      </trkpt>
      <trkpt lat="48.03738" lon="-3.00414">
        <ele>139.52844</ele>
        <time>2009-03-01T16:05:21Z</time>
      </trkpt>
      <trkpt lat="48.03747" lon="-3.00424">
        <ele>140.48986</ele>
        <time>2009-03-01T16:05:25Z</time>
      </trkpt>
      <trkpt lat="48.03761" lon="-3.00437">
        <ele>140.97045</ele>
        <time>2009-03-01T16:05:32Z</time>
      </trkpt>
      <trkpt lat="48.03772" lon="-3.00448">
        <ele>142.41247</ele>
        <time>2009-03-01T16:05:37Z</time>
      </trkpt>
      <trkpt lat="48.03786" lon="-3.0046">
        <ele>143.37365</ele>
        <time>2009-03-01T16:05:44Z</time>
      </trkpt>
      <trkpt lat="48.03799" lon="-3.00476">
        <ele>144.3352</ele>
        <time>2009-03-01T16:05:50Z</time>
      </trkpt>
      <trkpt lat="48.03811" lon="-3.00501">
        <ele>144.81579</ele>
        <time>2009-03-01T16:05:58Z</time>
      </trkpt>
      <trkpt lat="48.03817" lon="-3.00511">
        <ele>144.81579</ele>
        <time>2009-03-01T16:06:02Z</time>
      </trkpt>
      <trkpt lat="48.03809" lon="-3.00529">
        <ele>141.93176</ele>
        <time>2009-03-01T16:06:08Z</time>
      </trkpt>
      <trkpt lat="48.03806" lon="-3.00542">
        <ele>140.00915</ele>
        <time>2009-03-01T16:06:11Z</time>
      </trkpt>
      <trkpt lat="48.03809" lon="-3.0056">
        <ele>138.08654</ele>
        <time>2009-03-01T16:06:16Z</time>
      </trkpt>
      <trkpt lat="48.0382" lon="-3.00584">
        <ele>136.16394</ele>
        <time>2009-03-01T16:06:24Z</time>
      </trkpt>
      <trkpt lat="48.03847" lon="-3.00619">
        <ele>132.3186</ele>
        <time>2009-03-01T16:06:38Z</time>
      </trkpt>
      <trkpt lat="48.03856" lon="-3.00632">
        <ele>129.91528</ele>
        <time>2009-03-01T16:06:43Z</time>
      </trkpt>
      <trkpt lat="48.03873" lon="-3.00661">
        <ele>127.51196</ele>
        <time>2009-03-01T16:06:54Z</time>
      </trkpt>
      <trkpt lat="48.03893" lon="-3.00674">
        <ele>126.55065</ele>
        <time>2009-03-01T16:07:03Z</time>
      </trkpt>
      <trkpt lat="48.03904" lon="-3.00675">
        <ele>127.03137</ele>
        <time>2009-03-01T16:07:07Z</time>
      </trkpt>
      <trkpt lat="48.03918" lon="-3.0068">
        <ele>127.99255</ele>
        <time>2009-03-01T16:07:12Z</time>
      </trkpt>
      <trkpt lat="48.03927" lon="-3.00685">
        <ele>128.47338</ele>
        <time>2009-03-01T16:07:16Z</time>
      </trkpt>
      <trkpt lat="48.03937" lon="-3.00691">
        <ele>127.99255</ele>
        <time>2009-03-01T16:07:21Z</time>
      </trkpt>
      <trkpt lat="48.03948" lon="-3.00699">
        <ele>128.47338</ele>
        <time>2009-03-01T16:07:26Z</time>
      </trkpt>
      <trkpt lat="48.03962" lon="-3.00709">
        <ele>128.47338</ele>
        <time>2009-03-01T16:07:32Z</time>
      </trkpt>
      <trkpt lat="48.03962" lon="-3.00711">
        <ele>128.47338</ele>
        <time>2009-03-01T16:07:32Z</time>
      </trkpt>
      <trkpt lat="48.03963" lon="-3.00722">
        <ele>129.43469</ele>
        <time>2009-03-01T16:07:35Z</time>
      </trkpt>
      <trkpt lat="48.03963" lon="-3.00723">
        <ele>129.91528</ele>
        <time>2009-03-01T16:07:36Z</time>
      </trkpt>
      <trkpt lat="48.03969" lon="-3.00726">
        <ele>130.39599</ele>
        <time>2009-03-01T16:07:38Z</time>
      </trkpt>
      <trkpt lat="48.03978" lon="-3.00734">
        <ele>130.8767</ele>
        <time>2009-03-01T16:07:42Z</time>
      </trkpt>
      <trkpt lat="48.03992" lon="-3.00744">
        <ele>129.43469</ele>
        <time>2009-03-01T16:07:48Z</time>
      </trkpt>
      <trkpt lat="48.03998" lon="-3.00749">
        <ele>129.43469</ele>
        <time>2009-03-01T16:07:51Z</time>
      </trkpt>
      <trkpt lat="48.04009" lon="-3.0076">
        <ele>128.9541</ele>
        <time>2009-03-01T16:07:56Z</time>
      </trkpt>
      <trkpt lat="48.04021" lon="-3.00768">
        <ele>128.9541</ele>
        <time>2009-03-01T16:08:02Z</time>
      </trkpt>
      <trkpt lat="48.04031" lon="-3.00775">
        <ele>128.9541</ele>
        <time>2009-03-01T16:08:06Z</time>
      </trkpt>
      <trkpt lat="48.04042" lon="-3.00779">
        <ele>128.9541</ele>
        <time>2009-03-01T16:08:11Z</time>
      </trkpt>
      <trkpt lat="48.04044" lon="-3.0078">
        <ele>129.43469</ele>
        <time>2009-03-01T16:08:11Z</time>
      </trkpt>
      <trkpt lat="48.04045" lon="-3.00779">
        <ele>129.91528</ele>
        <time>2009-03-01T16:08:12Z</time>
      </trkpt>
      <trkpt lat="48.04049" lon="-3.00779">
        <ele>131.35729</ele>
        <time>2009-03-01T16:08:13Z</time>
      </trkpt>
      <trkpt lat="48.0405" lon="-3.0078">
        <ele>131.35729</ele>
        <time>2009-03-01T16:08:14Z</time>
      </trkpt>
      <trkpt lat="48.04057" lon="-3.00782">
        <ele>131.83789</ele>
        <time>2009-03-01T16:08:17Z</time>
      </trkpt>
      <trkpt lat="48.04069" lon="-3.00788">
        <ele>132.3186</ele>
        <time>2009-03-01T16:08:22Z</time>
      </trkpt>
      <trkpt lat="48.04079" lon="-3.00796">
        <ele>132.3186</ele>
        <time>2009-03-01T16:08:26Z</time>
      </trkpt>
      <trkpt lat="48.04089" lon="-3.00805">
        <ele>132.79931</ele>
        <time>2009-03-01T16:08:31Z</time>
      </trkpt>
      <trkpt lat="48.04109" lon="-3.00824">
        <ele>132.3186</ele>
        <time>2009-03-01T16:08:41Z</time>
      </trkpt>
      <trkpt lat="48.04118" lon="-3.00834">
        <ele>132.79931</ele>
        <time>2009-03-01T16:08:45Z</time>
      </trkpt>
      <trkpt lat="48.04127" lon="-3.0084">
        <ele>135.20251</ele>
        <time>2009-03-01T16:08:49Z</time>
      </trkpt>
      <trkpt lat="48.04133" lon="-3.00844">
        <ele>137.60583</ele>
        <time>2009-03-01T16:08:52Z</time>
      </trkpt>
      <trkpt lat="48.04141" lon="-3.00844">
        <ele>140.48986</ele>
        <time>2009-03-01T16:08:55Z</time>
      </trkpt>
      <trkpt lat="48.04156" lon="-3.0084">
        <ele>140.00915</ele>
        <time>2009-03-01T16:09:01Z</time>
      </trkpt>
      <trkpt lat="48.04167" lon="-3.00825">
        <ele>140.48986</ele>
        <time>2009-03-01T16:09:07Z</time>
      </trkpt>
      <trkpt lat="48.04173" lon="-3.00817">
        <ele>140.00915</ele>
        <time>2009-03-01T16:09:10Z</time>
      </trkpt>
      <trkpt lat="48.04197" lon="-3.00786">
        <ele>140.00915</ele>
        <time>2009-03-01T16:09:23Z</time>
      </trkpt>
      <trkpt lat="48.04218" lon="-3.00779">
        <ele>140.00915</ele>
        <time>2009-03-01T16:09:31Z</time>
      </trkpt>
      <trkpt lat="48.04232" lon="-3.00797">
        <ele>139.52844</ele>
        <time>2009-03-01T16:09:39Z</time>
      </trkpt>
      <trkpt lat="48.04253" lon="-3.00834">
        <ele>141.45104</ele>
        <time>2009-03-01T16:09:52Z</time>
      </trkpt>
      <trkpt lat="48.04276" lon="-3.00859">
        <ele>143.37365</ele>
        <time>2009-03-01T16:10:03Z</time>
      </trkpt>
      <trkpt lat="48.04302" lon="-3.00881">
        <ele>144.3352</ele>
        <time>2009-03-01T16:10:15Z</time>
      </trkpt>
      <trkpt lat="48.04309" lon="-3.00887">
        <ele>145.77709</ele>
        <time>2009-03-01T16:10:18Z</time>
      </trkpt>
      <trkpt lat="48.04325" lon="-3.0089">
        <ele>143.85437</ele>
        <time>2009-03-01T16:10:25Z</time>
      </trkpt>
      <trkpt lat="48.04351" lon="-3.00907">
        <ele>142.41247</ele>
        <time>2009-03-01T16:10:36Z</time>
      </trkpt>
      <trkpt lat="48.04355" lon="-3.0091">
        <ele>143.37365</ele>
        <time>2009-03-01T16:10:38Z</time>
      </trkpt>
      <trkpt lat="48.04374" lon="-3.00929">
        <ele>143.37365</ele>
        <time>2009-03-01T16:10:47Z</time>
      </trkpt>
      <trkpt lat="48.04385" lon="-3.00945">
        <ele>142.41247</ele>
        <time>2009-03-01T16:10:53Z</time>
      </trkpt>
      <trkpt lat="48.04392" lon="-3.00968">
        <ele>142.41247</ele>
        <time>2009-03-01T16:11:00Z</time>
      </trkpt>
      <trkpt lat="48.04402" lon="-3.00977">
        <ele>139.52844</ele>
        <time>2009-03-01T16:11:05Z</time>
      </trkpt>
      <trkpt lat="48.04402" lon="-3.00976">
        <ele>139.04785</ele>
        <time>2009-03-01T16:11:05Z</time>
      </trkpt>
      <trkpt lat="48.04402" lon="-3.0097">
        <ele>139.04785</ele>
        <time>2009-03-01T16:11:07Z</time>
      </trkpt>
      <trkpt lat="48.04408" lon="-3.00949">
        <ele>139.04785</ele>
        <time>2009-03-01T16:11:13Z</time>
      </trkpt>
      <trkpt lat="48.04419" lon="-3.00941">
        <ele>138.56726</ele>
        <time>2009-03-01T16:11:18Z</time>
      </trkpt>
      <trkpt lat="48.04431" lon="-3.00934">
        <ele>138.56726</ele>
        <time>2009-03-01T16:11:23Z</time>
      </trkpt>
      <trkpt lat="48.04443" lon="-3.00916">
        <ele>138.08654</ele>
        <time>2009-03-01T16:11:29Z</time>
      </trkpt>
      <trkpt lat="48.0445" lon="-3.0091">
        <ele>139.04785</ele>
        <time>2009-03-01T16:11:33Z</time>
      </trkpt>
      <trkpt lat="48.04453" lon="-3.0091">
        <ele>139.52844</ele>
        <time>2009-03-01T16:11:34Z</time>
      </trkpt>
      <trkpt lat="48.04465" lon="-3.00919">
        <ele>142.41247</ele>
        <time>2009-03-01T16:11:39Z</time>
      </trkpt>
      <trkpt lat="48.04475" lon="-3.00923">
        <ele>144.3352</ele>
        <time>2009-03-01T16:11:43Z</time>
      </trkpt>
      <trkpt lat="48.04477" lon="-3.00924">
        <ele>145.29638</ele>
        <time>2009-03-01T16:11:44Z</time>
      </trkpt>
      <trkpt lat="48.0448" lon="-3.00934">
        <ele>145.77709</ele>
        <time>2009-03-01T16:11:47Z</time>
      </trkpt>
      <trkpt lat="48.0448" lon="-3.00936">
        <ele>146.25781</ele>
        <time>2009-03-01T16:11:48Z</time>
      </trkpt>
      <trkpt lat="48.0448" lon="-3.0095">
        <ele>147.6997</ele>
        <time>2009-03-01T16:11:51Z</time>
      </trkpt>
      <trkpt lat="48.04482" lon="-3.00959">
        <ele>149.1416</ele>
        <time>2009-03-01T16:11:54Z</time>
      </trkpt>
      <trkpt lat="48.04481" lon="-3.00971">
        <ele>151.0642</ele>
        <time>2009-03-01T16:11:57Z</time>
      </trkpt>
      <trkpt lat="48.04481" lon="-3.00975">
        <ele>151.0642</ele>
        <time>2009-03-01T16:11:58Z</time>
      </trkpt>
      <trkpt lat="48.04478" lon="-3.00995">
        <ele>152.02575</ele>
        <time>2009-03-01T16:12:04Z</time>
      </trkpt>
      <trkpt lat="48.0448" lon="-3.01014">
        <ele>152.98693</ele>
        <time>2009-03-01T16:12:09Z</time>
      </trkpt>
      <trkpt lat="48.04484" lon="-3.01026">
        <ele>153.46765</ele>
        <time>2009-03-01T16:12:12Z</time>
      </trkpt>
      <trkpt lat="48.04491" lon="-3.0104">
        <ele>153.94836</ele>
        <time>2009-03-01T16:12:17Z</time>
      </trkpt>
      <trkpt lat="48.04498" lon="-3.01051">
        <ele>154.42895</ele>
        <time>2009-03-01T16:12:21Z</time>
      </trkpt>
      <trkpt lat="48.045" lon="-3.01061">
        <ele>154.42895</ele>
        <time>2009-03-01T16:12:24Z</time>
      </trkpt>
      <trkpt lat="48.04502" lon="-3.01082">
        <ele>155.87097</ele>
        <time>2009-03-01T16:12:30Z</time>
      </trkpt>
      <trkpt lat="48.04505" lon="-3.01092">
        <ele>156.83215</ele>
        <time>2009-03-01T16:12:32Z</time>
      </trkpt>
      <trkpt lat="48.04513" lon="-3.01116">
        <ele>157.79357</ele>
        <time>2009-03-01T16:12:40Z</time>
      </trkpt>
      <trkpt lat="48.04519" lon="-3.01132">
        <ele>157.79357</ele>
        <time>2009-03-01T16:12:45Z</time>
      </trkpt>
      <trkpt lat="48.04525" lon="-3.01152">
        <ele>157.31286</ele>
        <time>2009-03-01T16:12:50Z</time>
      </trkpt>
      <trkpt lat="48.04528" lon="-3.01164">
        <ele>157.31286</ele>
        <time>2009-03-01T16:12:54Z</time>
      </trkpt>
      <trkpt lat="48.04543" lon="-3.01203">
        <ele>156.35156</ele>
        <time>2009-03-01T16:13:06Z</time>
      </trkpt>
      <trkpt lat="48.04545" lon="-3.01211">
        <ele>156.35156</ele>
        <time>2009-03-01T16:13:08Z</time>
      </trkpt>
      <trkpt lat="48.04542" lon="-3.01233">
        <ele>156.35156</ele>
        <time>2009-03-01T16:13:14Z</time>
      </trkpt>
      <trkpt lat="48.04533" lon="-3.0125">
        <ele>156.83215</ele>
        <time>2009-03-01T16:13:20Z</time>
      </trkpt>
      <trkpt lat="48.04529" lon="-3.01259">
        <ele>157.31286</ele>
        <time>2009-03-01T16:13:23Z</time>
      </trkpt>
      <trkpt lat="48.04518" lon="-3.01286">
        <ele>159.23547</ele>
        <time>2009-03-01T16:13:31Z</time>
      </trkpt>
      <trkpt lat="48.04514" lon="-3.01311">
        <ele>160.67749</ele>
        <time>2009-03-01T16:13:38Z</time>
      </trkpt>
      <trkpt lat="48.04512" lon="-3.01336">
        <ele>161.1582</ele>
        <time>2009-03-01T16:13:45Z</time>
      </trkpt>
      <trkpt lat="48.04512" lon="-3.01341">
        <ele>160.67749</ele>
        <time>2009-03-01T16:13:46Z</time>
      </trkpt>
      <trkpt lat="48.0451" lon="-3.01375">
        <ele>159.23547</ele>
        <time>2009-03-01T16:13:55Z</time>
      </trkpt>
      <trkpt lat="48.04513" lon="-3.01417">
        <ele>156.83215</ele>
        <time>2009-03-01T16:14:07Z</time>
      </trkpt>
      <trkpt lat="48.04527" lon="-3.01437">
        <ele>155.39025</ele>
        <time>2009-03-01T16:14:15Z</time>
      </trkpt>
      <trkpt lat="48.0453" lon="-3.0144">
        <ele>154.90954</ele>
        <time>2009-03-01T16:14:16Z</time>
      </trkpt>
      <trkpt lat="48.04513" lon="-3.01446">
        <ele>152.98693</ele>
        <time>2009-03-01T16:14:23Z</time>
      </trkpt>
      <trkpt lat="48.04507" lon="-3.01446">
        <ele>152.50634</ele>
        <time>2009-03-01T16:14:26Z</time>
      </trkpt>
      <trkpt lat="48.04492" lon="-3.01446">
        <ele>151.54492</ele>
        <time>2009-03-01T16:14:31Z</time>
      </trkpt>
      <trkpt lat="48.04468" lon="-3.01448">
        <ele>151.54492</ele>
        <time>2009-03-01T16:14:41Z</time>
      </trkpt>
      <trkpt lat="48.04452" lon="-3.01452">
        <ele>152.98693</ele>
        <time>2009-03-01T16:14:48Z</time>
      </trkpt>
      <trkpt lat="48.04454" lon="-3.01471">
        <ele>152.50634</ele>
        <time>2009-03-01T16:14:53Z</time>
      </trkpt>
      <trkpt lat="48.04462" lon="-3.01508">
        <ele>153.94836</ele>
        <time>2009-03-01T16:15:03Z</time>
      </trkpt>
      <trkpt lat="48.0447" lon="-3.01537">
        <ele>154.90954</ele>
        <time>2009-03-01T16:15:11Z</time>
      </trkpt>
      <trkpt lat="48.04475" lon="-3.01562">
        <ele>155.87097</ele>
        <time>2009-03-01T16:15:18Z</time>
      </trkpt>
      <trkpt lat="48.04477" lon="-3.01565">
        <ele>155.87097</ele>
        <time>2009-03-01T16:15:19Z</time>
      </trkpt>
      <trkpt lat="48.04489" lon="-3.01578">
        <ele>154.90954</ele>
        <time>2009-03-01T16:15:26Z</time>
      </trkpt>
      <trkpt lat="48.04491" lon="-3.01581">
        <ele>154.90954</ele>
        <time>2009-03-01T16:15:27Z</time>
      </trkpt>
      <trkpt lat="48.04503" lon="-3.01589">
        <ele>155.39025</ele>
        <time>2009-03-01T16:15:32Z</time>
      </trkpt>
      <trkpt lat="48.04507" lon="-3.01601">
        <ele>155.87097</ele>
        <time>2009-03-01T16:15:35Z</time>
      </trkpt>
      <trkpt lat="48.04515" lon="-3.01609">
        <ele>157.79357</ele>
        <time>2009-03-01T16:15:39Z</time>
      </trkpt>
      <trkpt lat="48.0452" lon="-3.01616">
        <ele>159.23547</ele>
        <time>2009-03-01T16:15:42Z</time>
      </trkpt>
      <trkpt lat="48.04527" lon="-3.01621">
        <ele>160.19689</ele>
        <time>2009-03-01T16:15:45Z</time>
      </trkpt>
      <trkpt lat="48.04542" lon="-3.0163">
        <ele>159.71618</ele>
        <time>2009-03-01T16:15:51Z</time>
      </trkpt>
      <trkpt lat="48.04559" lon="-3.0164">
        <ele>158.75476</ele>
        <time>2009-03-01T16:15:59Z</time>
      </trkpt>
      <trkpt lat="48.04573" lon="-3.01656">
        <ele>159.23547</ele>
        <time>2009-03-01T16:16:06Z</time>
      </trkpt>
      <trkpt lat="48.04607" lon="-3.01687">
        <ele>159.23547</ele>
        <time>2009-03-01T16:16:22Z</time>
      </trkpt>
      <trkpt lat="48.04615" lon="-3.01695">
        <ele>159.23547</ele>
        <time>2009-03-01T16:16:25Z</time>
      </trkpt>
      <trkpt lat="48.04629" lon="-3.01708">
        <ele>159.71618</ele>
        <time>2009-03-01T16:16:32Z</time>
      </trkpt>
      <trkpt lat="48.04652" lon="-3.01717">
        <ele>159.23547</ele>
        <time>2009-03-01T16:16:42Z</time>
      </trkpt>
      <trkpt lat="48.04668" lon="-3.01724">
        <ele>158.27416</ele>
        <time>2009-03-01T16:16:49Z</time>
      </trkpt>
      <trkpt lat="48.04693" lon="-3.01724">
        <ele>158.27416</ele>
        <time>2009-03-01T16:16:59Z</time>
      </trkpt>
      <trkpt lat="48.04717" lon="-3.01717">
        <ele>158.27416</ele>
        <time>2009-03-01T16:17:08Z</time>
      </trkpt>
      <trkpt lat="48.04732" lon="-3.01713">
        <ele>159.23547</ele>
        <time>2009-03-01T16:17:14Z</time>
      </trkpt>
      <trkpt lat="48.04747" lon="-3.01717">
        <ele>159.23547</ele>
        <time>2009-03-01T16:17:20Z</time>
      </trkpt>
      <trkpt lat="48.04773" lon="-3.01736">
        <ele>158.75476</ele>
        <time>2009-03-01T16:17:32Z</time>
      </trkpt>
      <trkpt lat="48.0479" lon="-3.01755">
        <ele>157.79357</ele>
        <time>2009-03-01T16:17:41Z</time>
      </trkpt>
      <trkpt lat="48.04799" lon="-3.01768">
        <ele>157.31286</ele>
        <time>2009-03-01T16:17:45Z</time>
      </trkpt>
      <trkpt lat="48.04814" lon="-3.01804">
        <ele>157.79357</ele>
        <time>2009-03-01T16:17:57Z</time>
      </trkpt>
      <trkpt lat="48.0482" lon="-3.01845">
        <ele>158.27416</ele>
        <time>2009-03-01T16:18:08Z</time>
      </trkpt>
      <trkpt lat="48.04822" lon="-3.0187">
        <ele>158.27416</ele>
        <time>2009-03-01T16:18:15Z</time>
      </trkpt>
      <trkpt lat="48.04823" lon="-3.01893">
        <ele>157.79357</ele>
        <time>2009-03-01T16:18:21Z</time>
      </trkpt>
      <trkpt lat="48.0482" lon="-3.01931">
        <ele>158.27416</ele>
        <time>2009-03-01T16:18:31Z</time>
      </trkpt>
      <trkpt lat="48.04818" lon="-3.01959">
        <ele>158.27416</ele>
        <time>2009-03-01T16:18:39Z</time>
      </trkpt>
      <trkpt lat="48.04815" lon="-3.01983">
        <ele>159.23547</ele>
        <time>2009-03-01T16:18:45Z</time>
      </trkpt>
      <trkpt lat="48.0481" lon="-3.02005">
        <ele>159.23547</ele>
        <time>2009-03-01T16:18:51Z</time>
      </trkpt>
      <trkpt lat="48.04798" lon="-3.02028">
        <ele>161.1582</ele>
        <time>2009-03-01T16:18:59Z</time>
      </trkpt>
      <trkpt lat="48.04784" lon="-3.02056">
        <ele>162.60009</ele>
        <time>2009-03-01T16:19:09Z</time>
      </trkpt>
      <trkpt lat="48.04776" lon="-3.02082">
        <ele>163.56152</ele>
        <time>2009-03-01T16:19:16Z</time>
      </trkpt>
      <trkpt lat="48.04788" lon="-3.02096">
        <ele>163.08081</ele>
        <time>2009-03-01T16:19:22Z</time>
      </trkpt>
      <trkpt lat="48.04793" lon="-3.02114">
        <ele>162.1195</ele>
        <time>2009-03-01T16:19:27Z</time>
      </trkpt>
      <trkpt lat="48.04795" lon="-3.02156">
        <ele>161.1582</ele>
        <time>2009-03-01T16:19:39Z</time>
      </trkpt>
      <trkpt lat="48.04796" lon="-3.02171">
        <ele>161.63891</ele>
        <time>2009-03-01T16:19:43Z</time>
      </trkpt>
      <trkpt lat="48.04802" lon="-3.02196">
        <ele>161.63891</ele>
        <time>2009-03-01T16:19:50Z</time>
      </trkpt>
      <trkpt lat="48.04813" lon="-3.02228">
        <ele>162.1195</ele>
        <time>2009-03-01T16:19:59Z</time>
      </trkpt>
      <trkpt lat="48.04816" lon="-3.02243">
        <ele>163.08081</ele>
        <time>2009-03-01T16:20:04Z</time>
      </trkpt>
      <trkpt lat="48.04816" lon="-3.02245">
        <ele>163.56152</ele>
        <time>2009-03-01T16:20:04Z</time>
      </trkpt>
      <trkpt lat="48.04815" lon="-3.02249">
        <ele>165.48413</ele>
        <time>2009-03-01T16:20:05Z</time>
      </trkpt>
      <trkpt lat="48.0481" lon="-3.02254">
        <ele>166.44531</ele>
        <time>2009-03-01T16:20:08Z</time>
      </trkpt>
      <trkpt lat="48.04807" lon="-3.02257">
        <ele>166.92602</ele>
        <time>2009-03-01T16:20:09Z</time>
      </trkpt>
      <trkpt lat="48.04795" lon="-3.02262">
        <ele>168.36804</ele>
        <time>2009-03-01T16:20:14Z</time>
      </trkpt>
      <trkpt lat="48.04792" lon="-3.02264">
        <ele>169.32946</ele>
        <time>2009-03-01T16:20:16Z</time>
      </trkpt>
      <trkpt lat="48.04784" lon="-3.02272">
        <ele>169.81005</ele>
        <time>2009-03-01T16:20:19Z</time>
      </trkpt>
      <trkpt lat="48.04781" lon="-3.02279">
        <ele>169.81005</ele>
        <time>2009-03-01T16:20:22Z</time>
      </trkpt>
      <trkpt lat="48.04776" lon="-3.02294">
        <ele>169.81005</ele>
        <time>2009-03-01T16:20:26Z</time>
      </trkpt>
      <trkpt lat="48.04774" lon="-3.02305">
        <ele>169.81005</ele>
        <time>2009-03-01T16:20:29Z</time>
      </trkpt>
      <trkpt lat="48.04771" lon="-3.02321">
        <ele>170.29064</ele>
        <time>2009-03-01T16:20:34Z</time>
      </trkpt>
      <trkpt lat="48.04764" lon="-3.02343">
        <ele>170.29064</ele>
        <time>2009-03-01T16:20:40Z</time>
      </trkpt>
      <trkpt lat="48.04752" lon="-3.02365">
        <ele>170.77136</ele>
        <time>2009-03-01T16:20:48Z</time>
      </trkpt>
      <trkpt lat="48.04744" lon="-3.02383">
        <ele>171.25207</ele>
        <time>2009-03-01T16:20:54Z</time>
      </trkpt>
      <trkpt lat="48.04739" lon="-3.02395">
        <ele>170.77136</ele>
        <time>2009-03-01T16:20:57Z</time>
      </trkpt>
      <trkpt lat="48.04728" lon="-3.02408">
        <ele>170.77136</ele>
        <time>2009-03-01T16:21:03Z</time>
      </trkpt>
      <trkpt lat="48.04721" lon="-3.02408">
        <ele>171.73266</ele>
        <time>2009-03-01T16:21:06Z</time>
      </trkpt>
      <trkpt lat="48.0471" lon="-3.02416">
        <ele>172.69396</ele>
        <time>2009-03-01T16:21:10Z</time>
      </trkpt>
      <trkpt lat="48.04709" lon="-3.02419">
        <ele>173.65527</ele>
        <time>2009-03-01T16:21:11Z</time>
      </trkpt>
      <trkpt lat="48.04702" lon="-3.02446">
        <ele>175.09729</ele>
        <time>2009-03-01T16:21:19Z</time>
      </trkpt>
      <trkpt lat="48.04701" lon="-3.02449">
        <ele>175.57788</ele>
        <time>2009-03-01T16:21:20Z</time>
      </trkpt>
      <trkpt lat="48.04701" lon="-3.02461">
        <ele>175.57788</ele>
        <time>2009-03-01T16:21:23Z</time>
      </trkpt>
      <trkpt lat="48.04698" lon="-3.02476">
        <ele>177.9812</ele>
        <time>2009-03-01T16:21:27Z</time>
      </trkpt>
      <trkpt lat="48.04693" lon="-3.02484">
        <ele>178.94262</ele>
        <time>2009-03-01T16:21:30Z</time>
      </trkpt>
      <trkpt lat="48.04685" lon="-3.02503">
        <ele>179.42321</ele>
        <time>2009-03-01T16:21:36Z</time>
      </trkpt>
      <trkpt lat="48.04681" lon="-3.02514">
        <ele>179.9038</ele>
        <time>2009-03-01T16:21:40Z</time>
      </trkpt>
      <trkpt lat="48.04672" lon="-3.0254">
        <ele>180.38452</ele>
        <time>2009-03-01T16:21:47Z</time>
      </trkpt>
      <trkpt lat="48.0467" lon="-3.0255">
        <ele>179.9038</ele>
        <time>2009-03-01T16:21:50Z</time>
      </trkpt>
      <trkpt lat="48.04661" lon="-3.02554">
        <ele>179.9038</ele>
        <time>2009-03-01T16:21:54Z</time>
      </trkpt>
      <trkpt lat="48.04646" lon="-3.02548">
        <ele>181.82641</ele>
        <time>2009-03-01T16:22:00Z</time>
      </trkpt>
      <trkpt lat="48.04637" lon="-3.02554">
        <ele>182.78784</ele>
        <time>2009-03-01T16:22:04Z</time>
      </trkpt>
      <trkpt lat="48.04634" lon="-3.02571">
        <ele>183.26843</ele>
        <time>2009-03-01T16:22:09Z</time>
      </trkpt>
      <trkpt lat="48.04631" lon="-3.02615">
        <ele>183.74902</ele>
        <time>2009-03-01T16:22:21Z</time>
      </trkpt>
      <trkpt lat="48.04632" lon="-3.0265">
        <ele>183.74902</ele>
        <time>2009-03-01T16:22:30Z</time>
      </trkpt>
      <trkpt lat="48.04633" lon="-3.02663">
        <ele>183.74902</ele>
        <time>2009-03-01T16:22:33Z</time>
      </trkpt>
      <trkpt lat="48.04647" lon="-3.02702">
        <ele>181.82641</ele>
        <time>2009-03-01T16:22:45Z</time>
      </trkpt>
      <trkpt lat="48.04659" lon="-3.0271">
        <ele>178.94262</ele>
        <time>2009-03-01T16:22:51Z</time>
      </trkpt>
      <trkpt lat="48.04669" lon="-3.02703">
        <ele>177.50061</ele>
        <time>2009-03-01T16:22:55Z</time>
      </trkpt>
      <trkpt lat="48.04691" lon="-3.02676">
        <ele>175.09729</ele>
        <time>2009-03-01T16:23:06Z</time>
      </trkpt>
      <trkpt lat="48.04721" lon="-3.02636">
        <ele>174.61657</ele>
        <time>2009-03-01T16:23:22Z</time>
      </trkpt>
      <trkpt lat="48.0473" lon="-3.02625">
        <ele>175.09729</ele>
        <time>2009-03-01T16:23:27Z</time>
      </trkpt>
      <trkpt lat="48.04763" lon="-3.02587">
        <ele>177.50061</ele>
        <time>2009-03-01T16:23:44Z</time>
      </trkpt>
      <trkpt lat="48.04779" lon="-3.02566">
        <ele>177.9812</ele>
        <time>2009-03-01T16:23:52Z</time>
      </trkpt>
      <trkpt lat="48.04797" lon="-3.02558">
        <ele>179.42321</ele>
        <time>2009-03-01T16:24:00Z</time>
      </trkpt>
      <trkpt lat="48.04802" lon="-3.02557">
        <ele>179.42321</ele>
        <time>2009-03-01T16:24:02Z</time>
      </trkpt>
      <trkpt lat="48.04823" lon="-3.02567">
        <ele>180.86523</ele>
        <time>2009-03-01T16:24:11Z</time>
      </trkpt>
      <trkpt lat="48.04835" lon="-3.02574">
        <ele>181.34582</ele>
        <time>2009-03-01T16:24:16Z</time>
      </trkpt>
      <trkpt lat="48.04876" lon="-3.02587">
        <ele>182.78784</ele>
        <time>2009-03-01T16:24:33Z</time>
      </trkpt>
      <trkpt lat="48.04898" lon="-3.02604">
        <ele>182.30712</ele>
        <time>2009-03-01T16:24:43Z</time>
      </trkpt>
      <trkpt lat="48.04916" lon="-3.02633">
        <ele>181.34582</ele>
        <time>2009-03-01T16:24:53Z</time>
      </trkpt>
      <trkpt lat="48.0492" lon="-3.02657">
        <ele>180.38452</ele>
        <time>2009-03-01T16:25:00Z</time>
      </trkpt>
      <trkpt lat="48.04927" lon="-3.02692">
        <ele>180.38452</ele>
        <time>2009-03-01T16:25:09Z</time>
      </trkpt>
      <trkpt lat="48.04939" lon="-3.02712">
        <ele>180.86523</ele>
        <time>2009-03-01T16:25:17Z</time>
      </trkpt>
      <trkpt lat="48.04965" lon="-3.02749">
        <ele>179.42321</ele>
        <time>2009-03-01T16:25:31Z</time>
      </trkpt>
      <trkpt lat="48.04985" lon="-3.02786">
        <ele>179.42321</ele>
        <time>2009-03-01T16:25:44Z</time>
      </trkpt>
      <trkpt lat="48.04988" lon="-3.02794">
        <ele>178.94262</ele>
        <time>2009-03-01T16:25:46Z</time>
      </trkpt>
      <trkpt lat="48.05" lon="-3.02817">
        <ele>177.02001</ele>
        <time>2009-03-01T16:25:54Z</time>
      </trkpt>
      <trkpt lat="48.0501" lon="-3.02833">
        <ele>176.05859</ele>
        <time>2009-03-01T16:26:00Z</time>
      </trkpt>
      <trkpt lat="48.05016" lon="-3.0284">
        <ele>175.09729</ele>
        <time>2009-03-01T16:26:03Z</time>
      </trkpt>
      <trkpt lat="48.05033" lon="-3.02851">
        <ele>173.65527</ele>
        <time>2009-03-01T16:26:11Z</time>
      </trkpt>
      <trkpt lat="48.05054" lon="-3.02846">
        <ele>171.25207</ele>
        <time>2009-03-01T16:26:19Z</time>
      </trkpt>
      <trkpt lat="48.05076" lon="-3.02852">
        <ele>168.36804</ele>
        <time>2009-03-01T16:26:28Z</time>
      </trkpt>
      <trkpt lat="48.05083" lon="-3.02858">
        <ele>167.88732</ele>
        <time>2009-03-01T16:26:31Z</time>
      </trkpt>
      <trkpt lat="48.05102" lon="-3.029">
        <ele>165.00341</ele>
        <time>2009-03-01T16:26:45Z</time>
      </trkpt>
      <trkpt lat="48.05103" lon="-3.02918">
        <ele>164.5227</ele>
        <time>2009-03-01T16:26:50Z</time>
      </trkpt>
      <trkpt lat="48.05107" lon="-3.02937">
        <ele>164.5227</ele>
        <time>2009-03-01T16:26:55Z</time>
      </trkpt>
      <trkpt lat="48.05116" lon="-3.02963">
        <ele>163.08081</ele>
        <time>2009-03-01T16:27:03Z</time>
      </trkpt>
      <trkpt lat="48.05116" lon="-3.02977">
        <ele>164.5227</ele>
        <time>2009-03-01T16:27:06Z</time>
      </trkpt>
      <trkpt lat="48.05114" lon="-3.02982">
        <ele>164.5227</ele>
        <time>2009-03-01T16:27:08Z</time>
      </trkpt>
      <trkpt lat="48.05112" lon="-3.02994">
        <ele>166.92602</ele>
        <time>2009-03-01T16:27:11Z</time>
      </trkpt>
      <trkpt lat="48.05108" lon="-3.03008">
        <ele>168.84875</ele>
        <time>2009-03-01T16:27:15Z</time>
      </trkpt>
      <trkpt lat="48.05103" lon="-3.03025">
        <ele>171.73266</ele>
        <time>2009-03-01T16:27:20Z</time>
      </trkpt>
      <trkpt lat="48.05098" lon="-3.03038">
        <ele>173.17468</ele>
        <time>2009-03-01T16:27:24Z</time>
      </trkpt>
      <trkpt lat="48.05096" lon="-3.03041">
        <ele>173.17468</ele>
        <time>2009-03-01T16:27:26Z</time>
      </trkpt>
      <trkpt lat="48.05093" lon="-3.03046">
        <ele>173.17468</ele>
        <time>2009-03-01T16:27:27Z</time>
      </trkpt>
      <trkpt lat="48.05083" lon="-3.03053">
        <ele>176.05859</ele>
        <time>2009-03-01T16:27:32Z</time>
      </trkpt>
      <trkpt lat="48.05075" lon="-3.0306">
        <ele>176.5393</ele>
        <time>2009-03-01T16:27:35Z</time>
      </trkpt>
      <trkpt lat="48.0507" lon="-3.03064">
        <ele>178.46191</ele>
        <time>2009-03-01T16:27:38Z</time>
      </trkpt>
      <trkpt lat="48.05069" lon="-3.03065">
        <ele>178.46191</ele>
        <time>2009-03-01T16:27:38Z</time>
      </trkpt>
      <trkpt lat="48.05068" lon="-3.03066">
        <ele>177.9812</ele>
        <time>2009-03-01T16:27:38Z</time>
      </trkpt>
      <trkpt lat="48.05065" lon="-3.03068">
        <ele>178.94262</ele>
        <time>2009-03-01T16:27:40Z</time>
      </trkpt>
      <trkpt lat="48.05064" lon="-3.03071">
        <ele>179.42321</ele>
        <time>2009-03-01T16:27:41Z</time>
      </trkpt>
      <trkpt lat="48.05053" lon="-3.03083">
        <ele>180.38452</ele>
        <time>2009-03-01T16:27:46Z</time>
      </trkpt>
      <trkpt lat="48.05048" lon="-3.03085">
        <ele>180.86523</ele>
        <time>2009-03-01T16:27:48Z</time>
      </trkpt>
      <trkpt lat="48.0504" lon="-3.03095">
        <ele>182.30712</ele>
        <time>2009-03-01T16:27:52Z</time>
      </trkpt>
      <trkpt lat="48.05034" lon="-3.03098">
        <ele>182.78784</ele>
        <time>2009-03-01T16:27:55Z</time>
      </trkpt>
      <trkpt lat="48.05028" lon="-3.03108">
        <ele>184.71057</ele>
        <time>2009-03-01T16:27:58Z</time>
      </trkpt>
      <trkpt lat="48.05021" lon="-3.03118">
        <ele>185.67175</ele>
        <time>2009-03-01T16:28:02Z</time>
      </trkpt>
      <trkpt lat="48.05018" lon="-3.03132">
        <ele>186.15246</ele>
        <time>2009-03-01T16:28:06Z</time>
      </trkpt>
      <trkpt lat="48.05018" lon="-3.03135">
        <ele>187.11376</ele>
        <time>2009-03-01T16:28:07Z</time>
      </trkpt>
      <trkpt lat="48.05016" lon="-3.03156">
        <ele>188.07507</ele>
        <time>2009-03-01T16:28:13Z</time>
      </trkpt>
      <trkpt lat="48.05024" lon="-3.03165">
        <ele>188.07507</ele>
        <time>2009-03-01T16:28:17Z</time>
      </trkpt>
      <trkpt lat="48.05038" lon="-3.03167">
        <ele>187.11376</ele>
        <time>2009-03-01T16:28:22Z</time>
      </trkpt>
      <trkpt lat="48.05049" lon="-3.03179">
        <ele>187.59436</ele>
        <time>2009-03-01T16:28:28Z</time>
      </trkpt>
      <trkpt lat="48.05058" lon="-3.03185">
        <ele>187.11376</ele>
        <time>2009-03-01T16:28:32Z</time>
      </trkpt>
      <trkpt lat="48.05067" lon="-3.03194">
        <ele>186.63317</ele>
        <time>2009-03-01T16:28:36Z</time>
      </trkpt>
      <trkpt lat="48.05082" lon="-3.03205">
        <ele>187.11376</ele>
        <time>2009-03-01T16:28:43Z</time>
      </trkpt>
      <trkpt lat="48.05085" lon="-3.03207">
        <ele>186.15246</ele>
        <time>2009-03-01T16:28:44Z</time>
      </trkpt>
      <trkpt lat="48.05101" lon="-3.03204">
        <ele>184.22985</ele>
        <time>2009-03-01T16:28:50Z</time>
      </trkpt>
      <trkpt lat="48.05106" lon="-3.03205">
        <ele>183.74902</ele>
        <time>2009-03-01T16:28:52Z</time>
      </trkpt>
      <trkpt lat="48.0512" lon="-3.03212">
        <ele>181.34582</ele>
        <time>2009-03-01T16:28:58Z</time>
      </trkpt>
      <trkpt lat="48.05144" lon="-3.03213">
        <ele>178.94262</ele>
        <time>2009-03-01T16:29:08Z</time>
      </trkpt>
      <trkpt lat="48.05154" lon="-3.03213">
        <ele>177.9812</ele>
        <time>2009-03-01T16:29:12Z</time>
      </trkpt>
      <trkpt lat="48.0516" lon="-3.03219">
        <ele>178.46191</ele>
        <time>2009-03-01T16:29:15Z</time>
      </trkpt>
      <trkpt lat="48.05164" lon="-3.03227">
        <ele>180.38452</ele>
        <time>2009-03-01T16:29:18Z</time>
      </trkpt>
      <trkpt lat="48.05173" lon="-3.03246">
        <ele>182.78784</ele>
        <time>2009-03-01T16:29:24Z</time>
      </trkpt>
      <trkpt lat="48.05176" lon="-3.03252">
        <ele>183.26843</ele>
        <time>2009-03-01T16:29:26Z</time>
      </trkpt>
      <trkpt lat="48.0518" lon="-3.03268">
        <ele>185.19116</ele>
        <time>2009-03-01T16:29:30Z</time>
      </trkpt>
      <trkpt lat="48.05185" lon="-3.03285">
        <ele>186.63317</ele>
        <time>2009-03-01T16:29:35Z</time>
      </trkpt>
      <trkpt lat="48.05186" lon="-3.03298">
        <ele>187.11376</ele>
        <time>2009-03-01T16:29:39Z</time>
      </trkpt>
      <trkpt lat="48.05184" lon="-3.0331">
        <ele>188.55578</ele>
        <time>2009-03-01T16:29:42Z</time>
      </trkpt>
      <trkpt lat="48.05176" lon="-3.03322">
        <ele>190.95898</ele>
        <time>2009-03-01T16:29:47Z</time>
      </trkpt>
      <trkpt lat="48.05167" lon="-3.03329">
        <ele>191.43957</ele>
        <time>2009-03-01T16:29:51Z</time>
      </trkpt>
      <trkpt lat="48.05158" lon="-3.03335">
        <ele>191.92028</ele>
        <time>2009-03-01T16:29:55Z</time>
      </trkpt>
      <trkpt lat="48.05154" lon="-3.03339">
        <ele>192.40112</ele>
        <time>2009-03-01T16:29:57Z</time>
      </trkpt>
      <trkpt lat="48.0515" lon="-3.0334">
        <ele>192.40112</ele>
        <time>2009-03-01T16:29:58Z</time>
      </trkpt>
      <trkpt lat="48.05138" lon="-3.03342">
        <ele>192.88171</ele>
        <time>2009-03-01T16:30:03Z</time>
      </trkpt>
      <trkpt lat="48.05136" lon="-3.03344">
        <ele>192.88171</ele>
        <time>2009-03-01T16:30:04Z</time>
      </trkpt>
      <trkpt lat="48.05126" lon="-3.03356">
        <ele>192.88171</ele>
        <time>2009-03-01T16:30:09Z</time>
      </trkpt>
      <trkpt lat="48.05114" lon="-3.03362">
        <ele>192.88171</ele>
        <time>2009-03-01T16:30:14Z</time>
      </trkpt>
      <trkpt lat="48.05109" lon="-3.03368">
        <ele>192.88171</ele>
        <time>2009-03-01T16:30:17Z</time>
      </trkpt>
      <trkpt lat="48.05101" lon="-3.0338">
        <ele>192.88171</ele>
        <time>2009-03-01T16:30:21Z</time>
      </trkpt>
      <trkpt lat="48.05087" lon="-3.03402">
        <ele>192.40112</ele>
        <time>2009-03-01T16:30:29Z</time>
      </trkpt>
      <trkpt lat="48.05084" lon="-3.03407">
        <ele>192.40112</ele>
        <time>2009-03-01T16:30:31Z</time>
      </trkpt>
      <trkpt lat="48.05081" lon="-3.03419">
        <ele>191.43957</ele>
        <time>2009-03-01T16:30:35Z</time>
      </trkpt>
      <trkpt lat="48.05083" lon="-3.03427">
        <ele>189.51696</ele>
        <time>2009-03-01T16:30:37Z</time>
      </trkpt>
      <trkpt lat="48.05098" lon="-3.0344">
        <ele>188.55578</ele>
        <time>2009-03-01T16:30:44Z</time>
      </trkpt>
      <trkpt lat="48.05102" lon="-3.03461">
        <ele>187.11376</ele>
        <time>2009-03-01T16:30:50Z</time>
      </trkpt>
      <trkpt lat="48.05108" lon="-3.03473">
        <ele>185.19116</ele>
        <time>2009-03-01T16:30:54Z</time>
      </trkpt>
      <trkpt lat="48.05112" lon="-3.03488">
        <ele>184.22985</ele>
        <time>2009-03-01T16:30:58Z</time>
      </trkpt>
      <trkpt lat="48.05119" lon="-3.03505">
        <ele>180.86523</ele>
        <time>2009-03-01T16:31:03Z</time>
      </trkpt>
      <trkpt lat="48.05127" lon="-3.03498">
        <ele>180.86523</ele>
        <time>2009-03-01T16:31:07Z</time>
      </trkpt>
      <trkpt lat="48.05135" lon="-3.03488">
        <ele>182.30712</ele>
        <time>2009-03-01T16:31:11Z</time>
      </trkpt>
      <trkpt lat="48.05154" lon="-3.0348">
        <ele>181.82641</ele>
        <time>2009-03-01T16:31:19Z</time>
      </trkpt>
      <trkpt lat="48.05162" lon="-3.03479">
        <ele>180.38452</ele>
        <time>2009-03-01T16:31:22Z</time>
      </trkpt>
      <trkpt lat="48.0518" lon="-3.03468">
        <ele>180.38452</ele>
        <time>2009-03-01T16:31:30Z</time>
      </trkpt>
      <trkpt lat="48.05186" lon="-3.03462">
        <ele>178.94262</ele>
        <time>2009-03-01T16:31:33Z</time>
      </trkpt>
      <trkpt lat="48.05193" lon="-3.03457">
        <ele>178.94262</ele>
        <time>2009-03-01T16:31:36Z</time>
      </trkpt>
      <trkpt lat="48.05216" lon="-3.03449">
        <ele>175.09729</ele>
        <time>2009-03-01T16:31:46Z</time>
      </trkpt>
      <trkpt lat="48.05234" lon="-3.03428">
        <ele>173.17468</ele>
        <time>2009-03-01T16:31:55Z</time>
      </trkpt>
      <trkpt lat="48.05245" lon="-3.03408">
        <ele>172.21325</ele>
        <time>2009-03-01T16:32:02Z</time>
      </trkpt>
      <trkpt lat="48.05251" lon="-3.03383">
        <ele>173.65527</ele>
        <time>2009-03-01T16:32:09Z</time>
      </trkpt>
      <trkpt lat="48.05244" lon="-3.03368">
        <ele>175.57788</ele>
        <time>2009-03-01T16:32:14Z</time>
      </trkpt>
      <trkpt lat="48.05238" lon="-3.03354">
        <ele>177.02001</ele>
        <time>2009-03-01T16:32:18Z</time>
      </trkpt>
      <trkpt lat="48.05231" lon="-3.03343">
        <ele>178.46191</ele>
        <time>2009-03-01T16:32:22Z</time>
      </trkpt>
      <trkpt lat="48.05227" lon="-3.03337">
        <ele>179.9038</ele>
        <time>2009-03-01T16:32:24Z</time>
      </trkpt>
      <trkpt lat="48.0522" lon="-3.03323">
        <ele>182.30712</ele>
        <time>2009-03-01T16:32:29Z</time>
      </trkpt>
      <trkpt lat="48.05215" lon="-3.03301">
        <ele>184.22985</ele>
        <time>2009-03-01T16:32:35Z</time>
      </trkpt>
      <trkpt lat="48.05213" lon="-3.03293">
        <ele>184.22985</ele>
        <time>2009-03-01T16:32:38Z</time>
      </trkpt>
      <trkpt lat="48.05221" lon="-3.03288">
        <ele>184.22985</ele>
        <time>2009-03-01T16:32:41Z</time>
      </trkpt>
      <trkpt lat="48.05226" lon="-3.0329">
        <ele>184.22985</ele>
        <time>2009-03-01T16:32:43Z</time>
      </trkpt>
      <trkpt lat="48.05241" lon="-3.03299">
        <ele>183.74902</ele>
        <time>2009-03-01T16:32:50Z</time>
      </trkpt>
      <trkpt lat="48.05246" lon="-3.03302">
        <ele>183.74902</ele>
        <time>2009-03-01T16:32:52Z</time>
      </trkpt>
      <trkpt lat="48.0525" lon="-3.03302">
        <ele>183.26843</ele>
        <time>2009-03-01T16:32:53Z</time>
      </trkpt>
      <trkpt lat="48.05261" lon="-3.03312">
        <ele>182.78784</ele>
        <time>2009-03-01T16:32:59Z</time>
      </trkpt>
      <trkpt lat="48.05262" lon="-3.03314">
        <ele>182.30712</ele>
        <time>2009-03-01T16:32:59Z</time>
      </trkpt>
      <trkpt lat="48.05262" lon="-3.03315">
        <ele>182.30712</ele>
        <time>2009-03-01T16:32:59Z</time>
      </trkpt>
      <trkpt lat="48.05264" lon="-3.03317">
        <ele>182.30712</ele>
        <time>2009-03-01T16:33:00Z</time>
      </trkpt>
      <trkpt lat="48.05271" lon="-3.03317">
        <ele>181.82641</ele>
        <time>2009-03-01T16:33:03Z</time>
      </trkpt>
      <trkpt lat="48.05272" lon="-3.03316">
        <ele>181.82641</ele>
        <time>2009-03-01T16:33:04Z</time>
      </trkpt>
      <trkpt lat="48.05283" lon="-3.0332">
        <ele>182.30712</ele>
        <time>2009-03-01T16:33:08Z</time>
      </trkpt>
      <trkpt lat="48.05288" lon="-3.03317">
        <ele>182.78784</ele>
        <time>2009-03-01T16:33:10Z</time>
      </trkpt>
      <trkpt lat="48.05302" lon="-3.03304">
        <ele>183.74902</ele>
        <time>2009-03-01T16:33:17Z</time>
      </trkpt>
      <trkpt lat="48.05311" lon="-3.03296">
        <ele>184.71057</ele>
        <time>2009-03-01T16:33:21Z</time>
      </trkpt>
      <trkpt lat="48.05333" lon="-3.0328">
        <ele>185.67175</ele>
        <time>2009-03-01T16:33:31Z</time>
      </trkpt>
      <trkpt lat="48.0535" lon="-3.03284">
        <ele>185.19116</ele>
        <time>2009-03-01T16:33:38Z</time>
      </trkpt>
      <trkpt lat="48.0536" lon="-3.03303">
        <ele>183.26843</ele>
        <time>2009-03-01T16:33:44Z</time>
      </trkpt>
      <trkpt lat="48.05372" lon="-3.03322">
        <ele>179.42321</ele>
        <time>2009-03-01T16:33:51Z</time>
      </trkpt>
      <trkpt lat="48.05391" lon="-3.03324">
        <ele>177.50061</ele>
        <time>2009-03-01T16:33:59Z</time>
      </trkpt>
      <trkpt lat="48.05395" lon="-3.03325">
        <ele>177.02001</ele>
        <time>2009-03-01T16:34:01Z</time>
      </trkpt>
      <trkpt lat="48.05404" lon="-3.03325">
        <ele>174.13586</ele>
        <time>2009-03-01T16:34:04Z</time>
      </trkpt>
      <trkpt lat="48.05414" lon="-3.03303">
        <ele>171.25207</ele>
        <time>2009-03-01T16:34:11Z</time>
      </trkpt>
      <trkpt lat="48.05421" lon="-3.03272">
        <ele>166.92602</ele>
        <time>2009-03-01T16:34:20Z</time>
      </trkpt>
      <trkpt lat="48.05422" lon="-3.03265">
        <ele>166.44531</ele>
        <time>2009-03-01T16:34:22Z</time>
      </trkpt>
      <trkpt lat="48.05423" lon="-3.03239">
        <ele>163.08081</ele>
        <time>2009-03-01T16:34:29Z</time>
      </trkpt>
      <trkpt lat="48.05412" lon="-3.03195">
        <ele>163.56152</ele>
        <time>2009-03-01T16:34:41Z</time>
      </trkpt>
      <trkpt lat="48.05399" lon="-3.03168">
        <ele>163.08081</ele>
        <time>2009-03-01T16:34:50Z</time>
      </trkpt>
      <trkpt lat="48.05396" lon="-3.03162">
        <ele>163.08081</ele>
        <time>2009-03-01T16:34:52Z</time>
      </trkpt>
      <trkpt lat="48.05389" lon="-3.03151">
        <ele>163.56152</ele>
        <time>2009-03-01T16:34:56Z</time>
      </trkpt>
      <trkpt lat="48.05375" lon="-3.03113">
        <ele>163.08081</ele>
        <time>2009-03-01T16:35:08Z</time>
      </trkpt>
      <trkpt lat="48.05365" lon="-3.03079">
        <ele>162.60009</ele>
        <time>2009-03-01T16:35:18Z</time>
      </trkpt>
      <trkpt lat="48.05361" lon="-3.03066">
        <ele>162.60009</ele>
        <time>2009-03-01T16:35:22Z</time>
      </trkpt>
      <trkpt lat="48.0535" lon="-3.03044">
        <ele>162.1195</ele>
        <time>2009-03-01T16:35:29Z</time>
      </trkpt>
      <trkpt lat="48.05342" lon="-3.03038">
        <ele>162.1195</ele>
        <time>2009-03-01T16:35:32Z</time>
      </trkpt>
      <trkpt lat="48.05335" lon="-3.0303">
        <ele>162.1195</ele>
        <time>2009-03-01T16:35:36Z</time>
      </trkpt>
      <trkpt lat="48.05327" lon="-3.03004">
        <ele>161.63891</ele>
        <time>2009-03-01T16:35:44Z</time>
      </trkpt>
      <trkpt lat="48.05336" lon="-3.02988">
        <ele>161.1582</ele>
        <time>2009-03-01T16:35:50Z</time>
      </trkpt>
      <trkpt lat="48.05353" lon="-3.0296">
        <ele>161.63891</ele>
        <time>2009-03-01T16:36:00Z</time>
      </trkpt>
      <trkpt lat="48.05355" lon="-3.02951">
        <ele>161.63891</ele>
        <time>2009-03-01T16:36:02Z</time>
      </trkpt>
      <trkpt lat="48.05343" lon="-3.02945">
        <ele>160.67749</ele>
        <time>2009-03-01T16:36:07Z</time>
      </trkpt>
      <trkpt lat="48.05323" lon="-3.02938">
        <ele>161.63891</ele>
        <time>2009-03-01T16:36:15Z</time>
      </trkpt>
      <trkpt lat="48.05304" lon="-3.02931">
        <ele>162.60009</ele>
        <time>2009-03-01T16:36:23Z</time>
      </trkpt>
      <trkpt lat="48.05289" lon="-3.02929">
        <ele>163.08081</ele>
        <time>2009-03-01T16:36:29Z</time>
      </trkpt>
      <trkpt lat="48.05269" lon="-3.02929">
        <ele>162.60009</ele>
        <time>2009-03-01T16:36:37Z</time>
      </trkpt>
      <trkpt lat="48.0526" lon="-3.02925">
        <ele>162.1195</ele>
        <time>2009-03-01T16:36:41Z</time>
      </trkpt>
      <trkpt lat="48.05247" lon="-3.02911">
        <ele>163.08081</ele>
        <time>2009-03-01T16:36:47Z</time>
      </trkpt>
      <trkpt lat="48.05238" lon="-3.02898">
        <ele>162.1195</ele>
        <time>2009-03-01T16:36:52Z</time>
      </trkpt>
      <trkpt lat="48.05227" lon="-3.02881">
        <ele>162.1195</ele>
        <time>2009-03-01T16:36:59Z</time>
      </trkpt>
      <trkpt lat="48.05211" lon="-3.02861">
        <ele>163.56152</ele>
        <time>2009-03-01T16:37:07Z</time>
      </trkpt>
      <trkpt lat="48.05199" lon="-3.02846">
        <ele>161.63891</ele>
        <time>2009-03-01T16:37:13Z</time>
      </trkpt>
      <trkpt lat="48.05178" lon="-3.02813">
        <ele>160.67749</ele>
        <time>2009-03-01T16:37:25Z</time>
      </trkpt>
      <trkpt lat="48.05175" lon="-3.02808">
        <ele>160.67749</ele>
        <time>2009-03-01T16:37:28Z</time>
      </trkpt>
      <trkpt lat="48.05166" lon="-3.02775">
        <ele>161.1582</ele>
        <time>2009-03-01T16:37:37Z</time>
      </trkpt>
      <trkpt lat="48.05154" lon="-3.02761">
        <ele>160.67749</ele>
        <time>2009-03-01T16:37:43Z</time>
      </trkpt>
      <trkpt lat="48.05141" lon="-3.02755">
        <ele>160.67749</ele>
        <time>2009-03-01T16:37:48Z</time>
      </trkpt>
      <trkpt lat="48.05124" lon="-3.02739">
        <ele>162.1195</ele>
        <time>2009-03-01T16:37:57Z</time>
      </trkpt>
      <trkpt lat="48.05111" lon="-3.02719">
        <ele>162.1195</ele>
        <time>2009-03-01T16:38:04Z</time>
      </trkpt>
      <trkpt lat="48.05101" lon="-3.02699">
        <ele>162.60009</ele>
        <time>2009-03-01T16:38:11Z</time>
      </trkpt>
      <trkpt lat="48.0509" lon="-3.02678">
        <ele>163.08081</ele>
        <time>2009-03-01T16:38:18Z</time>
      </trkpt>
      <trkpt lat="48.05084" lon="-3.02661">
        <ele>163.56152</ele>
        <time>2009-03-01T16:38:23Z</time>
      </trkpt>
      <trkpt lat="48.05078" lon="-3.02649">
        <ele>164.04211</ele>
        <time>2009-03-01T16:38:27Z</time>
      </trkpt>
      <trkpt lat="48.0507" lon="-3.02635">
        <ele>163.08081</ele>
        <time>2009-03-01T16:38:32Z</time>
      </trkpt>
      <trkpt lat="48.05064" lon="-3.02626">
        <ele>163.08081</ele>
        <time>2009-03-01T16:38:35Z</time>
      </trkpt>
      <trkpt lat="48.05055" lon="-3.02601">
        <ele>162.1195</ele>
        <time>2009-03-01T16:38:43Z</time>
      </trkpt>
      <trkpt lat="48.05048" lon="-3.02569">
        <ele>161.63891</ele>
        <time>2009-03-01T16:38:52Z</time>
      </trkpt>
      <trkpt lat="48.05043" lon="-3.02553">
        <ele>161.1582</ele>
        <time>2009-03-01T16:38:57Z</time>
      </trkpt>
      <trkpt lat="48.05031" lon="-3.02507">
        <ele>160.19689</ele>
        <time>2009-03-01T16:39:10Z</time>
      </trkpt>
      <trkpt lat="48.05027" lon="-3.02496">
        <ele>160.19689</ele>
        <time>2009-03-01T16:39:13Z</time>
      </trkpt>
      <trkpt lat="48.05015" lon="-3.0246">
        <ele>159.71618</ele>
        <time>2009-03-01T16:39:24Z</time>
      </trkpt>
      <trkpt lat="48.05013" lon="-3.02446">
        <ele>159.23547</ele>
        <time>2009-03-01T16:39:28Z</time>
      </trkpt>
      <trkpt lat="48.05009" lon="-3.02421">
        <ele>159.71618</ele>
        <time>2009-03-01T16:39:35Z</time>
      </trkpt>
      <trkpt lat="48.05007" lon="-3.02386">
        <ele>160.67749</ele>
        <time>2009-03-01T16:39:44Z</time>
      </trkpt>
      <trkpt lat="48.05006" lon="-3.02382">
        <ele>160.19689</ele>
        <time>2009-03-01T16:39:45Z</time>
      </trkpt>
      <trkpt lat="48.04994" lon="-3.02358">
        <ele>160.19689</ele>
        <time>2009-03-01T16:39:53Z</time>
      </trkpt>
      <trkpt lat="48.04988" lon="-3.02332">
        <ele>162.60009</ele>
        <time>2009-03-01T16:40:01Z</time>
      </trkpt>
      <trkpt lat="48.04988" lon="-3.02317">
        <ele>162.60009</ele>
        <time>2009-03-01T16:40:05Z</time>
      </trkpt>
      <trkpt lat="48.0499" lon="-3.02314">
        <ele>164.04211</ele>
        <time>2009-03-01T16:40:06Z</time>
      </trkpt>
      <trkpt lat="48.04997" lon="-3.02314">
        <ele>165.48413</ele>
        <time>2009-03-01T16:40:09Z</time>
      </trkpt>
      <trkpt lat="48.05009" lon="-3.02315">
        <ele>167.40673</ele>
        <time>2009-03-01T16:40:13Z</time>
      </trkpt>
      <trkpt lat="48.05015" lon="-3.02314">
        <ele>168.36804</ele>
        <time>2009-03-01T16:40:16Z</time>
      </trkpt>
      <trkpt lat="48.05021" lon="-3.02305">
        <ele>169.81005</ele>
        <time>2009-03-01T16:40:19Z</time>
      </trkpt>
      <trkpt lat="48.0503" lon="-3.02303">
        <ele>171.73266</ele>
        <time>2009-03-01T16:40:23Z</time>
      </trkpt>
      <trkpt lat="48.05037" lon="-3.02286">
        <ele>172.69396</ele>
        <time>2009-03-01T16:40:28Z</time>
      </trkpt>
      <trkpt lat="48.05046" lon="-3.02267">
        <ele>173.65527</ele>
        <time>2009-03-01T16:40:34Z</time>
      </trkpt>
      <trkpt lat="48.05054" lon="-3.02258">
        <ele>175.57788</ele>
        <time>2009-03-01T16:40:38Z</time>
      </trkpt>
      <trkpt lat="48.05064" lon="-3.02253">
        <ele>176.05859</ele>
        <time>2009-03-01T16:40:42Z</time>
      </trkpt>
      <trkpt lat="48.05077" lon="-3.02243">
        <ele>177.50061</ele>
        <time>2009-03-01T16:40:48Z</time>
      </trkpt>
      <trkpt lat="48.05087" lon="-3.0223">
        <ele>178.46191</ele>
        <time>2009-03-01T16:40:54Z</time>
      </trkpt>
      <trkpt lat="48.05097" lon="-3.02215">
        <ele>178.94262</ele>
        <time>2009-03-01T16:40:59Z</time>
      </trkpt>
      <trkpt lat="48.05107" lon="-3.02209">
        <ele>179.42321</ele>
        <time>2009-03-01T16:41:03Z</time>
      </trkpt>
      <trkpt lat="48.05122" lon="-3.02207">
        <ele>180.86523</ele>
        <time>2009-03-01T16:41:10Z</time>
      </trkpt>
      <trkpt lat="48.05136" lon="-3.02206">
        <ele>181.34582</ele>
        <time>2009-03-01T16:41:15Z</time>
      </trkpt>
      <trkpt lat="48.05149" lon="-3.02208">
        <ele>183.26843</ele>
        <time>2009-03-01T16:41:21Z</time>
      </trkpt>
      <trkpt lat="48.05168" lon="-3.02212">
        <ele>184.22985</ele>
        <time>2009-03-01T16:41:28Z</time>
      </trkpt>
      <trkpt lat="48.05183" lon="-3.02227">
        <ele>184.22985</ele>
        <time>2009-03-01T16:41:35Z</time>
      </trkpt>
      <trkpt lat="48.05198" lon="-3.02238">
        <ele>184.22985</ele>
        <time>2009-03-01T16:41:42Z</time>
      </trkpt>
      <trkpt lat="48.05215" lon="-3.02237">
        <ele>184.71057</ele>
        <time>2009-03-01T16:41:49Z</time>
      </trkpt>
      <trkpt lat="48.05231" lon="-3.02209">
        <ele>184.71057</ele>
        <time>2009-03-01T16:41:59Z</time>
      </trkpt>
      <trkpt lat="48.05237" lon="-3.022">
        <ele>183.74902</ele>
        <time>2009-03-01T16:42:02Z</time>
      </trkpt>
      <trkpt lat="48.05262" lon="-3.0216">
        <ele>182.30712</ele>
        <time>2009-03-01T16:42:17Z</time>
      </trkpt>
      <trkpt lat="48.05276" lon="-3.02137">
        <ele>178.46191</ele>
        <time>2009-03-01T16:42:25Z</time>
      </trkpt>
      <trkpt lat="48.05282" lon="-3.0213">
        <ele>177.02001</ele>
        <time>2009-03-01T16:42:28Z</time>
      </trkpt>
      <trkpt lat="48.05318" lon="-3.02103">
        <ele>176.5393</ele>
        <time>2009-03-01T16:42:44Z</time>
      </trkpt>
      <trkpt lat="48.05333" lon="-3.02094">
        <ele>175.57788</ele>
        <time>2009-03-01T16:42:51Z</time>
      </trkpt>
      <trkpt lat="48.0537" lon="-3.02073">
        <ele>173.65527</ele>
        <time>2009-03-01T16:43:07Z</time>
      </trkpt>
      <trkpt lat="48.05408" lon="-3.02045">
        <ele>172.21325</ele>
        <time>2009-03-01T16:43:23Z</time>
      </trkpt>
      <trkpt lat="48.05423" lon="-3.02028">
        <ele>170.77136</ele>
        <time>2009-03-01T16:43:31Z</time>
      </trkpt>
      <trkpt lat="48.05435" lon="-3.02007">
        <ele>169.81005</ele>
        <time>2009-03-01T16:43:39Z</time>
      </trkpt>
      <trkpt lat="48.05452" lon="-3.01986">
        <ele>169.81005</ele>
        <time>2009-03-01T16:43:47Z</time>
      </trkpt>
      <trkpt lat="48.0547" lon="-3.01987">
        <ele>170.77136</ele>
        <time>2009-03-01T16:43:54Z</time>
      </trkpt>
      <trkpt lat="48.05492" lon="-3.01996">
        <ele>172.69396</ele>
        <time>2009-03-01T16:44:04Z</time>
      </trkpt>
      <trkpt lat="48.0551" lon="-3.01989">
        <ele>174.13586</ele>
        <time>2009-03-01T16:44:11Z</time>
      </trkpt>
      <trkpt lat="48.05519" lon="-3.01971">
        <ele>176.05859</ele>
        <time>2009-03-01T16:44:17Z</time>
      </trkpt>
      <trkpt lat="48.05528" lon="-3.01927">
        <ele>177.02001</ele>
        <time>2009-03-01T16:44:29Z</time>
      </trkpt>
      <trkpt lat="48.05532" lon="-3.01895">
        <ele>178.94262</ele>
        <time>2009-03-01T16:44:38Z</time>
      </trkpt>
      <trkpt lat="48.05521" lon="-3.01876">
        <ele>177.9812</ele>
        <time>2009-03-01T16:44:45Z</time>
      </trkpt>
      <trkpt lat="48.05512" lon="-3.01869">
        <ele>177.9812</ele>
        <time>2009-03-01T16:44:49Z</time>
      </trkpt>
      <trkpt lat="48.05498" lon="-3.01853">
        <ele>176.5393</ele>
        <time>2009-03-01T16:44:56Z</time>
      </trkpt>
      <trkpt lat="48.05469" lon="-3.01845">
        <ele>173.65527</ele>
        <time>2009-03-01T16:45:08Z</time>
      </trkpt>
      <trkpt lat="48.05461" lon="-3.01849">
        <ele>173.65527</ele>
        <time>2009-03-01T16:45:11Z</time>
      </trkpt>
      <trkpt lat="48.05419" lon="-3.01884">
        <ele>169.32946</ele>
        <time>2009-03-01T16:45:31Z</time>
      </trkpt>
      <trkpt lat="48.05388" lon="-3.01901">
        <ele>168.36804</ele>
        <time>2009-03-01T16:45:44Z</time>
      </trkpt>
      <trkpt lat="48.05354" lon="-3.01912">
        <ele>168.84875</ele>
        <time>2009-03-01T16:45:57Z</time>
      </trkpt>
      <trkpt lat="48.05342" lon="-3.01916">
        <ele>168.36804</ele>
        <time>2009-03-01T16:46:03Z</time>
      </trkpt>
      <trkpt lat="48.05319" lon="-3.01937">
        <ele>168.36804</ele>
        <time>2009-03-01T16:46:13Z</time>
      </trkpt>
      <trkpt lat="48.05287" lon="-3.01977">
        <ele>167.88732</ele>
        <time>2009-03-01T16:46:30Z</time>
      </trkpt>
      <trkpt lat="48.05269" lon="-3.0199">
        <ele>169.32946</ele>
        <time>2009-03-01T16:46:38Z</time>
      </trkpt>
      <trkpt lat="48.05265" lon="-3.01993">
        <ele>169.32946</ele>
        <time>2009-03-01T16:46:40Z</time>
      </trkpt>
      <trkpt lat="48.05257" lon="-3.01997">
        <ele>169.81005</ele>
        <time>2009-03-01T16:46:43Z</time>
      </trkpt>
      <trkpt lat="48.05231" lon="-3.02">
        <ele>170.29064</ele>
        <time>2009-03-01T16:46:54Z</time>
      </trkpt>
      <trkpt lat="48.05218" lon="-3.02001">
        <ele>170.29064</ele>
        <time>2009-03-01T16:46:59Z</time>
      </trkpt>
      <trkpt lat="48.05202" lon="-3.02005">
        <ele>167.88732</ele>
        <time>2009-03-01T16:47:05Z</time>
      </trkpt>
      <trkpt lat="48.05194" lon="-3.02007">
        <ele>167.88732</ele>
        <time>2009-03-01T16:47:09Z</time>
      </trkpt>
      <trkpt lat="48.05177" lon="-3.0201">
        <ele>167.40673</ele>
        <time>2009-03-01T16:47:16Z</time>
      </trkpt>
      <trkpt lat="48.05154" lon="-3.02013">
        <ele>164.5227</ele>
        <time>2009-03-01T16:47:25Z</time>
      </trkpt>
      <trkpt lat="48.05149" lon="-3.02015">
        <ele>164.04211</ele>
        <time>2009-03-01T16:47:27Z</time>
      </trkpt>
      <trkpt lat="48.05139" lon="-3.02019">
        <ele>163.56152</ele>
        <time>2009-03-01T16:47:31Z</time>
      </trkpt>
      <trkpt lat="48.05122" lon="-3.02028">
        <ele>162.1195</ele>
        <time>2009-03-01T16:47:38Z</time>
      </trkpt>
      <trkpt lat="48.05104" lon="-3.02039">
        <ele>161.63891</ele>
        <time>2009-03-01T16:47:46Z</time>
      </trkpt>
      <trkpt lat="48.05078" lon="-3.02048">
        <ele>162.1195</ele>
        <time>2009-03-01T16:47:57Z</time>
      </trkpt>
      <trkpt lat="48.05057" lon="-3.02047">
        <ele>162.60009</ele>
        <time>2009-03-01T16:48:05Z</time>
      </trkpt>
      <trkpt lat="48.05039" lon="-3.02042">
        <ele>163.08081</ele>
        <time>2009-03-01T16:48:12Z</time>
      </trkpt>
      <trkpt lat="48.05018" lon="-3.02038">
        <ele>163.08081</ele>
        <time>2009-03-01T16:48:21Z</time>
      </trkpt>
      <trkpt lat="48.05001" lon="-3.02036">
        <ele>163.08081</ele>
        <time>2009-03-01T16:48:28Z</time>
      </trkpt>
      <trkpt lat="48.04978" lon="-3.02033">
        <ele>162.60009</ele>
        <time>2009-03-01T16:48:37Z</time>
      </trkpt>
      <trkpt lat="48.04973" lon="-3.02032">
        <ele>162.1195</ele>
        <time>2009-03-01T16:48:39Z</time>
      </trkpt>
      <trkpt lat="48.04962" lon="-3.02032">
        <ele>162.1195</ele>
        <time>2009-03-01T16:48:43Z</time>
      </trkpt>
      <trkpt lat="48.0495" lon="-3.02029">
        <ele>161.63891</ele>
        <time>2009-03-01T16:48:48Z</time>
      </trkpt>
      <trkpt lat="48.04928" lon="-3.0203">
        <ele>160.67749</ele>
        <time>2009-03-01T16:48:57Z</time>
      </trkpt>
      <trkpt lat="48.0491" lon="-3.02029">
        <ele>159.71618</ele>
        <time>2009-03-01T16:49:04Z</time>
      </trkpt>
      <trkpt lat="48.04897" lon="-3.02026">
        <ele>159.23547</ele>
        <time>2009-03-01T16:49:10Z</time>
      </trkpt>
      <trkpt lat="48.04868" lon="-3.02008">
        <ele>157.31286</ele>
        <time>2009-03-01T16:49:22Z</time>
      </trkpt>
      <trkpt lat="48.04863" lon="-3.01982">
        <ele>156.35156</ele>
        <time>2009-03-01T16:49:30Z</time>
      </trkpt>
      <trkpt lat="48.04863" lon="-3.01954">
        <ele>155.87097</ele>
        <time>2009-03-01T16:49:37Z</time>
      </trkpt>
      <trkpt lat="48.04863" lon="-3.01913">
        <ele>155.39025</ele>
        <time>2009-03-01T16:49:48Z</time>
      </trkpt>
      <trkpt lat="48.0486" lon="-3.01881">
        <ele>155.39025</ele>
        <time>2009-03-01T16:49:57Z</time>
      </trkpt>
      <trkpt lat="48.04862" lon="-3.01835">
        <ele>154.42895</ele>
        <time>2009-03-01T16:50:09Z</time>
      </trkpt>
      <trkpt lat="48.04867" lon="-3.01804">
        <ele>154.90954</ele>
        <time>2009-03-01T16:50:18Z</time>
      </trkpt>
      <trkpt lat="48.04864" lon="-3.01788">
        <ele>154.90954</ele>
        <time>2009-03-01T16:50:22Z</time>
      </trkpt>
      <trkpt lat="48.0486" lon="-3.01778">
        <ele>154.42895</ele>
        <time>2009-03-01T16:50:25Z</time>
      </trkpt>
      <trkpt lat="48.04853" lon="-3.01765">
        <ele>154.42895</ele>
        <time>2009-03-01T16:50:30Z</time>
      </trkpt>
      <trkpt lat="48.04845" lon="-3.0174">
        <ele>153.94836</ele>
        <time>2009-03-01T16:50:37Z</time>
      </trkpt>
      <trkpt lat="48.04836" lon="-3.01716">
        <ele>153.46765</ele>
        <time>2009-03-01T16:50:44Z</time>
      </trkpt>
      <trkpt lat="48.04817" lon="-3.01686">
        <ele>152.50634</ele>
        <time>2009-03-01T16:50:55Z</time>
      </trkpt>
      <trkpt lat="48.0481" lon="-3.01676">
        <ele>152.50634</ele>
        <time>2009-03-01T16:50:59Z</time>
      </trkpt>
      <trkpt lat="48.04807" lon="-3.01668">
        <ele>152.50634</ele>
        <time>2009-03-01T16:51:02Z</time>
      </trkpt>
      <trkpt lat="48.048" lon="-3.01655">
        <ele>153.46765</ele>
        <time>2009-03-01T16:51:06Z</time>
      </trkpt>
      <trkpt lat="48.04792" lon="-3.01638">
        <ele>153.94836</ele>
        <time>2009-03-01T16:51:12Z</time>
      </trkpt>
      <trkpt lat="48.04789" lon="-3.01621">
        <ele>153.94836</ele>
        <time>2009-03-01T16:51:16Z</time>
      </trkpt>
      <trkpt lat="48.04784" lon="-3.01608">
        <ele>155.87097</ele>
        <time>2009-03-01T16:51:20Z</time>
      </trkpt>
      <trkpt lat="48.04784" lon="-3.01591">
        <ele>156.35156</ele>
        <time>2009-03-01T16:51:25Z</time>
      </trkpt>
      <trkpt lat="48.04789" lon="-3.01575">
        <ele>158.75476</ele>
        <time>2009-03-01T16:51:29Z</time>
      </trkpt>
      <trkpt lat="48.04792" lon="-3.01567">
        <ele>159.23547</ele>
        <time>2009-03-01T16:51:32Z</time>
      </trkpt>
      <trkpt lat="48.04798" lon="-3.01548">
        <ele>161.63891</ele>
        <time>2009-03-01T16:51:37Z</time>
      </trkpt>
      <trkpt lat="48.04804" lon="-3.01538">
        <ele>163.08081</ele>
        <time>2009-03-01T16:51:41Z</time>
      </trkpt>
      <trkpt lat="48.04807" lon="-3.01532">
        <ele>164.04211</ele>
        <time>2009-03-01T16:51:43Z</time>
      </trkpt>
      <trkpt lat="48.04819" lon="-3.01525">
        <ele>165.96472</ele>
        <time>2009-03-01T16:51:48Z</time>
      </trkpt>
      <trkpt lat="48.04825" lon="-3.01517">
        <ele>167.40673</ele>
        <time>2009-03-01T16:51:52Z</time>
      </trkpt>
      <trkpt lat="48.04822" lon="-3.01508">
        <ele>167.40673</ele>
        <time>2009-03-01T16:51:54Z</time>
      </trkpt>
      <trkpt lat="48.04813" lon="-3.01501">
        <ele>167.88732</ele>
        <time>2009-03-01T16:51:58Z</time>
      </trkpt>
      <trkpt lat="48.04796" lon="-3.01498">
        <ele>167.88732</ele>
        <time>2009-03-01T16:52:05Z</time>
      </trkpt>
      <trkpt lat="48.04786" lon="-3.01498">
        <ele>169.32946</ele>
        <time>2009-03-01T16:52:09Z</time>
      </trkpt>
      <trkpt lat="48.04771" lon="-3.01497">
        <ele>169.81005</ele>
        <time>2009-03-01T16:52:15Z</time>
      </trkpt>
      <trkpt lat="48.04756" lon="-3.01496">
        <ele>170.77136</ele>
        <time>2009-03-01T16:52:21Z</time>
      </trkpt>
      <trkpt lat="48.04734" lon="-3.01496">
        <ele>171.73266</ele>
        <time>2009-03-01T16:52:30Z</time>
      </trkpt>
      <trkpt lat="48.04723" lon="-3.01489">
        <ele>172.69396</ele>
        <time>2009-03-01T16:52:35Z</time>
      </trkpt>
      <trkpt lat="48.04701" lon="-3.01464">
        <ele>170.77136</ele>
        <time>2009-03-01T16:52:46Z</time>
      </trkpt>
      <trkpt lat="48.04699" lon="-3.0146">
        <ele>170.77136</ele>
        <time>2009-03-01T16:52:47Z</time>
      </trkpt>
      <trkpt lat="48.04698" lon="-3.01459">
        <ele>171.25207</ele>
        <time>2009-03-01T16:52:48Z</time>
      </trkpt>
      <trkpt lat="48.04694" lon="-3.01457">
        <ele>170.77136</ele>
        <time>2009-03-01T16:52:49Z</time>
      </trkpt>
      <trkpt lat="48.04693" lon="-3.01458">
        <ele>170.77136</ele>
        <time>2009-03-01T16:52:50Z</time>
      </trkpt>
      <trkpt lat="48.04701" lon="-3.01463">
        <ele>170.29064</ele>
        <time>2009-03-01T16:52:53Z</time>
      </trkpt>
      <trkpt lat="48.047" lon="-3.01462">
        <ele>170.77136</ele>
        <time>2009-03-01T16:52:54Z</time>
      </trkpt>
      <trkpt lat="48.047" lon="-3.01457">
        <ele>170.77136</ele>
        <time>2009-03-01T16:52:55Z</time>
      </trkpt>
      <trkpt lat="48.04699" lon="-3.01455">
        <ele>170.77136</ele>
        <time>2009-03-01T16:52:56Z</time>
      </trkpt>
      <trkpt lat="48.04701" lon="-3.01453">
        <ele>170.77136</ele>
        <time>2009-03-01T16:52:57Z</time>
      </trkpt>
      <trkpt lat="48.04705" lon="-3.01438">
        <ele>171.73266</ele>
        <time>2009-03-01T16:53:01Z</time>
      </trkpt>
      <trkpt lat="48.04705" lon="-3.01435">
        <ele>171.73266</ele>
        <time>2009-03-01T16:53:02Z</time>
      </trkpt>
      <trkpt lat="48.04704" lon="-3.01414">
        <ele>171.25207</ele>
        <time>2009-03-01T16:53:07Z</time>
      </trkpt>
      <trkpt lat="48.04707" lon="-3.01383">
        <ele>171.25207</ele>
        <time>2009-03-01T16:53:16Z</time>
      </trkpt>
      <trkpt lat="48.04708" lon="-3.01368">
        <ele>171.73266</ele>
        <time>2009-03-01T16:53:20Z</time>
      </trkpt>
      <trkpt lat="48.04714" lon="-3.01362">
        <ele>170.77136</ele>
        <time>2009-03-01T16:53:23Z</time>
      </trkpt>
      <trkpt lat="48.04717" lon="-3.01374">
        <ele>171.25207</ele>
        <time>2009-03-01T16:53:26Z</time>
      </trkpt>
      <trkpt lat="48.04718" lon="-3.0138">
        <ele>171.73266</ele>
        <time>2009-03-01T16:53:28Z</time>
      </trkpt>
      <trkpt lat="48.04729" lon="-3.01404">
        <ele>174.13586</ele>
        <time>2009-03-01T16:53:36Z</time>
      </trkpt>
      <trkpt lat="48.04742" lon="-3.01423">
        <ele>175.09729</ele>
        <time>2009-03-01T16:53:43Z</time>
      </trkpt>
      <trkpt lat="48.04764" lon="-3.01437">
        <ele>175.57788</ele>
        <time>2009-03-01T16:53:53Z</time>
      </trkpt>
      <trkpt lat="48.04779" lon="-3.01435">
        <ele>176.05859</ele>
        <time>2009-03-01T16:53:58Z</time>
      </trkpt>
      <trkpt lat="48.04795" lon="-3.01428">
        <ele>176.5393</ele>
        <time>2009-03-01T16:54:05Z</time>
      </trkpt>
      <trkpt lat="48.04813" lon="-3.01421">
        <ele>176.5393</ele>
        <time>2009-03-01T16:54:13Z</time>
      </trkpt>
      <trkpt lat="48.04835" lon="-3.01412">
        <ele>177.50061</ele>
        <time>2009-03-01T16:54:22Z</time>
      </trkpt>
      <trkpt lat="48.04851" lon="-3.01402">
        <ele>177.9812</ele>
        <time>2009-03-01T16:54:29Z</time>
      </trkpt>
      <trkpt lat="48.04859" lon="-3.01395">
        <ele>177.9812</ele>
        <time>2009-03-01T16:54:33Z</time>
      </trkpt>
      <trkpt lat="48.0487" lon="-3.01399">
        <ele>177.9812</ele>
        <time>2009-03-01T16:54:37Z</time>
      </trkpt>
      <trkpt lat="48.04883" lon="-3.01394">
        <ele>178.46191</ele>
        <time>2009-03-01T16:54:43Z</time>
      </trkpt>
      <trkpt lat="48.04901" lon="-3.0138">
        <ele>178.94262</ele>
        <time>2009-03-01T16:54:50Z</time>
      </trkpt>
      <trkpt lat="48.04913" lon="-3.0136">
        <ele>179.9038</ele>
        <time>2009-03-01T16:54:58Z</time>
      </trkpt>
      <trkpt lat="48.04923" lon="-3.01343">
        <ele>180.38452</ele>
        <time>2009-03-01T16:55:04Z</time>
      </trkpt>
      <trkpt lat="48.04936" lon="-3.01327">
        <ele>181.34582</ele>
        <time>2009-03-01T16:55:10Z</time>
      </trkpt>
      <trkpt lat="48.04946" lon="-3.01328">
        <ele>181.82641</ele>
        <time>2009-03-01T16:55:15Z</time>
      </trkpt>
      <trkpt lat="48.04963" lon="-3.01338">
        <ele>181.82641</ele>
        <time>2009-03-01T16:55:22Z</time>
      </trkpt>
      <trkpt lat="48.04978" lon="-3.01347">
        <ele>181.82641</ele>
        <time>2009-03-01T16:55:28Z</time>
      </trkpt>
      <trkpt lat="48.04995" lon="-3.01351">
        <ele>182.30712</ele>
        <time>2009-03-01T16:55:35Z</time>
      </trkpt>
      <trkpt lat="48.05012" lon="-3.01354">
        <ele>183.74902</ele>
        <time>2009-03-01T16:55:42Z</time>
      </trkpt>
      <trkpt lat="48.05025" lon="-3.01357">
        <ele>183.74902</ele>
        <time>2009-03-01T16:55:47Z</time>
      </trkpt>
      <trkpt lat="48.05039" lon="-3.01368">
        <ele>184.22985</ele>
        <time>2009-03-01T16:55:54Z</time>
      </trkpt>
      <trkpt lat="48.05053" lon="-3.01385">
        <ele>184.22985</ele>
        <time>2009-03-01T16:56:01Z</time>
      </trkpt>
      <trkpt lat="48.05062" lon="-3.01393">
        <ele>184.22985</ele>
        <time>2009-03-01T16:56:05Z</time>
      </trkpt>
      <trkpt lat="48.05065" lon="-3.01397">
        <ele>184.22985</ele>
        <time>2009-03-01T16:56:07Z</time>
      </trkpt>
      <trkpt lat="48.05083" lon="-3.01417">
        <ele>183.74902</ele>
        <time>2009-03-01T16:56:16Z</time>
      </trkpt>
      <trkpt lat="48.05096" lon="-3.01428">
        <ele>184.71057</ele>
        <time>2009-03-01T16:56:22Z</time>
      </trkpt>
      <trkpt lat="48.05113" lon="-3.01448">
        <ele>183.74902</ele>
        <time>2009-03-01T16:56:30Z</time>
      </trkpt>
      <trkpt lat="48.05131" lon="-3.0146">
        <ele>183.74902</ele>
        <time>2009-03-01T16:56:38Z</time>
      </trkpt>
      <trkpt lat="48.05135" lon="-3.01462">
        <ele>183.74902</ele>
        <time>2009-03-01T16:56:40Z</time>
      </trkpt>
      <trkpt lat="48.05152" lon="-3.01477">
        <ele>183.74902</ele>
        <time>2009-03-01T16:56:48Z</time>
      </trkpt>
      <trkpt lat="48.05179" lon="-3.01497">
        <ele>184.71057</ele>
        <time>2009-03-01T16:57:00Z</time>
      </trkpt>
      <trkpt lat="48.05209" lon="-3.01517">
        <ele>186.15246</ele>
        <time>2009-03-01T16:57:13Z</time>
      </trkpt>
      <trkpt lat="48.05247" lon="-3.01545">
        <ele>187.11376</ele>
        <time>2009-03-01T16:57:30Z</time>
      </trkpt>
      <trkpt lat="48.05276" lon="-3.01569">
        <ele>187.59436</ele>
        <time>2009-03-01T16:57:43Z</time>
      </trkpt>
      <trkpt lat="48.05308" lon="-3.01597">
        <ele>187.59436</ele>
        <time>2009-03-01T16:57:58Z</time>
      </trkpt>
      <trkpt lat="48.05344" lon="-3.01616">
        <ele>188.55578</ele>
        <time>2009-03-01T16:58:13Z</time>
      </trkpt>
      <trkpt lat="48.0538" lon="-3.01626">
        <ele>188.07507</ele>
        <time>2009-03-01T16:58:28Z</time>
      </trkpt>
      <trkpt lat="48.0539" lon="-3.01626">
        <ele>188.07507</ele>
        <time>2009-03-01T16:58:32Z</time>
      </trkpt>
      <trkpt lat="48.05429" lon="-3.01614">
        <ele>185.67175</ele>
        <time>2009-03-01T16:58:48Z</time>
      </trkpt>
      <trkpt lat="48.05447" lon="-3.01607">
        <ele>185.19116</ele>
        <time>2009-03-01T16:58:55Z</time>
      </trkpt>
      <trkpt lat="48.05467" lon="-3.01606">
        <ele>183.74902</ele>
        <time>2009-03-01T16:59:03Z</time>
      </trkpt>
      <trkpt lat="48.05487" lon="-3.01614">
        <ele>181.82641</ele>
        <time>2009-03-01T16:59:11Z</time>
      </trkpt>
      <trkpt lat="48.055" lon="-3.01622">
        <ele>180.86523</ele>
        <time>2009-03-01T16:59:17Z</time>
      </trkpt>
      <trkpt lat="48.05543" lon="-3.01646">
        <ele>179.42321</ele>
        <time>2009-03-01T16:59:36Z</time>
      </trkpt>
      <trkpt lat="48.05568" lon="-3.01641">
        <ele>178.94262</ele>
        <time>2009-03-01T16:59:45Z</time>
      </trkpt>
      <trkpt lat="48.05591" lon="-3.01641">
        <ele>179.9038</ele>
        <time>2009-03-01T16:59:55Z</time>
      </trkpt>
      <trkpt lat="48.05599" lon="-3.01644">
        <ele>180.38452</ele>
        <time>2009-03-01T16:59:58Z</time>
      </trkpt>
      <trkpt lat="48.05638" lon="-3.01666">
        <ele>180.38452</ele>
        <time>2009-03-01T17:00:15Z</time>
      </trkpt>
      <trkpt lat="48.05662" lon="-3.01679">
        <ele>181.34582</ele>
        <time>2009-03-01T17:00:25Z</time>
      </trkpt>
      <trkpt lat="48.05686" lon="-3.01696">
        <ele>182.30712</ele>
        <time>2009-03-01T17:00:36Z</time>
      </trkpt>
      <trkpt lat="48.05712" lon="-3.01711">
        <ele>183.26843</ele>
        <time>2009-03-01T17:00:47Z</time>
      </trkpt>
      <trkpt lat="48.0574" lon="-3.01717">
        <ele>184.22985</ele>
        <time>2009-03-01T17:00:58Z</time>
      </trkpt>
      <trkpt lat="48.05767" lon="-3.01725">
        <ele>184.71057</ele>
        <time>2009-03-01T17:01:09Z</time>
      </trkpt>
      <trkpt lat="48.0579" lon="-3.01736">
        <ele>186.15246</ele>
        <time>2009-03-01T17:01:19Z</time>
      </trkpt>
      <trkpt lat="48.05814" lon="-3.01747">
        <ele>186.63317</ele>
        <time>2009-03-01T17:01:29Z</time>
      </trkpt>
      <trkpt lat="48.05827" lon="-3.01751">
        <ele>187.11376</ele>
        <time>2009-03-01T17:01:34Z</time>
      </trkpt>
      <trkpt lat="48.05847" lon="-3.01757">
        <ele>187.11376</ele>
        <time>2009-03-01T17:01:42Z</time>
      </trkpt>
      <trkpt lat="48.05872" lon="-3.01766">
        <ele>187.11376</ele>
        <time>2009-03-01T17:01:52Z</time>
      </trkpt>
      <trkpt lat="48.05892" lon="-3.01774">
        <ele>188.07507</ele>
        <time>2009-03-01T17:02:01Z</time>
      </trkpt>
      <trkpt lat="48.05903" lon="-3.01776">
        <ele>187.59436</ele>
        <time>2009-03-01T17:02:05Z</time>
      </trkpt>
      <trkpt lat="48.0592" lon="-3.01765">
        <ele>187.11376</ele>
        <time>2009-03-01T17:02:13Z</time>
      </trkpt>
      <trkpt lat="48.0595" lon="-3.01727">
        <ele>183.74902</ele>
        <time>2009-03-01T17:02:28Z</time>
      </trkpt>
      <trkpt lat="48.05984" lon="-3.01672">
        <ele>180.38452</ele>
        <time>2009-03-01T17:02:49Z</time>
      </trkpt>
      <trkpt lat="48.05989" lon="-3.01664">
        <ele>180.38452</ele>
        <time>2009-03-01T17:02:51Z</time>
      </trkpt>
      <trkpt lat="48.05993" lon="-3.01657">
        <ele>179.9038</ele>
        <time>2009-03-01T17:02:54Z</time>
      </trkpt>
      <trkpt lat="48.0601" lon="-3.01643">
        <ele>181.34582</ele>
        <time>2009-03-01T17:03:02Z</time>
      </trkpt>
      <trkpt lat="48.06019" lon="-3.01646">
        <ele>181.82641</ele>
        <time>2009-03-01T17:03:05Z</time>
      </trkpt>
      <trkpt lat="48.06039" lon="-3.01658">
        <ele>182.30712</ele>
        <time>2009-03-01T17:03:14Z</time>
      </trkpt>
      <trkpt lat="48.06067" lon="-3.01694">
        <ele>181.82641</ele>
        <time>2009-03-01T17:03:29Z</time>
      </trkpt>
      <trkpt lat="48.06094" lon="-3.01743">
        <ele>179.9038</ele>
        <time>2009-03-01T17:03:46Z</time>
      </trkpt>
      <trkpt lat="48.06118" lon="-3.01788">
        <ele>179.42321</ele>
        <time>2009-03-01T17:04:01Z</time>
      </trkpt>
      <trkpt lat="48.06132" lon="-3.01812">
        <ele>180.38452</ele>
        <time>2009-03-01T17:04:10Z</time>
      </trkpt>
      <trkpt lat="48.06147" lon="-3.01821">
        <ele>180.38452</ele>
        <time>2009-03-01T17:04:16Z</time>
      </trkpt>
      <trkpt lat="48.06152" lon="-3.01804">
        <ele>179.9038</ele>
        <time>2009-03-01T17:04:22Z</time>
      </trkpt>
      <trkpt lat="48.06152" lon="-3.01796">
        <ele>179.9038</ele>
        <time>2009-03-01T17:04:24Z</time>
      </trkpt>
      <trkpt lat="48.0615" lon="-3.01731">
        <ele>179.9038</ele>
        <time>2009-03-01T17:04:41Z</time>
      </trkpt>
      <trkpt lat="48.06151" lon="-3.01715">
        <ele>179.42321</ele>
        <time>2009-03-01T17:04:45Z</time>
      </trkpt>
      <trkpt lat="48.06165" lon="-3.01666">
        <ele>179.9038</ele>
        <time>2009-03-01T17:05:00Z</time>
      </trkpt>
      <trkpt lat="48.06176" lon="-3.01653">
        <ele>179.9038</ele>
        <time>2009-03-01T17:05:05Z</time>
      </trkpt>
      <trkpt lat="48.06192" lon="-3.01625">
        <ele>179.9038</ele>
        <time>2009-03-01T17:05:15Z</time>
      </trkpt>
      <trkpt lat="48.062" lon="-3.01616">
        <ele>180.38452</ele>
        <time>2009-03-01T17:05:19Z</time>
      </trkpt>
      <trkpt lat="48.06205" lon="-3.01619">
        <ele>179.42321</ele>
        <time>2009-03-01T17:05:21Z</time>
      </trkpt>
      <trkpt lat="48.06226" lon="-3.01637">
        <ele>177.9812</ele>
        <time>2009-03-01T17:05:31Z</time>
      </trkpt>
      <trkpt lat="48.06229" lon="-3.01639">
        <ele>178.94262</ele>
        <time>2009-03-01T17:05:32Z</time>
      </trkpt>
      <trkpt lat="48.06223" lon="-3.01658">
        <ele>179.42321</ele>
        <time>2009-03-01T17:05:38Z</time>
      </trkpt>
      <trkpt lat="48.06218" lon="-3.01669">
        <ele>178.94262</ele>
        <time>2009-03-01T17:05:41Z</time>
      </trkpt>
      <trkpt lat="48.06206" lon="-3.01705">
        <ele>179.42321</ele>
        <time>2009-03-01T17:05:52Z</time>
      </trkpt>
      <trkpt lat="48.06209" lon="-3.01734">
        <ele>179.42321</ele>
        <time>2009-03-01T17:06:00Z</time>
      </trkpt>
      <trkpt lat="48.06219" lon="-3.01751">
        <ele>180.38452</ele>
        <time>2009-03-01T17:06:06Z</time>
      </trkpt>
      <trkpt lat="48.06224" lon="-3.01756">
        <ele>179.9038</ele>
        <time>2009-03-01T17:06:08Z</time>
      </trkpt>
      <trkpt lat="48.06232" lon="-3.01777">
        <ele>178.94262</ele>
        <time>2009-03-01T17:06:15Z</time>
      </trkpt>
      <trkpt lat="48.06241" lon="-3.01802">
        <ele>178.46191</ele>
        <time>2009-03-01T17:06:22Z</time>
      </trkpt>
      <trkpt lat="48.06255" lon="-3.01824">
        <ele>178.46191</ele>
        <time>2009-03-01T17:06:30Z</time>
      </trkpt>
      <trkpt lat="48.0627" lon="-3.01846">
        <ele>178.94262</ele>
        <time>2009-03-01T17:06:39Z</time>
      </trkpt>
      <trkpt lat="48.06279" lon="-3.01858">
        <ele>179.42321</ele>
        <time>2009-03-01T17:06:44Z</time>
      </trkpt>
      <trkpt lat="48.06292" lon="-3.0188">
        <ele>178.94262</ele>
        <time>2009-03-01T17:06:51Z</time>
      </trkpt>
      <trkpt lat="48.06308" lon="-3.01901">
        <ele>179.42321</ele>
        <time>2009-03-01T17:07:00Z</time>
      </trkpt>
      <trkpt lat="48.06318" lon="-3.01919">
        <ele>179.42321</ele>
        <time>2009-03-01T17:07:06Z</time>
      </trkpt>
      <trkpt lat="48.06328" lon="-3.01933">
        <ele>179.42321</ele>
        <time>2009-03-01T17:07:12Z</time>
      </trkpt>
      <trkpt lat="48.06346" lon="-3.01958">
        <ele>179.9038</ele>
        <time>2009-03-01T17:07:22Z</time>
      </trkpt>
      <trkpt lat="48.06364" lon="-3.01982">
        <ele>180.38452</ele>
        <time>2009-03-01T17:07:31Z</time>
      </trkpt>
      <trkpt lat="48.06384" lon="-3.02008">
        <ele>180.38452</ele>
        <time>2009-03-01T17:07:42Z</time>
      </trkpt>
      <trkpt lat="48.06405" lon="-3.02028">
        <ele>180.38452</ele>
        <time>2009-03-01T17:07:52Z</time>
      </trkpt>
      <trkpt lat="48.06423" lon="-3.02035">
        <ele>180.86523</ele>
        <time>2009-03-01T17:07:59Z</time>
      </trkpt>
      <trkpt lat="48.06426" lon="-3.02033">
        <ele>180.86523</ele>
        <time>2009-03-01T17:08:01Z</time>
      </trkpt>
      <trkpt lat="48.06449" lon="-3.02024">
        <ele>182.78784</ele>
        <time>2009-03-01T17:08:10Z</time>
      </trkpt>
      <trkpt lat="48.06475" lon="-3.02015">
        <ele>186.15246</ele>
        <time>2009-03-01T17:08:21Z</time>
      </trkpt>
      <trkpt lat="48.06489" lon="-3.02011">
        <ele>187.11376</ele>
        <time>2009-03-01T17:08:26Z</time>
      </trkpt>
      <trkpt lat="48.06529" lon="-3.01998">
        <ele>188.55578</ele>
        <time>2009-03-01T17:08:43Z</time>
      </trkpt>
      <trkpt lat="48.06548" lon="-3.01995">
        <ele>188.55578</ele>
        <time>2009-03-01T17:08:50Z</time>
      </trkpt>
      <trkpt lat="48.0657" lon="-3.01998">
        <ele>188.55578</ele>
        <time>2009-03-01T17:08:59Z</time>
      </trkpt>
      <trkpt lat="48.06601" lon="-3.02019">
        <ele>188.55578</ele>
        <time>2009-03-01T17:09:13Z</time>
      </trkpt>
      <trkpt lat="48.06642" lon="-3.02062">
        <ele>188.07507</ele>
        <time>2009-03-01T17:09:33Z</time>
      </trkpt>
      <trkpt lat="48.06696" lon="-3.02119">
        <ele>188.55578</ele>
        <time>2009-03-01T17:09:59Z</time>
      </trkpt>
      <trkpt lat="48.0674" lon="-3.02158">
        <ele>188.55578</ele>
        <time>2009-03-01T17:10:20Z</time>
      </trkpt>
      <trkpt lat="48.06773" lon="-3.02172">
        <ele>187.59436</ele>
        <time>2009-03-01T17:10:34Z</time>
      </trkpt>
      <trkpt lat="48.06806" lon="-3.02173">
        <ele>185.19116</ele>
        <time>2009-03-01T17:10:47Z</time>
      </trkpt>
      <trkpt lat="48.06819" lon="-3.02168">
        <ele>184.22985</ele>
        <time>2009-03-01T17:10:52Z</time>
      </trkpt>
      <trkpt lat="48.0684" lon="-3.02141">
        <ele>182.30712</ele>
        <time>2009-03-01T17:11:03Z</time>
      </trkpt>
      <trkpt lat="48.06843" lon="-3.02114">
        <ele>182.78784</ele>
        <time>2009-03-01T17:11:11Z</time>
      </trkpt>
      <trkpt lat="48.06836" lon="-3.02099">
        <ele>182.78784</ele>
        <time>2009-03-01T17:11:15Z</time>
      </trkpt>
      <trkpt lat="48.06806" lon="-3.02051">
        <ele>182.78784</ele>
        <time>2009-03-01T17:11:33Z</time>
      </trkpt>
      <trkpt lat="48.0679" lon="-3.02024">
        <ele>182.30712</ele>
        <time>2009-03-01T17:11:43Z</time>
      </trkpt>
      <trkpt lat="48.06779" lon="-3.01987">
        <ele>183.26843</ele>
        <time>2009-03-01T17:11:54Z</time>
      </trkpt>
      <trkpt lat="48.06779" lon="-3.01979">
        <ele>183.74902</ele>
        <time>2009-03-01T17:11:56Z</time>
      </trkpt>
      <trkpt lat="48.0677" lon="-3.01941">
        <ele>185.19116</ele>
        <time>2009-03-01T17:12:06Z</time>
      </trkpt>
      <trkpt lat="48.06755" lon="-3.01916">
        <ele>183.74902</ele>
        <time>2009-03-01T17:12:15Z</time>
      </trkpt>
      <trkpt lat="48.06741" lon="-3.01895">
        <ele>181.82641</ele>
        <time>2009-03-01T17:12:23Z</time>
      </trkpt>
      <trkpt lat="48.06731" lon="-3.01882">
        <ele>180.38452</ele>
        <time>2009-03-01T17:12:28Z</time>
      </trkpt>
      <trkpt lat="48.06729" lon="-3.01853">
        <ele>181.34582</ele>
        <time>2009-03-01T17:12:36Z</time>
      </trkpt>
      <trkpt lat="48.06732" lon="-3.01847">
        <ele>181.82641</ele>
        <time>2009-03-01T17:12:38Z</time>
      </trkpt>
      <trkpt lat="48.06767" lon="-3.01786">
        <ele>181.34582</ele>
        <time>2009-03-01T17:13:00Z</time>
      </trkpt>
      <trkpt lat="48.06779" lon="-3.01764">
        <ele>180.86523</ele>
        <time>2009-03-01T17:13:07Z</time>
      </trkpt>
      <trkpt lat="48.06784" lon="-3.0173">
        <ele>180.38452</ele>
        <time>2009-03-01T17:13:17Z</time>
      </trkpt>
      <trkpt lat="48.06773" lon="-3.01712">
        <ele>179.9038</ele>
        <time>2009-03-01T17:13:23Z</time>
      </trkpt>
      <trkpt lat="48.06755" lon="-3.01694">
        <ele>180.38452</ele>
        <time>2009-03-01T17:13:32Z</time>
      </trkpt>
      <trkpt lat="48.06739" lon="-3.01676">
        <ele>181.34582</ele>
        <time>2009-03-01T17:13:40Z</time>
      </trkpt>
      <trkpt lat="48.06719" lon="-3.01649">
        <ele>183.26843</ele>
        <time>2009-03-01T17:13:51Z</time>
      </trkpt>
      <trkpt lat="48.06713" lon="-3.01638">
        <ele>184.71057</ele>
        <time>2009-03-01T17:13:54Z</time>
      </trkpt>
      <trkpt lat="48.06709" lon="-3.01627">
        <ele>186.15246</ele>
        <time>2009-03-01T17:13:58Z</time>
      </trkpt>
      <trkpt lat="48.06703" lon="-3.01576">
        <ele>187.59436</ele>
        <time>2009-03-01T17:14:12Z</time>
      </trkpt>
      <trkpt lat="48.06702" lon="-3.01564">
        <ele>188.07507</ele>
        <time>2009-03-01T17:14:15Z</time>
      </trkpt>
      <trkpt lat="48.06698" lon="-3.0153">
        <ele>188.55578</ele>
        <time>2009-03-01T17:14:24Z</time>
      </trkpt>
      <trkpt lat="48.0669" lon="-3.01497">
        <ele>188.55578</ele>
        <time>2009-03-01T17:14:33Z</time>
      </trkpt>
      <trkpt lat="48.06679" lon="-3.01459">
        <ele>188.55578</ele>
        <time>2009-03-01T17:14:45Z</time>
      </trkpt>
      <trkpt lat="48.06675" lon="-3.01449">
        <ele>188.07507</ele>
        <time>2009-03-01T17:14:48Z</time>
      </trkpt>
      <trkpt lat="48.06655" lon="-3.01402">
        <ele>188.07507</ele>
        <time>2009-03-01T17:15:03Z</time>
      </trkpt>
      <trkpt lat="48.06629" lon="-3.01366">
        <ele>187.59436</ele>
        <time>2009-03-01T17:15:17Z</time>
      </trkpt>
      <trkpt lat="48.06601" lon="-3.01323">
        <ele>188.55578</ele>
        <time>2009-03-01T17:15:33Z</time>
      </trkpt>
      <trkpt lat="48.06579" lon="-3.01271">
        <ele>188.55578</ele>
        <time>2009-03-01T17:15:49Z</time>
      </trkpt>
      <trkpt lat="48.06565" lon="-3.01234">
        <ele>189.03637</ele>
        <time>2009-03-01T17:16:01Z</time>
      </trkpt>
      <trkpt lat="48.06548" lon="-3.01212">
        <ele>189.03637</ele>
        <time>2009-03-01T17:16:10Z</time>
      </trkpt>
      <trkpt lat="48.06538" lon="-3.01203">
        <ele>188.55578</ele>
        <time>2009-03-01T17:16:14Z</time>
      </trkpt>
      <trkpt lat="48.06514" lon="-3.01171">
        <ele>188.07507</ele>
        <time>2009-03-01T17:16:27Z</time>
      </trkpt>
      <trkpt lat="48.06491" lon="-3.01109">
        <ele>187.59436</ele>
        <time>2009-03-01T17:16:46Z</time>
      </trkpt>
      <trkpt lat="48.06472" lon="-3.01071">
        <ele>187.11376</ele>
        <time>2009-03-01T17:16:59Z</time>
      </trkpt>
      <trkpt lat="48.06468" lon="-3.01064">
        <ele>186.63317</ele>
        <time>2009-03-01T17:17:01Z</time>
      </trkpt>
      <trkpt lat="48.06431" lon="-3.01024">
        <ele>185.67175</ele>
        <time>2009-03-01T17:17:20Z</time>
      </trkpt>
      <trkpt lat="48.0641" lon="-3.01002">
        <ele>185.19116</ele>
        <time>2009-03-01T17:17:30Z</time>
      </trkpt>
      <trkpt lat="48.06406" lon="-3.00977">
        <ele>184.22985</ele>
        <time>2009-03-01T17:17:37Z</time>
      </trkpt>
      <trkpt lat="48.06409" lon="-3.00972">
        <ele>184.22985</ele>
        <time>2009-03-01T17:17:38Z</time>
      </trkpt>
      <trkpt lat="48.06435" lon="-3.00934">
        <ele>184.71057</ele>
        <time>2009-03-01T17:17:53Z</time>
      </trkpt>
      <trkpt lat="48.0644" lon="-3.00929">
        <ele>184.71057</ele>
        <time>2009-03-01T17:17:55Z</time>
      </trkpt>
      <trkpt lat="48.06466" lon="-3.00903">
        <ele>185.19116</ele>
        <time>2009-03-01T17:18:08Z</time>
      </trkpt>
      <trkpt lat="48.06517" lon="-3.00863">
        <ele>185.19116</ele>
        <time>2009-03-01T17:18:31Z</time>
      </trkpt>
      <trkpt lat="48.06574" lon="-3.00819">
        <ele>183.74902</ele>
        <time>2009-03-01T17:18:56Z</time>
      </trkpt>
      <trkpt lat="48.06618" lon="-3.00784">
        <ele>181.34582</ele>
        <time>2009-03-01T17:19:16Z</time>
      </trkpt>
      <trkpt lat="48.06657" lon="-3.00753">
        <ele>179.9038</ele>
        <time>2009-03-01T17:19:34Z</time>
      </trkpt>
      <trkpt lat="48.06677" lon="-3.00738">
        <ele>177.50061</ele>
        <time>2009-03-01T17:19:43Z</time>
      </trkpt>
      <trkpt lat="48.067" lon="-3.00727">
        <ele>177.02001</ele>
        <time>2009-03-01T17:19:53Z</time>
      </trkpt>
      <trkpt lat="48.06737" lon="-3.00722">
        <ele>177.50061</ele>
        <time>2009-03-01T17:20:08Z</time>
      </trkpt>
      <trkpt lat="48.0675" lon="-3.00725">
        <ele>177.9812</ele>
        <time>2009-03-01T17:20:13Z</time>
      </trkpt>
      <trkpt lat="48.06779" lon="-3.00735">
        <ele>179.42321</ele>
        <time>2009-03-01T17:20:25Z</time>
      </trkpt>
      <trkpt lat="48.06811" lon="-3.0075">
        <ele>180.38452</ele>
        <time>2009-03-01T17:20:38Z</time>
      </trkpt>
      <trkpt lat="48.06868" lon="-3.00777">
        <ele>183.26843</ele>
        <time>2009-03-01T17:21:02Z</time>
      </trkpt>
      <trkpt lat="48.0691" lon="-3.00796">
        <ele>184.22985</ele>
        <time>2009-03-01T17:21:20Z</time>
      </trkpt>
      <trkpt lat="48.06946" lon="-3.00803">
        <ele>183.74902</ele>
        <time>2009-03-01T17:21:34Z</time>
      </trkpt>
      <trkpt lat="48.06975" lon="-3.00795">
        <ele>182.78784</ele>
        <time>2009-03-01T17:21:46Z</time>
      </trkpt>
      <trkpt lat="48.07014" lon="-3.0077">
        <ele>182.78784</ele>
        <time>2009-03-01T17:22:03Z</time>
      </trkpt>
      <trkpt lat="48.07022" lon="-3.00745">
        <ele>183.26843</ele>
        <time>2009-03-01T17:22:10Z</time>
      </trkpt>
      <trkpt lat="48.07021" lon="-3.00739">
        <ele>182.78784</ele>
        <time>2009-03-01T17:22:12Z</time>
      </trkpt>
      <trkpt lat="48.07012" lon="-3.00689">
        <ele>182.78784</ele>
        <time>2009-03-01T17:22:26Z</time>
      </trkpt>
      <trkpt lat="48.06994" lon="-3.00589">
        <ele>184.22985</ele>
        <time>2009-03-01T17:22:54Z</time>
      </trkpt>
      <trkpt lat="48.06976" lon="-3.00496">
        <ele>183.26843</ele>
        <time>2009-03-01T17:23:20Z</time>
      </trkpt>
      <trkpt lat="48.06958" lon="-3.00396">
        <ele>180.86523</ele>
        <time>2009-03-01T17:23:47Z</time>
      </trkpt>
      <trkpt lat="48.06957" lon="-3.00386">
        <ele>180.86523</ele>
        <time>2009-03-01T17:23:50Z</time>
      </trkpt>
      <trkpt lat="48.06943" lon="-3.00368">
        <ele>179.9038</ele>
        <time>2009-03-01T17:23:57Z</time>
      </trkpt>
      <trkpt lat="48.06913" lon="-3.00357">
        <ele>181.34582</ele>
        <time>2009-03-01T17:24:09Z</time>
      </trkpt>
      <trkpt lat="48.06908" lon="-3.00355">
        <ele>180.38452</ele>
        <time>2009-03-01T17:24:12Z</time>
      </trkpt>
      <trkpt lat="48.06863" lon="-3.0034">
        <ele>179.9038</ele>
        <time>2009-03-01T17:24:30Z</time>
      </trkpt>
      <trkpt lat="48.0684" lon="-3.00328">
        <ele>179.42321</ele>
        <time>2009-03-01T17:24:40Z</time>
      </trkpt>
      <trkpt lat="48.06821" lon="-3.0033">
        <ele>178.46191</ele>
        <time>2009-03-01T17:24:47Z</time>
      </trkpt>
      <trkpt lat="48.06815" lon="-3.00346">
        <ele>178.94262</ele>
        <time>2009-03-01T17:24:53Z</time>
      </trkpt>
      <trkpt lat="48.06812" lon="-3.00383">
        <ele>179.42321</ele>
        <time>2009-03-01T17:25:02Z</time>
      </trkpt>
      <trkpt lat="48.06801" lon="-3.00406">
        <ele>179.42321</ele>
        <time>2009-03-01T17:25:10Z</time>
      </trkpt>
      <trkpt lat="48.06786" lon="-3.00405">
        <ele>179.42321</ele>
        <time>2009-03-01T17:25:16Z</time>
      </trkpt>
      <trkpt lat="48.06742" lon="-3.00379">
        <ele>176.5393</ele>
        <time>2009-03-01T17:25:35Z</time>
      </trkpt>
      <trkpt lat="48.06711" lon="-3.00346">
        <ele>175.57788</ele>
        <time>2009-03-01T17:25:50Z</time>
      </trkpt>
      <trkpt lat="48.06702" lon="-3.00336">
        <ele>175.57788</ele>
        <time>2009-03-01T17:25:54Z</time>
      </trkpt>
      <trkpt lat="48.06683" lon="-3.00308">
        <ele>174.61657</ele>
        <time>2009-03-01T17:26:05Z</time>
      </trkpt>
      <trkpt lat="48.06656" lon="-3.00278">
        <ele>173.17468</ele>
        <time>2009-03-01T17:26:19Z</time>
      </trkpt>
      <trkpt lat="48.06626" lon="-3.00231">
        <ele>172.21325</ele>
        <time>2009-03-01T17:26:36Z</time>
      </trkpt>
      <trkpt lat="48.06603" lon="-3.00184">
        <ele>170.77136</ele>
        <time>2009-03-01T17:26:52Z</time>
      </trkpt>
      <trkpt lat="48.0659" lon="-3.00139">
        <ele>168.84875</ele>
        <time>2009-03-01T17:27:05Z</time>
      </trkpt>
      <trkpt lat="48.06572" lon="-3.00078">
        <ele>167.40673</ele>
        <time>2009-03-01T17:27:23Z</time>
      </trkpt>
      <trkpt lat="48.0657" lon="-3.0007">
        <ele>167.40673</ele>
        <time>2009-03-01T17:27:25Z</time>
      </trkpt>
      <trkpt lat="48.06562" lon="-3.00051">
        <ele>167.88732</ele>
        <time>2009-03-01T17:27:31Z</time>
      </trkpt>
      <trkpt lat="48.06537" lon="-3.00002">
        <ele>166.92602</ele>
        <time>2009-03-01T17:27:47Z</time>
      </trkpt>
      <trkpt lat="48.06525" lon="-2.99999">
        <ele>166.92602</ele>
        <time>2009-03-01T17:27:52Z</time>
      </trkpt>
      <trkpt lat="48.0652" lon="-3.00008">
        <ele>167.40673</ele>
        <time>2009-03-01T17:27:55Z</time>
      </trkpt>
      <trkpt lat="48.0651" lon="-3.00033">
        <ele>166.44531</ele>
        <time>2009-03-01T17:28:03Z</time>
      </trkpt>
      <trkpt lat="48.06493" lon="-3.00056">
        <ele>165.96472</ele>
        <time>2009-03-01T17:28:12Z</time>
      </trkpt>
      <trkpt lat="48.0649" lon="-3.00062">
        <ele>165.48413</ele>
        <time>2009-03-01T17:28:15Z</time>
      </trkpt>
      <trkpt lat="48.06483" lon="-3.00076">
        <ele>164.5227</ele>
        <time>2009-03-01T17:28:19Z</time>
      </trkpt>
      <trkpt lat="48.06463" lon="-3.00107">
        <ele>162.60009</ele>
        <time>2009-03-01T17:28:31Z</time>
      </trkpt>
      <trkpt lat="48.06448" lon="-3.0013">
        <ele>161.63891</ele>
        <time>2009-03-01T17:28:39Z</time>
      </trkpt>
      <trkpt lat="48.06435" lon="-3.00142">
        <ele>160.67749</ele>
        <time>2009-03-01T17:28:45Z</time>
      </trkpt>
      <trkpt lat="48.06409" lon="-3.00159">
        <ele>157.31286</ele>
        <time>2009-03-01T17:28:57Z</time>
      </trkpt>
      <trkpt lat="48.06398" lon="-3.00167">
        <ele>156.35156</ele>
        <time>2009-03-01T17:29:02Z</time>
      </trkpt>
      <trkpt lat="48.06391" lon="-3.00179">
        <ele>156.35156</ele>
        <time>2009-03-01T17:29:06Z</time>
      </trkpt>
      <trkpt lat="48.06381" lon="-3.00206">
        <ele>155.39025</ele>
        <time>2009-03-01T17:29:14Z</time>
      </trkpt>
      <trkpt lat="48.06359" lon="-3.00226">
        <ele>150.58361</ele>
        <time>2009-03-01T17:29:25Z</time>
      </trkpt>
      <trkpt lat="48.06345" lon="-3.00242">
        <ele>149.1416</ele>
        <time>2009-03-01T17:29:32Z</time>
      </trkpt>
      <trkpt lat="48.06336" lon="-3.00272">
        <ele>148.66101</ele>
        <time>2009-03-01T17:29:40Z</time>
      </trkpt>
      <trkpt lat="48.06332" lon="-3.00287">
        <ele>149.1416</ele>
        <time>2009-03-01T17:29:45Z</time>
      </trkpt>
      <trkpt lat="48.06331" lon="-3.00293">
        <ele>149.1416</ele>
        <time>2009-03-01T17:29:46Z</time>
      </trkpt>
      <trkpt lat="48.06326" lon="-3.00326">
        <ele>150.10302</ele>
        <time>2009-03-01T17:29:55Z</time>
      </trkpt>
      <trkpt lat="48.06321" lon="-3.00356">
        <ele>150.58361</ele>
        <time>2009-03-01T17:30:04Z</time>
      </trkpt>
      <trkpt lat="48.06309" lon="-3.00396">
        <ele>152.98693</ele>
        <time>2009-03-01T17:30:15Z</time>
      </trkpt>
      <trkpt lat="48.06306" lon="-3.004">
        <ele>152.98693</ele>
        <time>2009-03-01T17:30:17Z</time>
      </trkpt>
      <trkpt lat="48.06295" lon="-3.00395">
        <ele>153.94836</ele>
        <time>2009-03-01T17:30:21Z</time>
      </trkpt>
      <trkpt lat="48.06294" lon="-3.00388">
        <ele>153.94836</ele>
        <time>2009-03-01T17:30:23Z</time>
      </trkpt>
      <trkpt lat="48.06285" lon="-3.00348">
        <ele>153.46765</ele>
        <time>2009-03-01T17:30:34Z</time>
      </trkpt>
      <trkpt lat="48.06267" lon="-3.00305">
        <ele>152.50634</ele>
        <time>2009-03-01T17:30:48Z</time>
      </trkpt>
      <trkpt lat="48.0624" lon="-3.0026">
        <ele>152.50634</ele>
        <time>2009-03-01T17:31:04Z</time>
      </trkpt>
      <trkpt lat="48.06212" lon="-3.00226">
        <ele>152.98693</ele>
        <time>2009-03-01T17:31:19Z</time>
      </trkpt>
      <trkpt lat="48.06204" lon="-3.00216">
        <ele>153.94836</ele>
        <time>2009-03-01T17:31:23Z</time>
      </trkpt>
      <trkpt lat="48.06189" lon="-3.00183">
        <ele>155.87097</ele>
        <time>2009-03-01T17:31:34Z</time>
      </trkpt>
      <trkpt lat="48.06187" lon="-3.00171">
        <ele>156.83215</ele>
        <time>2009-03-01T17:31:37Z</time>
      </trkpt>
      <trkpt lat="48.06185" lon="-3.00167">
        <ele>157.31286</ele>
        <time>2009-03-01T17:31:38Z</time>
      </trkpt>
      <trkpt lat="48.06181" lon="-3.0014">
        <ele>159.23547</ele>
        <time>2009-03-01T17:31:46Z</time>
      </trkpt>
      <trkpt lat="48.06172" lon="-3.00124">
        <ele>160.67749</ele>
        <time>2009-03-01T17:31:51Z</time>
      </trkpt>
      <trkpt lat="48.06156" lon="-3.00118">
        <ele>162.60009</ele>
        <time>2009-03-01T17:31:58Z</time>
      </trkpt>
      <trkpt lat="48.06138" lon="-3.00116">
        <ele>163.56152</ele>
        <time>2009-03-01T17:32:05Z</time>
      </trkpt>
      <trkpt lat="48.06104" lon="-3.00113">
        <ele>165.00341</ele>
        <time>2009-03-01T17:32:19Z</time>
      </trkpt>
      <trkpt lat="48.06064" lon="-3.00111">
        <ele>165.48413</ele>
        <time>2009-03-01T17:32:35Z</time>
      </trkpt>
      <trkpt lat="48.06022" lon="-3.00111">
        <ele>165.96472</ele>
        <time>2009-03-01T17:32:51Z</time>
      </trkpt>
      <trkpt lat="48.06008" lon="-3.00111">
        <ele>165.96472</ele>
        <time>2009-03-01T17:32:57Z</time>
      </trkpt>
      <trkpt lat="48.0599" lon="-3.00099">
        <ele>166.92602</ele>
        <time>2009-03-01T17:33:05Z</time>
      </trkpt>
      <trkpt lat="48.05983" lon="-3.00091">
        <ele>166.92602</ele>
        <time>2009-03-01T17:33:09Z</time>
      </trkpt>
      <trkpt lat="48.05967" lon="-3.00073">
        <ele>166.44531</ele>
        <time>2009-03-01T17:33:17Z</time>
      </trkpt>
      <trkpt lat="48.05951" lon="-3.00052">
        <ele>166.92602</ele>
        <time>2009-03-01T17:33:25Z</time>
      </trkpt>
      <trkpt lat="48.05914" lon="-2.99995">
        <ele>166.44531</ele>
        <time>2009-03-01T17:33:46Z</time>
      </trkpt>
      <trkpt lat="48.05893" lon="-2.99958">
        <ele>167.88732</ele>
        <time>2009-03-01T17:33:59Z</time>
      </trkpt>
      <trkpt lat="48.0589" lon="-2.99936">
        <ele>166.44531</ele>
        <time>2009-03-01T17:34:05Z</time>
      </trkpt>
      <trkpt lat="48.05894" lon="-2.99919">
        <ele>165.48413</ele>
        <time>2009-03-01T17:34:10Z</time>
      </trkpt>
      <trkpt lat="48.05899" lon="-2.99899">
        <ele>164.5227</ele>
        <time>2009-03-01T17:34:16Z</time>
      </trkpt>
      <trkpt lat="48.05917" lon="-2.99879">
        <ele>163.08081</ele>
        <time>2009-03-01T17:34:25Z</time>
      </trkpt>
      <trkpt lat="48.05932" lon="-2.9988">
        <ele>161.63891</ele>
        <time>2009-03-01T17:34:31Z</time>
      </trkpt>
      <trkpt lat="48.05954" lon="-2.99892">
        <ele>160.19689</ele>
        <time>2009-03-01T17:34:40Z</time>
      </trkpt>
      <trkpt lat="48.05961" lon="-2.99898">
        <ele>160.67749</ele>
        <time>2009-03-01T17:34:43Z</time>
      </trkpt>
      <trkpt lat="48.05979" lon="-2.99912">
        <ele>157.79357</ele>
        <time>2009-03-01T17:34:51Z</time>
      </trkpt>
      <trkpt lat="48.05997" lon="-2.99896">
        <ele>155.39025</ele>
        <time>2009-03-01T17:35:00Z</time>
      </trkpt>
      <trkpt lat="48.06002" lon="-2.99886">
        <ele>155.39025</ele>
        <time>2009-03-01T17:35:03Z</time>
      </trkpt>
      <trkpt lat="48.06013" lon="-2.99867">
        <ele>153.46765</ele>
        <time>2009-03-01T17:35:10Z</time>
      </trkpt>
      <trkpt lat="48.0604" lon="-2.99813">
        <ele>151.0642</ele>
        <time>2009-03-01T17:35:28Z</time>
      </trkpt>
      <trkpt lat="48.06046" lon="-2.99795">
        <ele>150.10302</ele>
        <time>2009-03-01T17:35:33Z</time>
      </trkpt>
      <trkpt lat="48.06064" lon="-2.99783">
        <ele>145.77709</ele>
        <time>2009-03-01T17:35:41Z</time>
      </trkpt>
      <trkpt lat="48.06076" lon="-2.99765">
        <ele>145.77709</ele>
        <time>2009-03-01T17:35:48Z</time>
      </trkpt>
      <trkpt lat="48.061" lon="-2.9972">
        <ele>144.81579</ele>
        <time>2009-03-01T17:36:03Z</time>
      </trkpt>
      <trkpt lat="48.06106" lon="-2.99687">
        <ele>142.41247</ele>
        <time>2009-03-01T17:36:12Z</time>
      </trkpt>
      <trkpt lat="48.06093" lon="-2.99661">
        <ele>140.97045</ele>
        <time>2009-03-01T17:36:21Z</time>
      </trkpt>
      <trkpt lat="48.06087" lon="-2.99657">
        <ele>141.45104</ele>
        <time>2009-03-01T17:36:24Z</time>
      </trkpt>
      <trkpt lat="48.06077" lon="-2.99649">
        <ele>141.93176</ele>
        <time>2009-03-01T17:36:28Z</time>
      </trkpt>
      <trkpt lat="48.06066" lon="-2.99632">
        <ele>141.45104</ele>
        <time>2009-03-01T17:36:34Z</time>
      </trkpt>
      <trkpt lat="48.0606" lon="-2.9962">
        <ele>142.41247</ele>
        <time>2009-03-01T17:36:39Z</time>
      </trkpt>
      <trkpt lat="48.06051" lon="-2.99588">
        <ele>141.93176</ele>
        <time>2009-03-01T17:36:48Z</time>
      </trkpt>
      <trkpt lat="48.06047" lon="-2.99573">
        <ele>141.93176</ele>
        <time>2009-03-01T17:36:52Z</time>
      </trkpt>
      <trkpt lat="48.06044" lon="-2.99542">
        <ele>140.48986</ele>
        <time>2009-03-01T17:37:01Z</time>
      </trkpt>
      <trkpt lat="48.06048" lon="-2.99525">
        <ele>138.08654</ele>
        <time>2009-03-01T17:37:05Z</time>
      </trkpt>
      <trkpt lat="48.06046" lon="-2.99492">
        <ele>136.16394</ele>
        <time>2009-03-01T17:37:14Z</time>
      </trkpt>
      <trkpt lat="48.06046" lon="-2.99475">
        <ele>134.72192</ele>
        <time>2009-03-01T17:37:19Z</time>
      </trkpt>
      <trkpt lat="48.06053" lon="-2.99478">
        <ele>133.2799</ele>
        <time>2009-03-01T17:37:22Z</time>
      </trkpt>
      <trkpt lat="48.0606" lon="-2.99485">
        <ele>131.83789</ele>
        <time>2009-03-01T17:37:25Z</time>
      </trkpt>
      <trkpt lat="48.06078" lon="-2.99501">
        <ele>127.99255</ele>
        <time>2009-03-01T17:37:34Z</time>
      </trkpt>
      <trkpt lat="48.06094" lon="-2.99513">
        <ele>125.10876</ele>
        <time>2009-03-01T17:37:41Z</time>
      </trkpt>
      <trkpt lat="48.06118" lon="-2.99543">
        <ele>120.78283</ele>
        <time>2009-03-01T17:37:53Z</time>
      </trkpt>
      <trkpt lat="48.06122" lon="-2.99549">
        <ele>119.34082</ele>
        <time>2009-03-01T17:37:56Z</time>
      </trkpt>
      <trkpt lat="48.06134" lon="-2.99546">
        <ele>116.45678</ele>
        <time>2009-03-01T17:38:00Z</time>
      </trkpt>
      <trkpt lat="48.06134" lon="-2.9954">
        <ele>115.97619</ele>
        <time>2009-03-01T17:38:02Z</time>
      </trkpt>
      <trkpt lat="48.06133" lon="-2.99518">
        <ele>113.57299</ele>
        <time>2009-03-01T17:38:08Z</time>
      </trkpt>
      <trkpt lat="48.06128" lon="-2.99498">
        <ele>112.61157</ele>
        <time>2009-03-01T17:38:13Z</time>
      </trkpt>
      <trkpt lat="48.06121" lon="-2.99475">
        <ele>110.20825</ele>
        <time>2009-03-01T17:38:20Z</time>
      </trkpt>
      <trkpt lat="48.06119" lon="-2.99469">
        <ele>110.20825</ele>
        <time>2009-03-01T17:38:22Z</time>
      </trkpt>
      <trkpt lat="48.06117" lon="-2.99464">
        <ele>110.20825</ele>
        <time>2009-03-01T17:38:23Z</time>
      </trkpt>
      <trkpt lat="48.06109" lon="-2.99441">
        <ele>107.80505</ele>
        <time>2009-03-01T17:38:30Z</time>
      </trkpt>
      <trkpt lat="48.06091" lon="-2.99405">
        <ele>105.88244</ele>
        <time>2009-03-01T17:38:42Z</time>
      </trkpt>
      <trkpt lat="48.06072" lon="-2.9936">
        <ele>103.95971</ele>
        <time>2009-03-01T17:38:57Z</time>
      </trkpt>
      <trkpt lat="48.06047" lon="-2.9932">
        <ele>102.99829</ele>
        <time>2009-03-01T17:39:11Z</time>
      </trkpt>
      <trkpt lat="48.06037" lon="-2.99315">
        <ele>102.99829</ele>
        <time>2009-03-01T17:39:16Z</time>
      </trkpt>
      <trkpt lat="48.06011" lon="-2.99314">
        <ele>101.07568</ele>
        <time>2009-03-01T17:39:26Z</time>
      </trkpt>
      <trkpt lat="48.05976" lon="-2.99321">
        <ele>98.672485</ele>
        <time>2009-03-01T17:39:40Z</time>
      </trkpt>
      <trkpt lat="48.05952" lon="-2.99325">
        <ele>98.191894</ele>
        <time>2009-03-01T17:39:50Z</time>
      </trkpt>
      <trkpt lat="48.05912" lon="-2.99324">
        <ele>97.711181</ele>
        <time>2009-03-01T17:40:06Z</time>
      </trkpt>
      <trkpt lat="48.05875" lon="-2.99316">
        <ele>95.788452</ele>
        <time>2009-03-01T17:40:21Z</time>
      </trkpt>
      <trkpt lat="48.05845" lon="-2.99302">
        <ele>94.346557</ele>
        <time>2009-03-01T17:40:33Z</time>
      </trkpt>
      <trkpt lat="48.05833" lon="-2.99296">
        <ele>93.865844</ele>
        <time>2009-03-01T17:40:38Z</time>
      </trkpt>
      <trkpt lat="48.05823" lon="-2.9929">
        <ele>92.42395</ele>
        <time>2009-03-01T17:40:43Z</time>
      </trkpt>
      <trkpt lat="48.05813" lon="-2.99284">
        <ele>92.42395</ele>
        <time>2009-03-01T17:40:47Z</time>
      </trkpt>
      <trkpt lat="48.05786" lon="-2.99264">
        <ele>91.943237</ele>
        <time>2009-03-01T17:40:59Z</time>
      </trkpt>
      <trkpt lat="48.05778" lon="-2.99256">
        <ele>90.981933</ele>
        <time>2009-03-01T17:41:03Z</time>
      </trkpt>
      <trkpt lat="48.05765" lon="-2.99238">
        <ele>90.501342</ele>
        <time>2009-03-01T17:41:10Z</time>
      </trkpt>
      <trkpt lat="48.05747" lon="-2.99213">
        <ele>89.539917</ele>
        <time>2009-03-01T17:41:20Z</time>
      </trkpt>
      <trkpt lat="48.05722" lon="-2.99186">
        <ele>89.059326</ele>
        <time>2009-03-01T17:41:32Z</time>
      </trkpt>
      <trkpt lat="48.05698" lon="-2.99175">
        <ele>90.501342</ele>
        <time>2009-03-01T17:41:42Z</time>
      </trkpt>
      <trkpt lat="48.05694" lon="-2.99174">
        <ele>90.981933</ele>
        <time>2009-03-01T17:41:44Z</time>
      </trkpt>
      <trkpt lat="48.05673" lon="-2.99173">
        <ele>94.346557</ele>
        <time>2009-03-01T17:41:52Z</time>
      </trkpt>
      <trkpt lat="48.05647" lon="-2.99183">
        <ele>96.749877</ele>
        <time>2009-03-01T17:42:03Z</time>
      </trkpt>
      <trkpt lat="48.05631" lon="-2.99188">
        <ele>97.230468</ele>
        <time>2009-03-01T17:42:09Z</time>
      </trkpt>
      <trkpt lat="48.05604" lon="-2.9919">
        <ele>98.672485</ele>
        <time>2009-03-01T17:42:20Z</time>
      </trkpt>
      <trkpt lat="48.05577" lon="-2.99192">
        <ele>98.672485</ele>
        <time>2009-03-01T17:42:31Z</time>
      </trkpt>
      <trkpt lat="48.0556" lon="-2.99187">
        <ele>99.153076</ele>
        <time>2009-03-01T17:42:38Z</time>
      </trkpt>
      <trkpt lat="48.05546" lon="-2.99179">
        <ele>97.711181</ele>
        <time>2009-03-01T17:42:44Z</time>
      </trkpt>
      <trkpt lat="48.05527" lon="-2.99152">
        <ele>98.672485</ele>
        <time>2009-03-01T17:42:55Z</time>
      </trkpt>
      <trkpt lat="48.05518" lon="-2.99145">
        <ele>99.153076</ele>
        <time>2009-03-01T17:42:59Z</time>
      </trkpt>
      <trkpt lat="48.05494" lon="-2.99123">
        <ele>98.672485</ele>
        <time>2009-03-01T17:43:10Z</time>
      </trkpt>
      <trkpt lat="48.05481" lon="-2.99113">
        <ele>99.153076</ele>
        <time>2009-03-01T17:43:16Z</time>
      </trkpt>
      <trkpt lat="48.05468" lon="-2.99103">
        <ele>98.672485</ele>
        <time>2009-03-01T17:43:21Z</time>
      </trkpt>
      <trkpt lat="48.05438" lon="-2.99086">
        <ele>98.672485</ele>
        <time>2009-03-01T17:43:34Z</time>
      </trkpt>
      <trkpt lat="48.05416" lon="-2.9907">
        <ele>97.711181</ele>
        <time>2009-03-01T17:43:44Z</time>
      </trkpt>
      <trkpt lat="48.05401" lon="-2.99059">
        <ele>96.749877</ele>
        <time>2009-03-01T17:43:51Z</time>
      </trkpt>
      <trkpt lat="48.05384" lon="-2.9906">
        <ele>98.672485</ele>
        <time>2009-03-01T17:43:57Z</time>
      </trkpt>
      <trkpt lat="48.05361" lon="-2.9908">
        <ele>101.55639</ele>
        <time>2009-03-01T17:44:08Z</time>
      </trkpt>
      <trkpt lat="48.05338" lon="-2.99099">
        <ele>104.44042</ele>
        <time>2009-03-01T17:44:19Z</time>
      </trkpt>
      <trkpt lat="48.05314" lon="-2.9912">
        <ele>107.32434</ele>
        <time>2009-03-01T17:44:30Z</time>
      </trkpt>
      <trkpt lat="48.05312" lon="-2.99122">
        <ele>107.80505</ele>
        <time>2009-03-01T17:44:31Z</time>
      </trkpt>
      <trkpt lat="48.0529" lon="-2.99139">
        <ele>109.24694</ele>
        <time>2009-03-01T17:44:41Z</time>
      </trkpt>
      <trkpt lat="48.05265" lon="-2.99153">
        <ele>111.65026</ele>
        <time>2009-03-01T17:44:51Z</time>
      </trkpt>
      <trkpt lat="48.05233" lon="-2.99169">
        <ele>114.05358</ele>
        <time>2009-03-01T17:45:05Z</time>
      </trkpt>
      <trkpt lat="48.05209" lon="-2.99177">
        <ele>116.9375</ele>
        <time>2009-03-01T17:45:15Z</time>
      </trkpt>
      <trkpt lat="48.05176" lon="-2.99184">
        <ele>120.30212</ele>
        <time>2009-03-01T17:45:28Z</time>
      </trkpt>
      <trkpt lat="48.05156" lon="-2.99191">
        <ele>120.30212</ele>
        <time>2009-03-01T17:45:36Z</time>
      </trkpt>
      <trkpt lat="48.05137" lon="-2.99205">
        <ele>122.22473</ele>
        <time>2009-03-01T17:45:45Z</time>
      </trkpt>
      <trkpt lat="48.05113" lon="-2.99222">
        <ele>124.62805</ele>
        <time>2009-03-01T17:45:55Z</time>
      </trkpt>
      <trkpt lat="48.05085" lon="-2.99232">
        <ele>127.51196</ele>
        <time>2009-03-01T17:46:07Z</time>
      </trkpt>
      <trkpt lat="48.05075" lon="-2.99234">
        <ele>128.9541</ele>
        <time>2009-03-01T17:46:11Z</time>
      </trkpt>
      <trkpt lat="48.05053" lon="-2.99239">
        <ele>129.91528</ele>
        <time>2009-03-01T17:46:20Z</time>
      </trkpt>
      <trkpt lat="48.0503" lon="-2.99246">
        <ele>130.39599</ele>
        <time>2009-03-01T17:46:29Z</time>
      </trkpt>
      <trkpt lat="48.04999" lon="-2.99262">
        <ele>131.83789</ele>
        <time>2009-03-01T17:46:43Z</time>
      </trkpt>
      <trkpt lat="48.04995" lon="-2.99264">
        <ele>132.3186</ele>
        <time>2009-03-01T17:46:44Z</time>
      </trkpt>
      <trkpt lat="48.04981" lon="-2.99274">
        <ele>131.83789</ele>
        <time>2009-03-01T17:46:50Z</time>
      </trkpt>
      <trkpt lat="48.04964" lon="-2.99299">
        <ele>129.43469</ele>
        <time>2009-03-01T17:47:00Z</time>
      </trkpt>
      <trkpt lat="48.04952" lon="-2.99334">
        <ele>128.9541</ele>
        <time>2009-03-01T17:47:10Z</time>
      </trkpt>
      <trkpt lat="48.04954" lon="-2.99375">
        <ele>127.99255</ele>
        <time>2009-03-01T17:47:21Z</time>
      </trkpt>
      <trkpt lat="48.04958" lon="-2.99383">
        <ele>127.99255</ele>
        <time>2009-03-01T17:47:24Z</time>
      </trkpt>
      <trkpt lat="48.04976" lon="-2.99417">
        <ele>126.55065</ele>
        <time>2009-03-01T17:47:36Z</time>
      </trkpt>
      <trkpt lat="48.04997" lon="-2.99464">
        <ele>124.62805</ele>
        <time>2009-03-01T17:47:51Z</time>
      </trkpt>
      <trkpt lat="48.05014" lon="-2.99512">
        <ele>124.62805</ele>
        <time>2009-03-01T17:48:05Z</time>
      </trkpt>
      <trkpt lat="48.05016" lon="-2.99519">
        <ele>124.62805</ele>
        <time>2009-03-01T17:48:07Z</time>
      </trkpt>
      <trkpt lat="48.05018" lon="-2.99534">
        <ele>124.14733</ele>
        <time>2009-03-01T17:48:11Z</time>
      </trkpt>
      <trkpt lat="48.05015" lon="-2.9957">
        <ele>125.10876</ele>
        <time>2009-03-01T17:48:21Z</time>
      </trkpt>
      <trkpt lat="48.05013" lon="-2.99576">
        <ele>125.10876</ele>
        <time>2009-03-01T17:48:23Z</time>
      </trkpt>
      <trkpt lat="48.05007" lon="-2.99586">
        <ele>125.58935</ele>
        <time>2009-03-01T17:48:26Z</time>
      </trkpt>
      <trkpt lat="48.04992" lon="-2.99604">
        <ele>126.06994</ele>
        <time>2009-03-01T17:48:34Z</time>
      </trkpt>
      <trkpt lat="48.04971" lon="-2.99616">
        <ele>126.55065</ele>
        <time>2009-03-01T17:48:43Z</time>
      </trkpt>
      <trkpt lat="48.04926" lon="-2.99635">
        <ele>127.99255</ele>
        <time>2009-03-01T17:49:02Z</time>
      </trkpt>
      <trkpt lat="48.04922" lon="-2.99637">
        <ele>127.99255</ele>
        <time>2009-03-01T17:49:03Z</time>
      </trkpt>
      <trkpt lat="48.04884" lon="-2.99655">
        <ele>128.9541</ele>
        <time>2009-03-01T17:49:20Z</time>
      </trkpt>
      <trkpt lat="48.04861" lon="-2.99674">
        <ele>130.39599</ele>
        <time>2009-03-01T17:49:30Z</time>
      </trkpt>
      <trkpt lat="48.04849" lon="-2.99686">
        <ele>131.35729</ele>
        <time>2009-03-01T17:49:36Z</time>
      </trkpt>
      <trkpt lat="48.04842" lon="-2.99702">
        <ele>132.79931</ele>
        <time>2009-03-01T17:49:41Z</time>
      </trkpt>
      <trkpt lat="48.04837" lon="-2.99713">
        <ele>133.76049</ele>
        <time>2009-03-01T17:49:44Z</time>
      </trkpt>
      <trkpt lat="48.0483" lon="-2.99726">
        <ele>136.16394</ele>
        <time>2009-03-01T17:49:49Z</time>
      </trkpt>
      <trkpt lat="48.04828" lon="-2.99729">
        <ele>136.16394</ele>
        <time>2009-03-01T17:49:50Z</time>
      </trkpt>
      <trkpt lat="48.04821" lon="-2.99749">
        <ele>137.12524</ele>
        <time>2009-03-01T17:49:56Z</time>
      </trkpt>
      <trkpt lat="48.04816" lon="-2.99768">
        <ele>138.56726</ele>
        <time>2009-03-01T17:50:02Z</time>
      </trkpt>
      <trkpt lat="48.04811" lon="-2.9979">
        <ele>139.04785</ele>
        <time>2009-03-01T17:50:08Z</time>
      </trkpt>
      <trkpt lat="48.04807" lon="-2.99805">
        <ele>139.52844</ele>
        <time>2009-03-01T17:50:12Z</time>
      </trkpt>
      <trkpt lat="48.04804" lon="-2.99821">
        <ele>140.00915</ele>
        <time>2009-03-01T17:50:17Z</time>
      </trkpt>
      <trkpt lat="48.04802" lon="-2.99827">
        <ele>140.97045</ele>
        <time>2009-03-01T17:50:18Z</time>
      </trkpt>
      <trkpt lat="48.04798" lon="-2.9984">
        <ele>141.93176</ele>
        <time>2009-03-01T17:50:22Z</time>
      </trkpt>
      <trkpt lat="48.04792" lon="-2.99861">
        <ele>143.37365</ele>
        <time>2009-03-01T17:50:29Z</time>
      </trkpt>
      <trkpt lat="48.04788" lon="-2.99876">
        <ele>144.3352</ele>
        <time>2009-03-01T17:50:33Z</time>
      </trkpt>
      <trkpt lat="48.04782" lon="-2.9989">
        <ele>144.81579</ele>
        <time>2009-03-01T17:50:37Z</time>
      </trkpt>
      <trkpt lat="48.04777" lon="-2.99899">
        <ele>145.77709</ele>
        <time>2009-03-01T17:50:40Z</time>
      </trkpt>
      <trkpt lat="48.04774" lon="-2.99913">
        <ele>147.21899</ele>
        <time>2009-03-01T17:50:44Z</time>
      </trkpt>
      <trkpt lat="48.04768" lon="-2.99925">
        <ele>149.1416</ele>
        <time>2009-03-01T17:50:48Z</time>
      </trkpt>
      <trkpt lat="48.04758" lon="-2.9994">
        <ele>151.0642</ele>
        <time>2009-03-01T17:50:54Z</time>
      </trkpt>
      <trkpt lat="48.04753" lon="-2.99944">
        <ele>151.54492</ele>
        <time>2009-03-01T17:50:56Z</time>
      </trkpt>
      <trkpt lat="48.04749" lon="-2.99948">
        <ele>152.50634</ele>
        <time>2009-03-01T17:50:58Z</time>
      </trkpt>
      <trkpt lat="48.04741" lon="-2.99959">
        <ele>153.46765</ele>
        <time>2009-03-01T17:51:02Z</time>
      </trkpt>
      <trkpt lat="48.04736" lon="-2.99965">
        <ele>153.94836</ele>
        <time>2009-03-01T17:51:05Z</time>
      </trkpt>
      <trkpt lat="48.04727" lon="-2.99976">
        <ele>153.94836</ele>
        <time>2009-03-01T17:51:10Z</time>
      </trkpt>
      <trkpt lat="48.0472" lon="-2.99985">
        <ele>154.42895</ele>
        <time>2009-03-01T17:51:13Z</time>
      </trkpt>
      <trkpt lat="48.0471" lon="-2.99984">
        <ele>154.90954</ele>
        <time>2009-03-01T17:51:17Z</time>
      </trkpt>
      <trkpt lat="48.04704" lon="-2.99995">
        <ele>155.39025</ele>
        <time>2009-03-01T17:51:21Z</time>
      </trkpt>
      <trkpt lat="48.04698" lon="-3.00003">
        <ele>154.90954</ele>
        <time>2009-03-01T17:51:24Z</time>
      </trkpt>
      <trkpt lat="48.04687" lon="-2.99997">
        <ele>155.39025</ele>
        <time>2009-03-01T17:51:29Z</time>
      </trkpt>
      <trkpt lat="48.04672" lon="-2.99988">
        <ele>154.90954</ele>
        <time>2009-03-01T17:51:35Z</time>
      </trkpt>
      <trkpt lat="48.04664" lon="-2.99982">
        <ele>154.90954</ele>
        <time>2009-03-01T17:51:39Z</time>
      </trkpt>
      <trkpt lat="48.04656" lon="-2.99977">
        <ele>154.90954</ele>
        <time>2009-03-01T17:51:43Z</time>
      </trkpt>
      <trkpt lat="48.04634" lon="-2.9996">
        <ele>153.94836</ele>
        <time>2009-03-01T17:51:52Z</time>
      </trkpt>
      <trkpt lat="48.04622" lon="-2.99954">
        <ele>154.42895</ele>
        <time>2009-03-01T17:51:57Z</time>
      </trkpt>
      <trkpt lat="48.04601" lon="-2.99937">
        <ele>153.46765</ele>
        <time>2009-03-01T17:52:07Z</time>
      </trkpt>
      <trkpt lat="48.04578" lon="-2.99919">
        <ele>152.02575</ele>
        <time>2009-03-01T17:52:18Z</time>
      </trkpt>
      <trkpt lat="48.04568" lon="-2.99906">
        <ele>152.50634</ele>
        <time>2009-03-01T17:52:23Z</time>
      </trkpt>
      <trkpt lat="48.04567" lon="-2.99903">
        <ele>152.50634</ele>
        <time>2009-03-01T17:52:24Z</time>
      </trkpt>
      <trkpt lat="48.04569" lon="-2.99886">
        <ele>153.94836</ele>
        <time>2009-03-01T17:52:28Z</time>
      </trkpt>
      <trkpt lat="48.04572" lon="-2.99881">
        <ele>153.94836</ele>
        <time>2009-03-01T17:52:30Z</time>
      </trkpt>
      <trkpt lat="48.04579" lon="-2.99865">
        <ele>154.42895</ele>
        <time>2009-03-01T17:52:35Z</time>
      </trkpt>
      <trkpt lat="48.04577" lon="-2.99853">
        <ele>154.90954</ele>
        <time>2009-03-01T17:52:39Z</time>
      </trkpt>
      <trkpt lat="48.04566" lon="-2.99828">
        <ele>154.90954</ele>
        <time>2009-03-01T17:52:47Z</time>
      </trkpt>
      <trkpt lat="48.04564" lon="-2.99822">
        <ele>154.90954</ele>
        <time>2009-03-01T17:52:48Z</time>
      </trkpt>
      <trkpt lat="48.04558" lon="-2.9981">
        <ele>154.42895</ele>
        <time>2009-03-01T17:52:52Z</time>
      </trkpt>
      <trkpt lat="48.04553" lon="-2.99796">
        <ele>154.42895</ele>
        <time>2009-03-01T17:52:57Z</time>
      </trkpt>
      <trkpt lat="48.04537" lon="-2.99761">
        <ele>153.94836</ele>
        <time>2009-03-01T17:53:08Z</time>
      </trkpt>
      <trkpt lat="48.0453" lon="-2.99746">
        <ele>153.94836</ele>
        <time>2009-03-01T17:53:13Z</time>
      </trkpt>
      <trkpt lat="48.04521" lon="-2.99722">
        <ele>152.98693</ele>
        <time>2009-03-01T17:53:20Z</time>
      </trkpt>
      <trkpt lat="48.04521" lon="-2.9969">
        <ele>152.50634</ele>
        <time>2009-03-01T17:53:29Z</time>
      </trkpt>
      <trkpt lat="48.04524" lon="-2.99684">
        <ele>151.54492</ele>
        <time>2009-03-01T17:53:31Z</time>
      </trkpt>
      <trkpt lat="48.04535" lon="-2.99665">
        <ele>151.54492</ele>
        <time>2009-03-01T17:53:37Z</time>
      </trkpt>
      <trkpt lat="48.04557" lon="-2.99651">
        <ele>151.0642</ele>
        <time>2009-03-01T17:53:47Z</time>
      </trkpt>
      <trkpt lat="48.04561" lon="-2.99652">
        <ele>151.54492</ele>
        <time>2009-03-01T17:53:49Z</time>
      </trkpt>
      <trkpt lat="48.04576" lon="-2.99652">
        <ele>151.0642</ele>
        <time>2009-03-01T17:53:54Z</time>
      </trkpt>
      <trkpt lat="48.04589" lon="-2.99639">
        <ele>150.58361</ele>
        <time>2009-03-01T17:54:01Z</time>
      </trkpt>
      <trkpt lat="48.04586" lon="-2.99627">
        <ele>149.62231</ele>
        <time>2009-03-01T17:54:04Z</time>
      </trkpt>
      <trkpt lat="48.04579" lon="-2.99596">
        <ele>146.25781</ele>
        <time>2009-03-01T17:54:13Z</time>
      </trkpt>
      <trkpt lat="48.04569" lon="-2.99573">
        <ele>144.81579</ele>
        <time>2009-03-01T17:54:20Z</time>
      </trkpt>
      <trkpt lat="48.04542" lon="-2.99517">
        <ele>140.97045</ele>
        <time>2009-03-01T17:54:39Z</time>
      </trkpt>
      <trkpt lat="48.04528" lon="-2.99483">
        <ele>136.16394</ele>
        <time>2009-03-01T17:54:49Z</time>
      </trkpt>
      <trkpt lat="48.04517" lon="-2.9946">
        <ele>132.3186</ele>
        <time>2009-03-01T17:54:57Z</time>
      </trkpt>
      <trkpt lat="48.04503" lon="-2.99432">
        <ele>128.9541</ele>
        <time>2009-03-01T17:55:06Z</time>
      </trkpt>
      <trkpt lat="48.04477" lon="-2.99387">
        <ele>124.62805</ele>
        <time>2009-03-01T17:55:22Z</time>
      </trkpt>
      <trkpt lat="48.04459" lon="-2.99361">
        <ele>121.74414</ele>
        <time>2009-03-01T17:55:32Z</time>
      </trkpt>
      <trkpt lat="48.04448" lon="-2.99331">
        <ele>119.34082</ele>
        <time>2009-03-01T17:55:42Z</time>
      </trkpt>
      <trkpt lat="48.0446" lon="-2.99336">
        <ele>118.8601</ele>
        <time>2009-03-01T17:55:47Z</time>
      </trkpt>
      <trkpt lat="48.04473" lon="-2.99337">
        <ele>116.9375</ele>
        <time>2009-03-01T17:55:52Z</time>
      </trkpt>
      <trkpt lat="48.04521" lon="-2.99326">
        <ele>115.4956</ele>
        <time>2009-03-01T17:56:11Z</time>
      </trkpt>
      <trkpt lat="48.04527" lon="-2.99324">
        <ele>115.4956</ele>
        <time>2009-03-01T17:56:14Z</time>
      </trkpt>
      <trkpt lat="48.0455" lon="-2.99308">
        <ele>115.01489</ele>
        <time>2009-03-01T17:56:24Z</time>
      </trkpt>
      <trkpt lat="48.04555" lon="-2.99296">
        <ele>113.57299</ele>
        <time>2009-03-01T17:56:28Z</time>
      </trkpt>
      <trkpt lat="48.04554" lon="-2.99288">
        <ele>113.57299</ele>
        <time>2009-03-01T17:56:30Z</time>
      </trkpt>
      <trkpt lat="48.04549" lon="-2.99252">
        <ele>112.13098</ele>
        <time>2009-03-01T17:56:40Z</time>
      </trkpt>
      <trkpt lat="48.04541" lon="-2.99199">
        <ele>109.72766</ele>
        <time>2009-03-01T17:56:54Z</time>
      </trkpt>
      <trkpt lat="48.04531" lon="-2.99127">
        <ele>107.32434</ele>
        <time>2009-03-01T17:57:14Z</time>
      </trkpt>
      <trkpt lat="48.04522" lon="-2.99068">
        <ele>104.92102</ele>
        <time>2009-03-01T17:57:30Z</time>
      </trkpt>
      <trkpt lat="48.04515" lon="-2.99012">
        <ele>103.95971</ele>
        <time>2009-03-01T17:57:45Z</time>
      </trkpt>
      <trkpt lat="48.04507" lon="-2.98986">
        <ele>103.479</ele>
        <time>2009-03-01T17:57:53Z</time>
      </trkpt>
      <trkpt lat="48.0451" lon="-2.98967">
        <ele>102.0371</ele>
        <time>2009-03-01T17:57:58Z</time>
      </trkpt>
      <trkpt lat="48.04506" lon="-2.98925">
        <ele>100.59509</ele>
        <time>2009-03-01T17:58:10Z</time>
      </trkpt>
      <trkpt lat="48.04505" lon="-2.98908">
        <ele>100.1145</ele>
        <time>2009-03-01T17:58:14Z</time>
      </trkpt>
      <trkpt lat="48.04506" lon="-2.98845">
        <ele>96.749877</ele>
        <time>2009-03-01T17:58:31Z</time>
      </trkpt>
      <trkpt lat="48.04509" lon="-2.98808">
        <ele>95.307739</ele>
        <time>2009-03-01T17:58:41Z</time>
      </trkpt>
      <trkpt lat="48.04514" lon="-2.98755">
        <ele>92.42395</ele>
        <time>2009-03-01T17:58:55Z</time>
      </trkpt>
      <trkpt lat="48.04526" lon="-2.98701">
        <ele>89.059326</ele>
        <time>2009-03-01T17:59:11Z</time>
      </trkpt>
      <trkpt lat="48.04533" lon="-2.98673">
        <ele>88.578735</ele>
        <time>2009-03-01T17:59:19Z</time>
      </trkpt>
      <trkpt lat="48.04546" lon="-2.98625">
        <ele>86.656005</ele>
        <time>2009-03-01T17:59:33Z</time>
      </trkpt>
      <trkpt lat="48.04541" lon="-2.98598">
        <ele>86.656005</ele>
        <time>2009-03-01T17:59:40Z</time>
      </trkpt>
      <trkpt lat="48.04529" lon="-2.986">
        <ele>86.656005</ele>
        <time>2009-03-01T17:59:45Z</time>
      </trkpt>
      <trkpt lat="48.04512" lon="-2.98609">
        <ele>87.617187</ele>
        <time>2009-03-01T17:59:52Z</time>
      </trkpt>
      <trkpt lat="48.04507" lon="-2.98612">
        <ele>87.617187</ele>
        <time>2009-03-01T17:59:54Z</time>
      </trkpt>
      <trkpt lat="48.04486" lon="-2.98615">
        <ele>87.136596</ele>
        <time>2009-03-01T18:00:03Z</time>
      </trkpt>
      <trkpt lat="48.04469" lon="-2.98585">
        <ele>85.69458</ele>
        <time>2009-03-01T18:00:13Z</time>
      </trkpt>
      <trkpt lat="48.04467" lon="-2.98577">
        <ele>85.213989</ele>
        <time>2009-03-01T18:00:16Z</time>
      </trkpt>
      <trkpt lat="48.0446" lon="-2.98552">
        <ele>83.771972</ele>
        <time>2009-03-01T18:00:23Z</time>
      </trkpt>
      <trkpt lat="48.04444" lon="-2.98491">
        <ele>82.810791</ele>
        <time>2009-03-01T18:00:40Z</time>
      </trkpt>
      <trkpt lat="48.04431" lon="-2.98442">
        <ele>82.810791</ele>
        <time>2009-03-01T18:00:55Z</time>
      </trkpt>
      <trkpt lat="48.04427" lon="-2.98416">
        <ele>82.330078</ele>
        <time>2009-03-01T18:01:02Z</time>
      </trkpt>
      <trkpt lat="48.04419" lon="-2.98398">
        <ele>82.810791</ele>
        <time>2009-03-01T18:01:08Z</time>
      </trkpt>
      <trkpt lat="48.04418" lon="-2.98396">
        <ele>82.330078</ele>
        <time>2009-03-01T18:01:08Z</time>
      </trkpt>
      <trkpt lat="48.04411" lon="-2.9837">
        <ele>82.810791</ele>
        <time>2009-03-01T18:01:16Z</time>
      </trkpt>
      <trkpt lat="48.0441" lon="-2.98366">
        <ele>83.291381</ele>
        <time>2009-03-01T18:01:17Z</time>
      </trkpt>
      <trkpt lat="48.04407" lon="-2.98362">
        <ele>83.771972</ele>
        <time>2009-03-01T18:01:18Z</time>
      </trkpt>
      <trkpt lat="48.04405" lon="-2.98362">
        <ele>83.771972</ele>
        <time>2009-03-01T18:01:19Z</time>
      </trkpt>
    </trkseg>
  </trk>
</gpx>